GFSSGP_925_spd_000.txt.gz
Wind_Speed
21 23 24 5 4 4 3 4 3 6 5 2 4 1 2 2 2 3 7 15 10 20 24 18 19 16 16 15 13 10 9 10 10 10 8 9 8 5 7 7 6 3 1 2 2 2 5 3 3
19 22 6 2 3 2 4 3 1 3 4 9 4 4 3 2 1 4 9 16 15 22 24 21 19 16 17 16 12 9 9 9 9 10 7 6 7 6 6 5 3 3 3 4 3 1 2 4 6
17 9 3 3 2 4 4 3 5 3 5 3 1 5 3 1 2 8 5 20 17 21 23 22 20 18 16 16 11 9 9 9 8 11 8 7 6 8 10 4 3 5 6 5 4 2 2 3 3
7 6 4 2 8 7 5 7 6 3 4 4 2 6 3 1 4 8 16 21 19 20 23 22 20 18 17 16 11 10 10 8 8 10 8 5 3 5 8 7 4 3 3 4 4 3 4 6 7
3 3 0 2 7 6 4 5 6 3 2 4 6 3 2 2 6 14 19 22 21 22 22 21 20 19 18 14 12 10 11 9 8 8 8 6 2 1 7 8 8 4 3 3 4 4 6 8 9
2 3 2 5 7 7 6 7 5 4 0 4 3 2 2 5 13 14 18 20 20 22 23 22 20 19 18 14 12 10 11 10 8 8 8 6 4 1 3 6 5 4 4 5 6 7 9 9 10
5 3 5 5 6 7 5 5 4 6 4 3 2 1 2 4 14 17 13 21 22 23 25 22 21 19 17 16 13 11 11 10 8 7 6 7 6 5 3 6 6 5 5 6 8 10 10 10 10
3 4 5 5 5 10 5 3 3 4 5 2 4 3 4 6 18 18 14 15 24 24 22 20 21 20 19 17 15 14 14 12 10 7 4 3 5 5 3 3 4 5 7 9 9 9 7 7 8
2 2 6 8 8 10 3 3 4 4 5 3 3 6 6 8 16 17 15 16 24 24 22 19 21 21 20 18 16 15 13 11 10 8 3 4 5 6 5 4 3 4 4 4 5 5 7 8 10
5 6 9 6 9 7 7 6 7 2 2 2 2 0 5 17 18 14 14 18 22 26 25 22 20 22 19 18 17 15 13 12 10 8 8 5 4 2 2 2 4 4 4 4 6 7 9 10 12
5 11 5 4 11 7 7 4 6 7 5 6 4 2 3 9 13 13 18 23 31 30 27 27 24 21 18 19 17 15 12 11 10 9 8 6 4 2 1 1 3 5 6 7 7 8 10 12 13
8 8 10 4 6 5 4 4 6 5 7 6 7 5 5 9 9 15 20 26 25 26 28 26 26 24 20 19 18 16 12 11 9 10 8 8 5 4 2 2 5 4 4 5 8 7 8 8 10
9 7 10 10 14 14 13 12 9 10 9 8 8 7 8 8 9 18 20 17 23 29 30 28 25 25 22 20 19 14 12 13 8 11 10 8 5 3 1 2 4 5 5 6 6 7 9 11 13
5 6 11 9 12 8 17 19 5 8 9 9 8 11 10 9 11 8 15 15 16 24 32 28 25 25 23 21 18 13 12 13 11 10 8 5 3 4 7 6 8 8 7 6 7 9 12 14 16
6 11 10 8 5 10 11 22 16 10 8 10 10 11 9 9 10 15 19 16 17 22 28 29 26 24 22 22 17 14 12 13 13 12 8 7 6 7 9 5 5 6 5 6 9 11 14 15 16
4 4 8 4 8 5 8 25 8 10 9 11 11 10 8 7 8 12 13 14 13 20 23 28 26 24 21 20 17 16 16 16 15 12 10 10 7 7 5 5 5 6 6 9 12 14 14 15 18
4 6 6 5 5 5 12 24 11 10 8 11 10 10 8 7 5 12 13 14 14 16 21 24 25 26 23 21 21 19 17 18 18 16 16 14 11 9 7 7 7 6 8 10 12 13 14 16 20
12 7 9 9 3 8 17 21 9 10 10 11 12 7 8 9 9 14 14 13 14 14 16 19 28 30 28 25 26 26 25 22 19 18 17 14 12 10 8 8 8 8 9 10 11 12 14 14 21
7 9 12 4 4 10 15 17 17 12 9 11 10 7 8 9 7 12 14 14 15 13 18 25 34 32 33 30 31 30 27 24 22 20 18 16 13 11 10 9 8 8 9 10 12 13 16 13 23
11 16 15 9 9 8 9 15 14 15 14 12 13 8 9 6 7 7 13 16 16 17 21 28 34 34 34 33 29 30 28 24 23 20 18 15 12 11 10 9 9 8 9 10 12 14 14 9 20
14 17 10 9 14 18 12 22 13 12 11 13 8 9 11 16 12 9 9 17 19 21 26 32 34 33 32 32 30 30 26 25 23 19 17 13 11 10 9 8 8 8 9 10 11 13 15 14 15
18 7 13 13 6 7 3 9 8 9 13 12 10 10 14 10 7 6 8 14 23 23 27 30 31 31 31 32 33 34 27 25 21 18 16 13 10 9 8 8 8 8 8 9 11 13 15 17 17
11 9 11 10 10 7 18 9 5 10 10 16 13 14 16 16 15 14 12 20 26 26 28 31 33 31 32 32 33 30 27 21 20 18 15 11 8 7 7 7 7 8 9 10 12 15 17 17 17
4 9 8 6 4 11 16 9 9 10 12 8 6 12 16 15 10 8 12 24 27 27 29 32 34 32 31 30 28 26 25 23 21 17 14 9 6 5 6 6 7 7 9 11 14 15 17 18 17
12 7 3 6 6 8 6 12 19 8 16 20 10 12 15 15 15 13 15 14 24 28 30 31 31 30 30 28 26 24 23 21 19 17 13 9 5 3 4 5 7 8 10 12 14 16 17 18 19
13 15 6 6 4 5 7 10 6 17 21 17 12 15 19 17 15 15 15 18 23 29 32 30 31 29 29 28 25 23 22 20 17 14 12 8 5 3 3 5 7 9 11 13 15 17 19 20 22
5 12 20 7 5 3 5 5 8 13 8 8 11 19 20 19 18 16 13 19 23 29 31 33 32 30 29 28 26 23 20 18 16 14 10 7 4 2 4 6 8 11 13 15 17 20 21 23 23
10 7 7 7 5 5 5 5 7 7 7 6 15 19 18 16 15 13 13 18 22 30 29 29 30 30 27 26 24 22 19 17 15 12 9 6 3 2 5 7 10 12 15 17 20 22 23 23 24
9 11 6 8 8 3 4 4 8 13 9 12 16 19 19 18 17 15 12 18 24 28 28 27 26 26 25 23 22 21 18 16 13 10 7 4 1 4 6 9 12 15 18 20 22 23 24 23 24
17 16 15 8 12 10 2 6 4 16 9 17 17 17 16 16 16 14 13 18 22 26 28 27 25 24 23 21 20 19 17 15 11 8 5 2 3 6 8 11 14 17 20 22 23 24 22 24 24

GFSSGP_925_spd_003.txt.gz
Wind_Speed
19 20 18 5 4 4 3 4 1 7 3 1 4 3 4 3 3 4 1 18 8 22 25 23 20 19 15 15 13 11 9 9 9 9 9 8 7 6 5 7 7 4 2 3 4 4 6 4 4
17 17 4 2 3 1 5 3 4 4 4 7 1 1 2 1 1 2 5 18 11 22 24 21 20 19 15 15 13 11 9 10 10 10 8 7 8 6 5 6 4 3 4 4 4 3 4 4 5
12 6 2 3 3 5 5 4 4 6 6 4 2 3 1 2 1 8 4 16 20 23 23 21 19 17 18 16 13 11 10 9 9 10 8 6 8 9 10 5 6 3 4 3 3 2 3 4 4
5 5 4 3 8 7 5 5 3 7 3 3 2 3 3 3 2 6 12 19 21 24 23 20 19 18 17 16 13 12 11 10 9 10 8 7 5 7 10 8 4 3 1 2 2 3 3 5 7
3 3 1 3 6 5 5 5 3 5 6 2 2 2 2 5 4 10 21 20 21 23 22 21 19 18 17 16 13 13 12 10 9 10 9 7 2 2 8 9 5 5 2 2 3 4 5 7 8
2 3 2 7 6 5 6 7 3 5 5 2 3 1 4 3 6 14 20 20 18 22 23 21 19 19 18 16 13 12 12 10 10 10 9 7 7 2 5 7 6 4 4 4 5 6 8 9 9
4 3 5 5 5 6 6 5 3 4 4 4 6 3 3 5 10 11 18 19 18 21 23 22 21 20 20 17 15 12 12 12 10 9 8 8 8 6 3 5 6 5 6 6 8 9 9 9 9
3 3 3 6 6 10 4 2 2 6 6 0 5 3 4 5 11 12 13 19 20 22 23 23 22 22 21 18 16 14 14 12 10 9 6 6 8 7 4 4 5 5 6 8 8 7 7 7 8
3 1 7 9 8 6 1 1 3 1 2 3 2 6 4 4 15 12 10 18 21 23 25 24 23 23 22 19 17 15 15 13 11 9 5 6 7 7 5 3 2 3 5 5 6 6 7 9 12
4 5 7 4 5 6 1 4 5 3 4 2 3 3 3 10 17 14 10 14 23 23 28 26 24 25 22 21 19 17 15 14 12 10 8 5 5 4 4 2 1 3 4 6 7 9 9 9 9
4 11 7 3 7 7 5 3 3 4 6 7 6 4 2 5 9 12 16 19 27 29 28 28 25 24 24 22 19 17 15 13 11 9 10 7 4 3 3 1 1 4 6 6 5 5 5 6 7
5 4 6 1 4 3 4 3 4 5 6 5 8 2 4 8 8 11 15 23 23 26 30 29 26 24 23 21 20 18 15 13 12 10 10 7 5 3 1 1 1 2 1 1 2 4 6 9 11
5 2 5 6 10 12 11 14 7 9 8 10 9 6 8 8 9 20 24 25 25 28 29 31 28 25 23 21 19 17 14 13 10 11 9 7 5 5 4 3 2 4 3 3 4 7 10 13 15
5 6 6 7 11 5 11 15 7 5 7 8 9 11 10 9 10 10 17 24 27 30 32 30 29 27 24 21 19 18 15 13 10 10 10 8 7 6 6 7 5 4 3 5 8 12 14 14 16
4 7 8 6 4 6 3 20 18 6 9 9 11 10 11 10 14 14 22 22 26 27 27 31 27 26 25 22 20 16 15 15 12 13 11 8 6 8 4 5 5 4 6 8 11 13 14 15 17
3 3 5 4 7 6 9 22 2 10 11 12 12 9 10 9 10 13 15 17 20 21 23 28 26 25 26 25 21 16 14 14 14 13 10 7 6 4 3 4 6 7 9 12 13 15 16 16 19
6 8 5 5 7 5 12 17 7 10 11 11 10 10 11 9 8 14 14 14 16 19 22 28 27 27 27 25 21 18 17 18 17 15 12 10 6 8 8 9 9 9 10 11 12 13 15 15 21
4 5 4 6 2 5 16 20 7 8 9 14 11 12 9 8 12 17 15 14 12 15 19 27 27 29 30 26 21 21 19 19 19 17 17 15 12 10 9 10 9 9 10 10 12 13 14 11 21
6 10 12 5 6 6 10 15 13 9 11 14 9 13 10 10 4 12 14 16 16 16 19 27 30 32 33 29 27 25 25 23 21 19 18 16 13 11 10 9 8 9 10 11 13 12 14 13 22
11 15 14 11 10 10 11 18 11 12 15 13 13 16 12 5 7 8 14 17 19 19 20 26 33 36 33 29 27 27 27 23 23 21 19 15 12 11 9 9 9 9 9 10 12 13 13 11 19
10 11 14 15 7 15 12 28 19 13 16 15 16 13 11 12 12 9 10 19 20 21 24 29 33 35 32 30 29 29 25 25 23 20 19 14 11 10 8 8 8 8 9 10 11 13 15 11 14
16 7 11 12 6 10 2 12 9 7 15 18 16 10 11 10 8 6 8 14 21 23 26 29 34 34 31 32 31 34 27 25 22 20 18 15 10 8 7 6 7 8 8 9 11 12 14 13 12
8 6 9 8 7 7 15 8 6 14 20 14 10 10 11 13 15 14 14 19 25 25 29 32 34 32 32 31 34 34 31 24 23 21 18 14 10 7 6 5 6 7 7 8 10 12 13 14 13
1 6 11 4 6 13 11 11 13 13 7 6 8 9 10 11 10 8 11 19 23 25 29 33 33 31 32 31 32 32 32 29 26 22 17 13 9 7 5 5 6 6 6 8 10 12 13 14 15
9 5 3 7 8 8 5 12 22 4 7 9 12 9 8 10 12 13 13 13 22 28 32 34 34 31 30 29 29 30 28 29 27 23 18 13 9 5 3 4 4 5 7 9 10 13 15 15 17
11 13 6 5 4 5 13 11 7 13 22 20 16 8 8 10 13 16 15 15 20 26 31 31 35 32 28 29 27 26 25 25 22 19 15 10 7 4 2 2 4 6 7 10 12 15 16 16 17
5 10 20 12 13 5 5 6 6 9 12 15 13 8 13 15 14 16 14 17 21 26 30 35 34 31 29 29 26 25 23 22 21 17 13 10 6 3 1 3 5 7 9 12 14 16 18 19 18
8 5 4 5 5 6 6 5 7 6 18 16 9 13 13 14 15 14 12 16 20 27 29 31 32 32 29 28 26 24 22 19 17 15 12 8 5 2 1 4 6 9 11 13 16 17 18 18 19
10 10 6 5 6 3 3 7 6 5 11 11 10 11 15 16 16 14 12 16 23 27 27 28 29 30 28 27 25 23 20 18 15 12 10 6 3 1 4 7 9 11 14 16 17 18 17 19 21
14 14 14 4 5 9 5 9 3 6 12 8 7 10 11 12 14 14 13 17 21 25 27 28 27 28 26 24 23 21 19 16 13 11 7 4 2 3 5 8 10 13 15 17 18 17 19 21 22

GFSSGP_925_spd_006.txt.gz
Wind_Speed
16 16 13 5 4 5 3 5 1 4 1 2 1 3 4 1 4 5 0 15 10 22 25 24 20 19 16 15 13 10 8 9 8 9 7 8 6 6 5 5 4 3 2 6 5 3 2 3 3
15 11 5 2 4 1 5 4 2 4 3 8 4 3 3 2 2 0 5 14 11 22 26 25 21 19 16 15 13 11 9 9 9 10 8 6 6 6 4 7 4 1 2 4 4 3 3 2 3
9 5 3 3 3 6 5 4 4 6 8 2 0 1 1 2 2 2 2 18 15 24 25 23 21 19 15 15 12 11 10 9 9 9 7 6 8 8 7 8 6 2 1 2 3 3 3 4 4
4 5 4 3 8 6 6 4 3 8 7 2 2 2 2 1 2 2 6 15 19 24 23 21 20 18 16 15 12 11 10 9 9 9 9 7 6 9 10 5 5 3 1 1 2 3 4 5 6
4 2 1 3 6 4 5 4 3 5 5 3 2 3 3 2 5 5 13 16 18 22 21 20 19 17 17 14 13 11 10 9 9 10 9 7 2 2 9 8 5 3 1 2 3 4 5 6 8
2 3 2 6 7 3 4 5 2 3 4 5 2 1 4 2 2 7 15 14 16 21 20 19 18 18 17 14 12 11 10 9 9 10 9 6 5 1 2 8 4 3 2 4 5 6 7 8 8
5 3 5 4 5 4 5 4 3 5 3 5 2 3 4 3 6 10 13 13 15 19 20 19 19 18 17 16 13 11 11 9 9 9 8 7 6 4 2 4 4 3 3 5 7 7 7 7 7
4 4 3 5 5 8 4 4 3 5 5 1 3 3 4 3 11 11 14 14 14 18 20 20 19 19 19 18 14 12 12 10 9 8 7 6 7 6 4 3 4 2 2 4 5 6 6 7 8
3 1 6 6 7 6 2 1 3 2 3 2 3 3 3 4 12 14 13 15 16 17 21 21 19 20 20 19 16 14 13 12 10 8 6 5 5 6 4 2 2 0 2 3 4 7 7 7 7
4 4 7 6 6 4 4 4 2 4 4 4 4 3 3 2 13 12 12 14 15 17 19 22 20 20 21 20 17 16 15 14 12 10 6 3 4 4 4 2 2 1 2 4 5 6 7 7 7
4 8 4 3 4 4 4 4 3 3 5 7 6 6 5 3 8 10 13 16 22 22 19 23 23 21 22 21 19 17 15 14 12 10 8 6 4 3 3 2 0 1 2 3 2 3 4 6 8
3 6 5 1 3 3 3 4 6 5 7 5 5 5 4 6 8 11 14 18 18 20 23 23 25 22 22 22 19 18 17 15 13 10 10 7 5 4 3 2 1 2 1 1 3 4 6 9 10
5 3 4 4 7 6 7 13 9 11 10 10 10 6 10 8 10 15 17 16 15 20 23 24 26 25 22 22 20 18 17 14 12 12 10 8 6 6 5 4 3 2 4 3 5 7 8 10 12
2 3 5 5 6 6 10 13 5 13 7 8 8 10 10 10 13 12 15 21 21 25 26 26 27 27 23 23 21 19 17 14 12 11 10 8 6 5 5 5 4 4 5 6 8 9 11 12 14
3 4 6 6 5 6 5 16 19 15 9 10 9 9 10 11 13 16 22 21 24 25 26 27 28 27 26 24 21 19 18 15 13 10 12 9 8 9 5 6 6 7 7 8 9 10 12 13 15
3 2 2 4 7 6 6 14 5 6 15 18 15 10 10 12 13 19 21 21 23 22 22 20 26 28 27 25 22 20 19 18 14 14 12 11 10 8 6 6 7 8 9 10 12 14 15 15 18
5 4 4 5 2 4 13 8 5 8 10 12 10 9 10 10 11 22 25 23 22 18 17 17 24 28 27 26 24 21 20 19 17 17 17 14 9 9 9 8 9 8 9 12 13 13 15 15 21
5 6 4 5 2 3 11 16 12 8 8 10 9 9 9 9 13 20 17 17 16 15 16 18 24 28 30 29 24 22 23 22 21 20 18 15 14 12 10 10 8 8 9 12 13 13 16 15 22
1 3 8 5 7 7 8 14 15 9 10 10 14 9 12 9 11 14 15 15 14 14 18 24 28 31 34 31 29 26 24 22 20 18 17 17 15 13 10 9 9 10 12 13 14 14 16 17 23
8 11 13 8 9 9 11 23 18 14 16 11 11 13 10 9 6 6 10 17 19 18 22 27 31 34 34 33 29 27 27 23 22 20 19 17 15 13 10 9 10 10 11 12 14 15 14 12 18
5 11 6 11 11 14 13 28 19 24 22 19 18 17 14 15 11 8 9 21 20 20 24 29 32 34 33 31 28 28 25 26 22 21 21 17 14 12 10 9 10 10 11 13 13 13 14 12 14
14 7 12 11 4 4 5 10 8 7 10 16 19 14 13 13 8 7 9 13 24 24 22 27 31 34 33 31 32 34 29 23 24 24 21 17 13 11 10 9 9 10 10 10 11 11 12 11 11
5 6 8 8 6 5 8 7 5 6 10 14 10 10 12 14 13 12 13 22 23 23 25 27 31 33 34 33 31 33 30 26 28 24 21 17 14 11 9 8 8 9 9 9 9 10 11 10 9
0 4 6 4 6 10 11 9 11 5 6 8 11 11 11 11 11 10 11 19 21 22 26 29 33 33 35 33 29 28 31 31 29 25 21 17 13 11 8 7 7 8 7 7 8 9 10 10 11
8 5 2 5 6 7 8 11 21 9 11 8 11 11 10 8 8 9 12 13 21 27 29 31 32 32 34 29 30 29 34 34 31 26 21 17 13 10 7 6 6 5 6 6 7 8 10 11 11
10 10 4 5 3 4 6 7 6 10 16 19 18 11 6 7 7 11 13 13 21 24 29 29 30 33 31 30 29 29 31 31 27 22 17 13 10 9 7 5 4 4 5 6 7 10 11 12 12
4 8 13 6 6 4 5 7 8 10 11 12 11 12 10 8 9 11 10 14 20 26 28 33 33 33 30 29 28 28 28 26 24 18 14 12 10 8 6 4 3 4 5 7 9 11 13 13 12
7 0 3 5 5 5 7 10 10 13 6 8 13 15 8 8 9 9 10 12 17 22 29 32 33 33 29 28 28 27 25 23 21 18 15 12 9 6 4 3 3 4 6 8 10 12 12 13 15
8 6 5 2 3 5 3 6 8 6 4 13 16 14 10 13 12 12 12 17 23 27 28 29 30 31 28 27 26 26 24 22 20 17 15 11 8 5 3 3 3 6 8 10 11 12 13 16 18
13 11 12 5 6 4 3 15 3 2 5 10 16 9 4 7 9 10 10 16 20 24 26 28 29 31 29 27 27 25 24 21 19 16 13 10 7 4 3 3 5 7 10 11 12 13 15 17 20

GFSSGP_925_spd_009.txt.gz
Wind_Speed
13 12 10 4 1 2 2 4 2 4 1 1 3 3 2 2 4 2 3 14 12 26 27 21 17 19 17 14 12 10 9 7 8 9 8 8 6 5 4 4 3 3 4 6 6 5 1 1 2
11 8 4 2 2 1 3 3 3 2 5 9 3 2 2 2 3 2 4 9 14 26 28 23 21 19 16 14 12 9 9 9 9 9 8 6 6 7 5 7 3 2 3 4 5 5 5 3 1
6 4 1 2 3 6 4 5 4 3 7 2 3 2 1 2 2 3 3 11 16 24 25 22 20 18 15 13 12 10 9 9 10 9 6 5 5 6 7 8 3 1 3 4 5 6 5 5 4
2 4 3 2 9 5 5 2 2 5 3 1 1 5 2 2 2 2 3 15 18 23 23 21 18 17 14 13 12 9 9 9 10 9 10 4 5 6 8 5 4 1 2 4 5 6 6 6 6
4 2 1 3 7 4 4 4 3 4 4 3 2 3 2 1 3 3 9 16 20 21 21 19 18 16 14 13 11 10 9 8 8 9 8 5 3 1 8 7 5 2 1 3 5 6 6 6 7
2 2 2 8 11 2 4 5 1 3 3 5 2 3 2 2 1 6 14 15 16 21 20 19 17 16 16 12 11 9 9 8 7 8 7 5 2 3 2 7 4 1 1 3 4 5 6 5 6
5 3 5 4 6 5 5 3 4 6 3 5 2 2 2 1 5 9 12 12 15 18 19 18 16 15 16 13 11 9 8 8 8 9 7 5 4 1 3 5 4 2 2 3 4 5 5 5 5
4 3 4 5 9 9 3 4 2 5 4 2 3 4 2 1 10 12 11 11 12 17 18 18 18 17 17 14 12 11 10 9 8 8 7 6 6 4 3 3 3 2 0 1 3 4 5 5 6
3 2 7 8 8 6 2 1 2 1 3 3 2 2 3 3 10 12 12 11 10 14 18 18 18 18 17 16 14 12 11 10 8 7 6 4 5 6 5 3 3 1 1 2 3 5 5 5 5
3 4 8 6 6 4 2 2 1 2 4 5 6 4 5 3 8 10 11 14 13 13 16 18 17 19 19 18 16 14 14 13 10 8 6 3 4 5 5 3 3 2 1 1 3 3 4 5 7
3 7 4 3 4 2 2 4 3 4 7 6 6 4 8 2 6 11 12 14 18 16 14 19 20 20 20 20 19 17 16 15 12 10 7 4 4 4 5 4 3 2 1 2 1 2 5 6 8
3 6 5 3 2 2 4 1 5 6 8 5 4 4 5 10 7 11 13 14 13 17 18 17 22 22 20 22 21 19 17 16 14 11 9 8 5 5 5 4 3 2 2 1 1 4 7 8 9
3 2 3 4 5 5 6 12 13 12 10 9 12 9 12 11 13 13 14 14 13 16 19 22 22 24 23 23 22 21 19 16 14 12 12 9 7 6 7 6 5 4 3 2 3 5 7 9 10
1 3 5 6 8 6 12 18 6 13 12 14 10 12 10 10 14 14 15 17 18 20 21 21 24 25 24 24 24 22 20 17 15 15 13 10 8 8 9 8 6 4 3 4 5 6 8 10 10
2 5 8 8 7 7 4 13 15 21 15 16 14 13 12 12 15 16 23 21 21 21 18 22 25 26 27 26 25 23 21 18 17 16 15 13 12 11 11 7 6 5 4 5 6 7 8 9 11
2 2 3 3 4 6 9 13 7 2 11 17 18 12 13 14 15 21 26 25 23 21 20 19 23 28 29 27 26 24 23 20 18 16 16 14 13 12 10 8 7 7 6 7 8 10 11 12 15
3 4 5 5 4 2 12 6 5 9 3 10 11 12 11 13 14 19 23 23 25 23 22 18 20 25 29 28 26 25 23 21 21 21 19 18 15 13 11 10 9 7 7 8 9 11 12 14 17
4 4 5 5 2 3 11 17 15 13 13 16 13 11 10 11 14 18 20 18 20 23 20 16 21 23 30 30 27 24 24 24 24 24 23 21 18 14 13 11 9 7 7 9 10 10 11 15 18
1 4 7 5 10 11 13 21 17 16 12 15 15 16 14 13 13 20 22 18 17 17 17 19 25 30 35 35 34 28 27 25 25 25 23 21 19 17 13 11 9 8 9 10 10 8 11 16 20
10 15 17 11 7 10 12 27 17 17 19 18 18 16 16 13 9 11 15 14 17 18 17 19 25 33 36 37 29 32 32 27 26 24 23 22 20 17 14 11 10 9 9 9 11 12 10 10 17
13 16 15 17 9 14 15 25 18 18 23 20 21 21 21 19 18 16 11 18 19 20 22 22 28 30 32 35 33 33 28 28 23 24 24 22 19 17 14 11 10 9 8 10 10 11 11 8 11
15 8 11 13 6 8 2 10 8 6 10 9 12 16 17 17 16 17 12 12 20 25 23 25 29 33 34 36 36 40 31 25 21 30 25 22 18 16 13 11 10 9 8 9 9 9 10 9 8
6 5 7 9 9 8 13 7 6 2 5 9 10 14 14 16 17 18 15 21 23 25 27 27 30 32 36 38 37 37 29 22 32 28 26 23 19 15 13 10 9 8 7 8 8 8 9 9 7
1 3 6 3 6 10 11 10 17 7 8 4 7 12 10 13 13 14 15 15 16 25 26 29 31 31 36 36 35 35 35 31 34 30 27 23 20 16 12 10 8 7 6 6 6 7 7 7 7
6 3 3 5 7 8 8 11 19 10 19 16 17 14 9 9 8 10 11 12 21 27 30 30 30 29 32 32 34 33 31 34 37 34 30 26 21 17 13 9 7 6 5 5 5 6 7 7 6
9 9 5 5 5 5 3 8 8 11 14 15 10 12 10 9 8 10 13 13 21 25 29 29 30 29 32 32 32 30 29 35 36 33 28 23 19 17 13 9 6 4 3 4 5 6 7 7 6
4 10 11 6 11 5 4 7 9 12 12 5 7 9 12 11 9 11 11 15 21 25 28 29 28 28 32 34 31 30 32 36 34 28 24 21 18 16 12 8 5 3 2 4 5 7 7 7 8
7 1 3 5 5 6 6 7 11 7 7 4 6 9 15 12 9 9 11 13 18 23 26 27 28 30 32 29 28 29 31 33 31 26 23 20 17 14 11 7 4 3 3 4 6 7 7 9 10
8 5 6 2 4 4 5 6 5 12 5 3 5 10 13 13 11 10 10 13 15 19 27 28 30 32 31 29 29 31 32 31 28 24 21 18 16 12 9 6 4 2 3 5 7 7 8 10 12
16 13 17 8 6 5 3 13 10 8 3 4 9 9 9 8 7 8 11 16 20 20 21 25 29 32 31 30 31 32 32 30 27 24 20 17 14 11 8 5 3 3 4 6 7 9 10 11 12

GFSSGP_925_spd_012.txt.gz
Wind_Speed
10 8 6 4 6 5 7 4 4 3 3 1 4 7 3 7 4 1 2 9 8 19 19 19 17 17 16 15 12 10 8 8 10 9 8 7 6 4 5 5 5 4 5 6 6 5 3 3 3
6 4 2 2 6 9 7 6 7 2 5 8 5 6 8 3 1 3 9 6 12 19 19 17 18 17 16 14 12 10 9 9 10 10 7 8 6 6 6 6 3 4 5 6 6 6 7 5 4
3 2 3 4 8 12 6 8 5 1 4 2 2 3 3 1 1 2 5 11 15 18 19 17 18 17 15 13 12 10 10 10 11 12 7 5 4 5 7 6 5 2 4 5 6 6 6 6 5
5 4 3 9 15 10 9 0 3 4 2 1 3 6 3 1 1 3 5 10 16 18 17 17 21 17 14 12 12 11 10 10 11 10 8 5 4 5 6 5 4 1 3 4 5 5 5 5 5
4 3 9 11 18 16 9 8 7 9 5 4 6 1 2 2 1 3 9 11 15 16 16 17 18 16 14 12 11 10 10 10 10 9 8 4 3 0 7 7 5 1 2 3 4 5 5 5 5
6 5 8 16 18 11 11 10 10 12 8 8 6 6 0 3 3 5 11 11 12 15 16 16 16 15 14 13 12 11 10 9 9 9 7 3 1 4 4 8 4 1 1 3 4 5 4 5 5
11 9 15 17 15 14 12 8 12 11 11 10 4 6 2 3 5 8 11 12 12 14 14 14 14 13 14 13 12 11 10 9 9 10 8 5 2 2 6 6 3 1 2 3 4 4 4 3 4
6 6 15 13 16 19 7 7 5 8 10 1 3 7 5 5 5 9 10 11 13 15 14 13 13 13 14 12 12 11 10 10 10 10 8 6 4 3 3 3 3 2 1 2 3 4 5 5 5
3 8 13 19 16 12 5 9 8 2 7 4 4 4 3 2 5 9 10 11 13 14 15 14 14 14 14 12 12 11 10 10 10 9 7 4 3 4 4 4 3 2 1 0 2 4 4 5 6
10 11 16 11 13 9 10 8 6 6 11 10 8 5 0 1 6 10 12 14 15 16 17 15 16 15 15 13 13 12 11 10 9 8 6 4 4 5 6 4 4 2 2 1 3 3 4 6 6
9 15 13 7 10 9 12 12 10 11 14 14 11 5 2 2 4 10 12 12 13 14 16 17 17 16 16 14 14 13 12 12 11 9 8 6 6 5 5 3 3 2 2 2 2 3 4 6 7
9 13 12 9 9 9 12 11 13 16 19 11 9 7 8 10 9 8 10 11 11 13 15 17 19 19 19 16 16 15 14 14 12 11 10 8 7 6 6 4 4 3 2 1 2 3 4 6 7
11 11 9 10 10 13 15 20 21 19 17 16 15 14 15 14 14 12 10 10 12 15 16 18 20 21 22 19 17 16 16 15 13 12 11 11 9 8 7 6 4 3 3 1 3 4 5 6 7
2 6 10 9 14 16 18 22 18 21 19 21 23 23 20 18 17 15 11 12 14 15 17 17 20 20 21 25 20 18 17 16 15 13 13 11 9 9 8 9 7 4 3 2 3 4 5 6 7
6 10 12 15 13 13 10 20 20 24 24 24 21 20 21 22 23 21 18 15 15 15 15 18 19 20 21 24 21 20 18 17 15 13 13 12 11 11 11 10 7 5 3 3 4 4 5 7 7
5 5 5 2 2 7 10 17 5 3 8 18 22 22 22 23 24 27 24 18 14 15 14 14 17 20 21 22 22 21 20 18 16 15 15 15 15 13 14 11 7 5 4 3 4 5 5 7 8
8 7 9 9 4 6 12 11 4 8 9 12 15 16 16 19 23 28 26 23 19 15 15 14 15 19 22 22 22 20 20 19 19 18 19 19 18 17 14 10 9 6 5 4 4 5 7 9 11
5 7 7 10 3 6 15 21 20 19 20 19 19 19 16 16 16 21 22 21 18 15 14 15 14 17 21 22 21 19 18 19 21 21 22 22 21 18 14 11 10 7 6 6 5 5 7 9 12
2 6 10 9 7 15 17 23 21 21 22 22 22 22 22 22 17 21 20 17 15 14 13 14 15 18 23 25 24 21 20 23 23 23 24 24 22 19 16 13 10 8 8 7 6 4 6 9 13
14 16 16 14 13 11 18 31 23 24 29 26 25 25 24 23 22 20 23 22 18 18 16 15 18 21 25 25 23 20 22 17 19 26 25 23 22 20 16 14 11 9 9 7 7 7 5 6 10
15 17 14 15 15 18 21 26 16 8 13 18 23 26 27 26 24 23 23 27 21 18 18 19 21 23 25 23 22 22 18 20 21 25 25 23 21 18 16 14 11 10 8 7 6 7 7 6 6
14 8 13 13 10 6 2 11 15 14 14 14 14 14 17 21 23 24 23 25 25 22 19 19 22 25 26 27 25 30 26 26 19 30 27 24 19 15 15 14 12 10 8 7 6 6 5 4 5
7 4 7 9 11 11 18 6 13 4 15 11 14 15 16 16 18 20 23 28 26 23 21 22 24 26 28 28 26 26 24 20 26 32 29 24 16 15 15 13 11 10 8 7 6 5 4 3 3
3 7 9 11 8 8 21 14 19 19 15 11 12 13 14 12 13 16 20 23 24 20 22 24 27 27 27 29 27 26 29 29 31 28 27 21 16 14 13 12 10 9 8 7 5 4 2 1 1
11 5 3 4 6 9 6 10 20 13 10 17 22 19 15 13 12 12 14 14 19 23 26 27 29 28 29 29 28 27 28 36 41 33 27 22 18 15 14 12 10 8 7 6 5 3 1 1 3
18 14 5 7 10 12 5 11 12 20 17 18 14 13 8 10 11 13 13 14 19 24 27 29 30 28 30 29 27 28 32 31 34 28 24 20 17 15 14 11 9 8 6 5 3 2 1 3 4
5 9 13 18 20 13 16 23 18 23 15 19 13 7 8 11 12 12 11 11 18 24 28 29 30 28 29 28 25 26 31 28 28 24 22 19 17 16 14 12 9 7 5 4 2 1 3 3 4
14 0 5 6 6 18 13 15 13 13 9 15 12 8 10 12 14 14 10 10 17 21 25 25 26 28 28 26 26 34 27 24 31 25 21 19 17 16 14 11 9 7 4 2 1 2 3 4 5
10 8 6 6 9 8 14 16 11 9 12 13 7 10 13 12 12 14 8 9 14 20 23 25 25 26 26 25 30 29 27 29 28 22 20 18 17 15 13 10 8 5 3 1 2 3 4 6 7
16 16 19 9 12 7 10 21 12 13 10 8 12 12 10 11 10 12 6 7 14 20 24 25 25 25 25 29 30 28 27 27 23 21 18 17 16 13 11 9 7 4 2 1 2 4 6 7 9

GFSSGP_925_spd_015.txt.gz
Wind_Speed
9 9 9 11 6 7 12 8 10 5 5 5 3 7 9 11 7 1 6 5 14 19 21 20 19 18 16 13 11 9 8 9 9 10 9 10 9 8 7 7 7 7 8 9 9 8 8 6 6
7 9 9 7 7 12 11 11 7 8 2 5 9 9 9 9 6 9 10 7 15 18 19 19 19 17 16 13 11 10 9 10 10 8 10 9 9 8 7 7 6 7 8 9 9 9 9 8 6
7 7 7 5 13 14 12 3 7 4 5 4 4 4 5 1 6 4 8 13 17 16 17 19 17 16 15 12 11 10 9 10 10 9 8 6 6 6 8 7 6 5 8 8 8 8 8 8 7
8 9 5 10 17 15 16 4 5 5 5 4 2 7 5 5 2 4 10 13 18 17 15 18 16 16 14 13 11 10 10 10 12 9 6 4 4 4 6 4 2 4 6 7 7 6 6 6 6
13 7 11 15 20 21 11 8 4 9 5 7 2 9 2 6 6 9 13 13 17 16 15 16 19 16 12 12 12 11 10 11 11 8 6 5 6 2 8 5 3 2 5 5 5 5 5 5 5
8 7 12 16 21 18 16 9 11 12 11 9 7 11 3 9 7 9 13 13 15 17 15 17 18 15 13 11 11 10 11 11 10 9 6 3 3 3 9 8 5 4 3 4 5 5 5 5 4
13 11 16 20 18 18 16 13 12 14 14 13 8 8 6 9 6 8 11 13 14 15 16 16 17 15 13 11 11 10 11 10 11 11 7 5 2 6 11 8 5 3 2 3 5 4 3 4 5
11 12 20 19 18 21 14 8 12 14 14 1 2 8 7 9 7 8 10 11 13 15 15 16 17 16 15 14 12 11 11 11 12 12 11 7 3 4 6 5 5 2 2 2 2 4 5 5 6
10 13 15 21 21 15 13 9 13 12 13 8 10 14 8 5 6 7 9 10 12 14 15 15 16 17 17 16 14 12 11 11 12 12 10 7 5 4 5 7 3 3 1 1 3 4 5 6 8
11 13 20 17 16 17 13 10 12 8 15 16 11 10 3 3 6 9 9 11 12 14 16 17 17 17 18 17 16 13 11 11 11 10 9 7 7 7 7 4 4 2 1 2 3 4 6 7 5
12 18 15 15 9 10 15 14 13 13 15 15 16 14 9 4 8 9 11 12 14 15 16 17 18 18 18 17 17 16 14 13 12 10 9 7 8 8 7 4 3 2 3 1 3 4 4 6 6
16 14 19 17 7 10 15 15 17 18 18 17 12 14 6 9 11 10 11 12 11 15 16 17 18 17 19 18 19 16 16 14 13 12 11 9 8 9 8 6 5 4 3 2 2 3 5 6 7
13 16 13 12 13 15 16 19 19 18 17 16 18 12 14 16 14 14 11 11 12 15 16 17 18 19 19 18 18 17 17 16 15 13 13 11 10 9 8 7 6 5 3 2 3 4 5 7 8
2 10 14 13 15 16 18 21 19 18 20 22 22 21 20 20 18 18 16 14 14 15 17 18 19 20 20 20 18 18 17 15 16 15 14 13 11 10 9 8 7 5 4 3 3 4 6 7 8
9 14 14 17 18 15 11 19 23 25 23 23 23 21 22 23 26 23 22 19 17 16 18 19 20 20 20 22 20 18 16 16 17 17 14 14 12 10 11 10 8 6 4 3 3 4 5 6 7
6 10 10 7 4 11 12 15 7 5 13 18 22 20 21 22 22 28 29 25 20 18 18 18 19 20 20 22 22 22 19 17 17 16 16 15 13 13 11 10 8 6 5 3 3 4 4 6 7
10 9 12 9 6 6 13 11 7 3 13 14 13 15 16 19 22 28 29 30 28 21 19 18 19 22 23 20 22 21 20 19 19 19 18 16 17 17 15 13 9 7 6 4 4 4 5 6 8
8 13 9 10 4 8 14 19 18 17 18 18 17 18 17 16 17 21 27 31 30 26 22 22 21 21 22 22 23 22 18 21 18 15 16 19 19 17 15 11 11 8 6 5 4 5 5 7 10
6 9 10 10 7 15 18 20 19 18 20 21 20 20 20 21 20 22 21 25 29 33 24 23 23 23 24 24 23 27 23 20 17 17 21 20 21 20 16 13 11 9 8 6 4 4 5 7 12
12 14 14 14 13 12 17 27 23 25 26 22 22 23 23 23 22 21 27 26 27 26 27 25 24 24 25 25 25 25 21 17 17 19 24 24 24 21 17 14 13 10 10 7 6 6 3 5 9
13 14 13 14 14 16 19 24 21 11 13 16 18 21 23 25 23 22 22 29 28 30 27 26 24 23 26 24 24 22 21 22 17 18 23 26 25 21 17 14 13 12 9 8 6 5 5 4 5
12 9 10 11 8 6 3 10 9 11 12 11 12 14 16 17 19 19 22 23 29 30 25 25 24 25 26 28 29 31 30 25 21 22 27 27 25 21 17 14 14 11 9 8 6 4 4 3 3
6 3 4 6 9 13 16 8 10 10 17 16 16 13 12 12 15 17 18 25 29 28 28 23 24 24 26 29 30 29 24 21 23 23 31 28 24 20 16 14 14 12 9 8 6 5 4 3 2
3 3 6 6 4 7 11 16 18 15 11 14 13 12 11 9 13 12 17 22 24 28 22 24 25 26 28 29 28 29 26 27 27 28 30 28 24 18 15 14 13 11 9 8 6 4 3 1 1
9 2 2 4 5 9 5 8 20 21 21 17 12 14 15 11 13 15 14 14 18 21 24 23 26 27 29 29 28 30 28 29 33 35 33 29 24 20 17 15 13 10 9 7 5 4 2 1 3
13 10 5 6 8 14 16 10 13 15 16 19 14 16 11 8 8 12 16 14 17 19 20 25 28 28 29 30 29 26 26 26 28 30 32 27 24 19 18 15 12 11 9 6 4 2 1 3 4
6 9 15 12 16 12 11 20 22 26 26 25 18 19 15 9 7 11 14 16 17 20 23 27 29 29 29 28 25 26 25 26 30 29 26 23 20 19 17 15 12 10 8 5 3 2 3 4 5
12 1 2 5 5 10 14 21 14 16 16 17 12 17 17 9 12 12 13 13 15 18 24 28 29 27 28 27 25 26 28 27 28 29 25 24 20 19 17 14 11 9 6 4 2 3 4 5 7
8 12 6 7 8 6 13 12 12 14 11 10 12 12 6 7 9 12 13 15 13 16 22 26 27 27 27 27 25 28 30 29 30 27 28 25 21 19 17 14 11 8 5 3 2 4 5 7 8
13 14 16 8 9 8 12 20 14 14 11 10 10 9 11 10 8 11 12 10 10 14 20 24 24 26 26 25 27 29 33 30 29 27 26 23 21 17 16 13 10 7 4 1 3 5 7 9 10

GFSSGP_925_spd_018.txt.gz
Wind_Speed
8 14 12 10 2 4 7 10 2 2 2 4 6 5 7 9 2 3 14 10 26 25 25 21 20 19 17 14 12 10 9 12 13 13 13 14 13 12 11 11 11 11 11 11 11 11 10 10 10
8 11 12 3 3 6 7 13 6 3 4 8 7 6 7 5 8 8 11 13 23 27 23 22 21 20 17 15 12 10 11 13 12 12 12 11 10 10 11 11 11 11 11 12 11 11 10 8 7
7 11 2 3 5 10 8 6 5 6 7 3 4 6 6 3 7 9 17 20 23 25 24 21 21 19 17 15 13 12 13 11 12 13 12 11 10 10 10 10 9 10 10 10 10 10 10 9 8
8 5 4 5 12 11 17 15 6 5 3 4 6 5 4 10 4 14 17 21 22 23 26 21 20 17 15 14 14 13 12 12 13 11 10 10 8 9 8 8 7 8 9 8 8 8 8 8 7
8 3 6 8 14 15 16 12 6 0 6 1 4 7 3 9 15 17 17 19 21 23 25 21 20 17 15 13 13 13 13 13 12 10 10 10 7 7 8 5 5 6 7 7 7 8 7 9 8
3 3 5 12 15 14 13 15 7 6 8 7 3 7 2 16 16 17 16 18 21 21 22 23 21 17 15 13 12 12 13 13 11 10 8 8 6 5 12 8 6 6 5 6 7 7 6 6 5
7 7 10 12 13 14 12 11 4 4 7 9 5 4 1 10 16 16 14 17 20 21 24 23 21 17 14 14 13 11 13 13 14 12 9 7 7 11 14 10 7 5 4 5 6 6 5 5 6
5 6 14 12 11 15 10 8 8 3 7 6 5 2 3 6 11 15 13 16 17 19 21 23 21 20 18 17 16 13 13 13 15 14 11 7 7 10 11 8 7 5 4 4 4 5 5 6 8
6 7 11 15 14 12 10 7 3 4 6 8 4 5 9 10 9 13 13 14 15 18 21 23 24 20 17 17 17 15 16 13 15 15 12 9 7 8 9 10 7 5 4 4 4 5 7 7 7
6 8 11 11 11 9 12 6 4 2 9 6 7 5 15 9 8 12 12 14 17 17 18 20 27 26 20 20 18 17 17 17 16 14 13 10 8 10 12 8 6 5 4 4 4 6 7 4 4
8 12 9 13 16 5 8 12 4 7 5 6 8 8 9 11 12 10 14 18 20 20 19 19 19 23 22 22 18 17 15 15 16 13 11 10 14 12 10 6 8 7 6 5 5 5 3 6 7
16 11 14 15 15 6 5 9 10 11 7 9 11 9 2 7 7 10 11 13 21 24 23 20 20 20 25 20 18 21 22 19 20 17 14 14 12 11 12 7 9 10 6 5 4 3 4 5 5
11 15 12 9 9 6 8 9 11 14 12 10 11 11 8 4 6 15 14 16 14 23 24 24 22 21 22 24 19 20 20 21 19 19 17 13 14 13 13 12 10 8 7 7 4 2 1 3 7
4 8 11 12 9 8 11 12 11 9 12 13 14 13 10 8 9 17 20 12 12 13 19 23 25 27 24 25 23 22 20 21 18 20 17 14 15 12 15 13 10 9 7 5 3 1 3 4 5
6 9 11 13 13 9 5 14 16 19 17 16 15 13 14 12 17 15 23 20 19 18 21 23 26 26 27 23 22 21 23 20 21 20 16 17 16 17 14 12 12 9 8 4 3 2 2 3 4
4 9 7 9 19 13 12 12 11 10 18 20 17 14 13 13 16 27 28 28 23 23 24 27 28 28 26 26 25 24 21 18 23 20 17 19 18 17 14 14 13 9 8 5 3 4 3 4 5
7 6 11 8 7 5 8 6 13 11 6 6 9 9 12 13 12 23 27 30 30 24 21 26 32 33 31 30 29 25 25 22 23 20 22 21 18 17 17 18 14 10 8 7 4 5 4 6 8
5 9 8 8 4 3 8 11 11 12 12 9 9 8 8 9 9 20 28 28 27 28 25 27 26 32 31 33 29 27 27 22 23 24 28 27 25 21 21 19 15 12 9 8 7 6 6 8 9
11 8 12 8 9 8 9 14 14 13 13 15 12 12 13 14 13 20 19 22 21 32 29 29 28 30 28 31 30 28 30 25 25 26 30 31 26 24 22 19 16 13 11 9 6 6 6 9 10
7 7 11 11 11 7 9 18 17 21 18 17 15 14 15 11 10 10 22 21 27 24 28 25 26 35 34 27 30 27 30 28 30 26 24 26 27 28 25 22 19 16 14 10 8 7 5 6 11
7 7 9 11 11 10 12 15 10 9 19 20 21 20 14 13 12 11 11 23 24 30 28 22 25 26 34 31 29 27 28 27 24 24 27 26 29 28 24 22 20 18 14 12 9 7 7 5 5
6 4 5 6 6 4 6 7 7 9 6 8 9 9 9 10 11 12 13 17 20 28 35 30 25 28 30 32 36 40 30 26 22 31 30 29 29 27 24 22 21 18 15 12 10 7 7 6 4
2 6 5 5 6 7 5 4 7 9 9 7 6 9 9 9 8 8 10 19 28 27 30 38 33 29 31 35 39 37 27 22 26 28 29 31 29 27 24 23 21 18 15 12 9 8 6 5 4
6 1 2 4 1 4 11 9 11 7 10 4 3 7 5 6 6 4 5 10 13 28 32 28 36 29 30 35 34 35 32 29 31 34 33 31 31 27 24 22 20 18 16 12 10 7 5 4 3
4 3 1 3 3 7 2 8 15 11 11 8 3 4 8 8 4 4 6 7 14 18 25 27 31 31 31 34 33 35 34 37 38 39 35 34 33 29 26 23 20 18 16 12 9 6 4 2 2
10 6 3 5 3 4 3 8 6 6 6 6 5 7 7 8 6 3 4 6 16 19 21 19 29 27 30 33 30 36 32 36 36 36 33 32 32 31 27 23 20 18 15 12 9 6 4 3 1
6 7 2 5 5 3 5 5 10 13 14 13 11 9 10 7 4 2 3 6 19 22 23 21 29 28 31 32 30 29 35 36 35 33 31 30 31 31 27 24 21 17 14 11 8 5 3 2 3
7 4 2 0 3 6 5 8 9 9 6 8 9 8 8 9 6 1 3 6 20 26 19 26 30 30 29 30 28 32 34 35 35 33 31 31 32 30 29 25 20 17 13 10 7 5 3 3 3
6 7 2 3 3 4 6 4 3 8 9 9 5 7 8 6 1 3 5 8 21 27 13 24 28 28 30 30 31 33 33 32 32 31 32 34 32 31 27 24 20 16 13 9 6 4 3 4 5
10 8 13 3 6 5 4 14 19 18 4 8 10 5 6 4 2 3 3 4 17 18 12 20 25 26 31 34 32 30 31 32 31 33 34 33 31 28 25 21 18 15 12 7 5 4 4 4 7

GFSSGP_925_spd_021.txt.gz
Wind_Speed
10 10 15 2 3 4 3 7 4 5 4 1 2 4 3 3 2 3 7 16 21 30 25 22 23 21 20 17 16 13 13 13 12 12 14 16 16 15 13 12 12 12 12 12 11 11 10 9 8
9 10 4 1 4 1 5 7 11 3 4 4 6 4 4 2 3 7 13 25 26 31 26 24 23 22 20 18 16 15 16 15 14 16 15 14 14 14 13 13 13 13 13 12 12 11 9 7 6
8 3 2 4 4 6 5 4 7 1 5 4 3 1 1 3 3 15 16 28 25 29 26 25 25 21 20 18 17 18 18 16 17 15 15 14 14 15 14 13 13 13 12 12 11 10 10 9 8
3 3 3 2 7 6 10 6 5 3 4 5 4 6 3 6 16 16 30 31 26 28 26 26 24 21 19 18 17 18 18 17 17 16 15 14 15 15 14 11 11 12 11 10 9 9 9 9 9
4 2 2 4 9 6 8 6 8 2 4 3 0 3 2 5 18 29 31 30 28 31 26 26 23 20 18 18 17 18 19 18 17 16 15 14 13 13 12 9 10 10 10 9 10 9 10 9 8
0 3 1 8 7 5 8 12 6 5 2 2 1 1 2 21 23 24 27 28 30 32 28 26 23 20 18 18 18 18 20 20 17 16 14 13 13 14 13 11 10 9 9 9 10 9 8 7 6
4 3 6 4 5 6 9 9 5 8 6 4 2 2 1 3 20 20 22 25 28 33 29 28 25 19 18 18 18 19 22 20 17 16 13 11 9 17 15 12 10 8 8 9 9 8 6 6 7
4 3 4 5 8 8 9 3 4 6 5 2 3 3 4 5 19 19 20 26 29 28 26 28 26 21 20 19 18 18 20 21 19 16 13 12 12 17 14 12 9 7 8 8 7 7 6 8 8
0 2 5 7 8 7 11 7 4 2 4 4 2 2 8 18 17 16 21 26 28 27 26 28 26 24 21 19 18 17 18 19 20 18 14 12 14 14 13 10 9 7 8 8 6 6 7 5 4
5 5 7 5 8 7 5 3 5 1 4 2 2 6 13 17 17 15 16 16 25 28 29 28 28 27 23 20 19 18 17 18 20 19 17 14 14 14 13 11 8 8 7 7 7 7 5 3 3
4 5 3 9 10 3 4 6 5 3 3 5 5 7 7 12 16 17 18 22 25 27 28 30 31 28 26 23 21 20 18 17 18 18 16 15 15 17 12 11 11 9 8 8 7 6 2 3 3
6 6 14 11 11 5 4 5 5 1 4 8 4 3 5 6 7 15 19 26 29 30 30 29 32 31 30 26 24 21 20 19 19 17 15 16 17 18 15 11 12 11 9 7 7 6 4 2 1
5 5 9 9 9 5 4 5 5 7 9 8 11 6 3 6 7 11 18 21 29 32 33 31 32 34 34 27 21 22 21 22 22 20 19 19 18 16 17 14 15 13 11 10 7 6 3 1 2
3 4 4 5 7 6 7 5 3 4 8 9 8 13 7 6 10 13 13 13 16 34 36 35 33 32 33 28 25 23 25 24 24 23 25 23 17 18 16 19 20 16 13 10 7 4 1 1 1
2 3 7 6 7 6 6 8 8 11 8 11 12 10 13 7 15 15 22 20 16 18 35 38 37 31 32 30 27 25 28 28 27 28 27 21 17 21 22 22 17 13 11 10 7 4 2 1 1
4 2 2 7 11 8 8 8 8 12 8 14 18 16 13 17 11 24 28 29 27 21 26 39 39 38 35 30 30 27 26 26 31 27 25 24 23 23 24 20 17 14 11 9 6 5 3 1 2
1 3 6 7 6 5 11 4 15 12 11 10 14 14 14 15 14 26 30 32 35 34 26 36 41 40 39 37 31 29 28 28 32 26 27 26 27 27 22 19 19 16 13 9 6 6 3 3 3
5 4 4 5 3 1 5 7 8 9 7 9 9 9 9 11 14 27 32 35 34 36 35 28 39 42 40 36 38 30 28 26 28 29 29 30 29 24 21 21 20 18 15 11 8 6 5 5 4
2 2 4 5 6 4 6 7 10 11 9 15 13 11 13 12 9 17 20 20 34 33 30 30 34 40 42 36 34 34 31 31 32 31 30 32 29 27 25 25 22 18 16 14 10 8 6 6 5
6 5 5 7 4 6 10 19 15 17 20 19 20 14 11 8 9 10 22 21 22 22 28 28 25 39 42 41 39 35 35 34 34 32 31 33 30 29 28 28 24 22 19 15 13 10 7 5 9
2 3 4 5 6 5 7 10 9 7 16 18 18 18 12 13 11 10 11 25 27 25 26 28 20 35 39 40 36 28 32 27 29 33 33 35 31 30 31 29 26 24 20 18 14 10 7 6 6
1 4 1 4 4 4 6 7 7 8 9 6 11 11 15 16 14 12 9 14 25 29 23 31 30 23 38 41 39 40 34 28 28 40 39 35 30 32 31 29 27 24 22 19 15 12 9 8 7
3 5 5 4 4 4 3 2 7 5 6 8 6 8 9 10 9 10 11 20 29 31 31 25 32 29 32 38 43 43 30 29 33 37 37 34 32 32 31 29 27 25 22 20 17 14 11 9 8
4 4 4 4 3 2 9 7 4 3 6 1 4 4 3 6 7 5 5 3 4 7 11 20 27 35 32 40 42 42 39 36 34 34 35 36 35 34 32 30 28 26 23 20 18 14 10 9 7
5 5 3 3 1 6 2 4 8 8 11 7 9 8 7 6 4 5 5 1 3 8 14 17 21 30 30 40 43 42 44 43 41 40 35 35 36 36 34 31 30 27 23 20 17 14 11 8 6
5 5 4 6 3 4 1 7 6 10 10 8 7 6 7 8 6 8 7 4 2 8 16 23 23 29 30 37 41 42 41 41 38 39 37 34 35 36 36 34 30 26 23 19 15 13 10 7 6
4 5 3 1 2 2 5 7 7 8 9 8 7 5 7 10 9 9 6 4 0 4 13 20 26 30 33 36 38 38 39 38 38 37 36 34 33 37 37 33 29 25 21 17 14 12 10 6 4
6 4 2 2 1 5 6 5 8 6 4 7 8 8 8 8 3 2 5 3 3 10 16 21 24 28 33 35 32 37 38 37 36 37 33 31 33 34 36 31 27 22 20 17 13 11 8 5 4
3 2 2 2 4 4 4 5 5 6 4 5 5 5 5 10 6 5 4 4 2 10 16 22 22 27 31 26 31 37 36 35 35 37 34 31 32 36 35 30 26 24 20 16 12 9 7 4 4
4 5 5 3 5 4 2 9 13 15 6 7 16 18 24 9 5 8 8 6 3 9 18 21 24 25 21 27 35 35 34 34 33 32 31 33 36 34 32 28 26 22 18 14 11 9 6 4 4

GFSSGP_925_spd_024.txt.gz
Wind_Speed
9 10 11 4 3 4 3 6 3 7 4 3 4 6 3 1 2 3 3 15 24 30 26 22 22 21 20 19 18 17 17 17 16 16 17 16 15 13 11 11 11 11 11 11 11 10 10 9 8
10 6 2 2 4 1 5 4 7 8 5 4 3 4 3 1 2 6 14 19 27 30 27 24 23 22 20 19 17 17 17 16 16 17 17 18 15 13 12 12 12 11 11 11 9 9 8 7 6
7 1 3 3 3 6 5 3 1 5 6 1 2 3 4 3 1 15 7 27 28 31 28 26 24 22 20 18 17 19 19 18 18 19 18 16 15 13 13 12 12 12 12 11 10 9 9 8 8
2 3 4 3 8 7 7 3 4 8 7 2 2 4 2 2 6 11 25 29 29 30 28 26 24 22 20 18 19 19 18 18 18 18 17 16 16 14 12 12 12 11 10 9 10 9 10 10 9
2 2 2 3 8 6 5 4 6 9 6 2 2 2 2 5 9 18 33 30 30 30 28 26 23 20 19 18 20 20 19 19 18 17 17 17 17 15 13 11 11 10 9 8 9 11 11 10 8
2 3 3 6 5 5 8 5 2 5 7 2 2 5 1 4 23 28 29 29 28 31 29 27 23 20 19 18 20 21 21 19 18 18 17 16 15 14 13 11 10 9 9 9 9 9 8 7 7
5 4 5 5 5 6 11 5 4 8 8 7 6 4 1 2 22 26 28 27 27 28 30 28 24 21 19 18 19 22 22 20 20 19 17 16 16 15 13 11 10 9 9 8 8 8 7 6 8
4 4 4 6 6 7 6 1 4 6 11 2 5 6 4 7 22 23 26 28 28 30 30 29 27 23 21 20 19 21 23 20 20 17 16 14 15 20 15 13 10 9 9 9 7 7 7 8 7
4 3 5 6 8 5 2 2 5 4 3 1 1 7 7 22 22 23 24 24 27 29 31 30 29 26 23 21 20 21 23 22 20 18 15 13 16 21 17 14 11 9 9 8 7 6 6 5 5
4 4 7 5 4 2 5 1 3 6 4 2 3 3 17 21 25 21 20 20 23 25 30 31 31 27 25 23 23 22 23 23 22 20 18 16 18 18 16 13 11 10 9 8 7 6 4 3 3
4 5 7 5 6 2 4 8 2 2 4 3 3 6 6 4 11 19 22 30 34 34 31 32 31 29 29 26 25 23 23 24 24 23 20 18 18 18 17 15 13 12 11 10 9 7 3 2 2
3 6 7 3 5 2 2 3 2 5 7 4 0 4 4 5 6 9 21 28 32 33 34 34 33 32 31 28 28 26 25 25 26 26 23 22 21 19 18 16 14 13 12 11 10 7 5 4 1
3 3 5 6 8 4 5 6 7 7 9 9 4 6 7 6 9 20 18 24 31 31 36 37 36 35 34 32 30 28 27 26 26 25 24 23 22 22 20 17 16 15 14 12 11 9 6 4 2
2 7 5 3 4 4 5 6 5 4 7 9 8 8 9 8 10 7 13 21 21 30 33 37 39 38 37 36 34 32 27 25 26 26 25 25 22 22 24 19 18 17 15 14 11 9 6 4 3
3 3 3 4 4 4 3 14 8 11 10 9 10 10 10 10 15 15 20 19 17 20 36 39 39 41 41 40 37 34 29 25 27 28 27 26 25 22 22 23 21 18 18 15 11 8 6 4 3
5 4 1 4 4 6 9 16 3 10 7 11 12 11 10 15 15 24 25 26 27 19 19 33 41 41 43 41 40 36 32 27 28 29 29 30 28 23 23 24 25 22 18 14 11 9 6 4 3
4 2 4 7 8 6 10 3 14 15 9 9 10 10 12 14 13 23 33 31 30 29 25 23 32 42 45 43 40 37 33 28 31 32 33 32 31 25 26 28 27 22 18 14 11 10 7 4 3
6 3 3 5 4 3 6 10 11 7 7 9 10 10 10 11 18 21 23 30 34 34 29 25 32 36 44 40 39 38 33 29 31 34 36 34 33 30 30 29 26 21 18 15 13 11 8 4 4
4 2 3 4 6 5 8 6 10 10 7 10 12 12 12 14 14 21 23 21 24 30 38 31 29 40 39 37 34 35 36 34 33 35 36 31 32 33 32 29 25 22 20 18 15 13 9 5 6
2 2 5 6 3 4 7 16 14 14 15 15 19 18 16 12 8 9 21 24 21 21 20 30 29 38 43 40 38 29 36 39 39 35 35 33 32 36 34 30 27 24 22 20 18 15 11 5 4
2 3 2 4 6 1 7 11 8 6 8 13 18 20 16 17 16 12 11 22 25 23 21 20 20 31 41 39 38 34 29 27 31 33 36 35 35 37 35 32 30 27 25 24 20 16 12 9 5
2 2 3 3 4 4 5 7 6 8 10 7 8 7 11 12 9 12 9 16 26 29 27 25 23 21 36 39 37 37 33 23 34 40 40 37 38 39 37 35 32 30 27 24 21 17 14 11 9
3 5 4 2 3 4 3 2 8 5 8 8 9 9 9 10 9 9 9 19 29 28 28 26 25 21 28 40 40 42 32 36 36 41 38 39 40 40 38 35 32 30 28 24 22 20 16 12 11
6 5 6 4 2 2 5 5 5 3 4 5 5 6 6 7 8 8 13 10 9 5 4 7 14 22 22 38 41 42 32 36 35 37 37 37 39 37 37 36 33 31 29 27 22 18 15 13 11
6 6 3 4 2 6 2 2 8 8 10 4 8 10 10 8 5 6 8 8 8 7 4 1 4 8 13 26 38 40 39 44 45 44 40 39 38 38 39 38 35 33 31 27 23 19 16 14 11
3 6 4 4 3 4 1 6 6 7 7 4 4 4 7 9 8 9 9 9 14 13 9 5 7 13 14 16 34 38 42 43 43 44 42 41 39 41 40 37 34 33 29 26 22 18 15 12 10
4 2 3 2 2 3 4 7 9 3 1 6 8 7 8 8 9 12 10 12 14 12 9 5 8 11 17 18 27 37 41 40 41 41 39 36 35 36 38 37 35 32 28 25 22 19 16 11 9
4 5 3 2 1 4 5 5 7 6 2 6 6 6 7 8 10 9 7 10 11 8 6 9 11 15 16 18 29 35 40 42 41 39 37 36 35 35 39 39 34 32 28 23 21 17 14 12 9
3 1 3 3 4 3 4 6 6 5 3 6 7 7 7 10 9 9 7 14 22 15 10 11 13 15 15 15 30 34 36 39 38 36 35 36 34 36 39 38 35 33 27 24 20 15 13 11 9
4 6 5 4 3 3 2 7 6 4 2 6 17 15 12 10 13 8 10 10 16 18 17 17 18 18 16 19 30 34 35 36 33 35 35 37 36 35 37 38 36 31 28 24 17 16 14 10 9

GFSSGP_925_spd_027.txt.gz
Wind_Speed
8 9 8 4 3 4 4 6 3 5 5 3 3 3 4 3 3 4 1 13 23 29 25 22 20 18 17 17 17 18 17 17 17 17 16 14 12 11 10 10 10 10 10 10 10 10 10 9 8
6 5 2 2 4 1 5 4 4 4 5 5 2 2 2 2 2 5 12 12 25 30 27 23 21 19 17 15 15 15 16 17 17 17 16 16 13 11 10 10 10 11 10 9 8 8 7 7 6
3 1 3 4 3 5 4 4 4 4 6 3 3 2 4 2 1 13 5 22 29 30 28 25 22 19 17 16 14 14 15 15 17 17 17 15 13 12 11 11 11 10 9 9 8 7 6 6 7
3 4 4 4 7 7 5 4 2 9 7 3 2 5 0 1 6 9 16 26 31 30 28 25 23 19 17 16 16 16 16 16 18 19 17 15 13 12 11 11 10 10 9 8 8 8 8 8 7
3 2 3 3 7 5 4 6 3 6 5 6 4 3 2 3 4 14 25 28 30 30 27 25 22 19 17 16 17 16 16 17 17 16 15 15 14 13 11 10 10 9 8 7 7 8 9 8 7
3 3 3 5 10 4 4 5 2 3 5 9 3 6 3 2 12 20 26 27 26 29 27 24 21 19 17 16 18 16 17 16 17 17 16 17 14 12 11 10 9 8 8 8 8 7 6 6 5
6 4 5 6 8 5 5 4 3 5 5 9 2 6 2 2 14 25 26 24 25 26 26 24 21 19 18 17 18 18 19 17 18 19 19 18 15 13 12 11 9 8 8 8 7 6 5 5 5
5 4 5 5 4 7 2 6 2 5 8 5 8 5 4 6 20 25 23 23 24 25 26 26 23 21 19 18 19 19 19 18 18 19 19 18 18 16 13 12 10 9 9 8 8 6 6 6 5
4 3 4 5 7 5 1 2 2 2 4 4 2 5 5 24 25 25 22 21 22 25 27 27 26 24 22 20 19 21 21 20 19 18 17 16 17 18 15 13 11 10 10 8 7 6 6 5 2
4 4 8 5 4 2 3 3 4 5 6 3 4 4 8 28 25 21 20 19 21 23 29 28 28 27 24 22 21 22 23 22 20 19 17 15 15 21 18 14 12 10 10 9 8 7 6 4 3
5 6 4 3 3 1 3 7 2 3 6 3 3 5 4 4 11 16 19 27 33 33 26 29 31 30 27 26 24 23 24 24 23 21 19 17 17 20 18 16 13 12 11 11 10 8 6 4 3
4 5 5 4 4 2 1 4 3 5 8 4 5 5 4 1 6 8 14 19 24 33 37 33 33 32 30 29 28 27 26 27 26 25 23 21 20 21 20 18 15 13 13 11 11 8 5 5 3
4 2 3 4 7 3 2 7 7 6 11 4 3 7 7 6 7 10 22 19 19 23 29 34 34 35 34 33 30 30 29 29 28 28 27 24 22 22 21 19 16 15 14 13 12 10 7 5 3
5 7 7 4 5 3 5 6 5 3 9 11 5 7 8 8 11 10 11 22 20 30 33 34 36 37 35 36 34 32 31 29 28 28 30 27 25 24 22 20 18 17 15 13 12 10 7 6 4
2 3 1 4 4 5 2 12 8 8 10 11 12 8 8 10 17 16 21 17 25 28 31 32 36 37 38 38 37 34 33 31 30 30 29 29 28 26 24 23 20 18 16 15 13 10 8 6 5
6 3 3 3 5 5 7 18 8 8 5 10 12 12 8 10 16 25 28 26 22 21 25 34 36 37 40 40 38 36 35 34 32 30 29 29 28 25 24 25 22 20 18 17 14 10 8 6 6
2 4 4 5 4 4 8 4 4 7 9 11 12 12 9 9 9 20 27 30 31 27 26 24 33 37 40 39 39 38 38 37 34 29 31 31 29 27 26 26 25 23 21 18 15 12 9 7 5
5 4 2 4 2 3 6 8 13 11 6 8 10 11 11 11 12 18 17 21 28 32 28 24 28 36 40 38 38 37 38 38 36 33 33 32 32 30 28 27 26 26 23 19 17 13 10 8 7
6 3 3 3 4 4 6 5 12 10 6 9 10 13 14 15 15 17 24 23 20 26 27 24 27 33 37 34 30 31 36 39 39 36 34 34 34 34 32 29 29 29 27 23 18 15 12 8 9
2 1 3 5 2 2 6 11 15 15 12 15 16 18 18 10 9 9 19 21 20 21 18 20 25 30 38 37 40 31 37 36 43 41 37 36 36 37 36 34 29 30 27 23 21 19 15 6 12
1 4 3 4 4 2 7 7 5 5 6 6 13 15 16 12 14 13 10 24 31 25 25 24 21 21 35 40 32 27 29 28 34 34 36 37 38 37 39 38 34 33 32 28 25 22 18 12 9
4 2 3 3 3 3 5 5 6 8 12 5 9 8 9 10 9 10 9 13 21 27 27 25 22 21 24 35 33 35 34 25 33 42 42 39 38 38 39 40 39 36 34 30 27 25 22 17 14
3 4 4 3 3 2 2 1 8 5 7 7 8 8 7 8 8 10 9 17 21 19 21 22 20 19 19 28 37 38 32 29 36 40 43 40 40 39 39 43 42 40 37 32 28 27 23 20 17
6 5 6 4 2 2 3 3 6 3 3 6 7 10 9 11 10 9 16 20 19 12 11 13 15 17 19 22 33 37 33 27 28 36 38 42 40 39 40 43 43 41 38 32 30 27 24 20 16
4 5 2 4 3 5 2 3 10 8 5 5 10 8 8 8 9 10 13 13 20 12 8 9 8 8 9 17 28 35 36 33 38 40 38 37 41 40 43 43 40 39 37 33 29 28 25 21 18
2 4 4 4 1 4 1 5 6 4 0 1 2 3 6 9 7 8 8 14 22 22 21 13 14 14 13 12 18 29 34 36 38 39 40 41 43 47 46 42 41 40 36 32 29 24 22 20 17
3 1 1 5 3 3 3 6 9 6 6 6 7 8 9 9 9 9 8 12 14 16 18 17 17 13 11 11 14 22 30 35 36 38 41 43 41 41 44 43 40 37 35 32 30 25 21 18 15
3 7 4 3 1 3 4 5 5 4 5 6 6 8 9 8 9 10 7 11 18 17 18 20 21 20 18 17 17 21 28 35 36 34 35 36 38 38 39 41 38 35 34 31 29 25 19 14 13
3 1 4 4 3 3 3 6 6 4 2 5 8 15 11 8 12 13 8 11 16 21 18 16 20 21 20 20 20 23 27 31 34 34 34 34 34 36 36 37 37 37 36 32 28 24 21 15 10
3 5 5 4 3 2 3 7 5 6 2 5 16 10 11 12 19 16 8 13 8 13 15 12 20 22 21 20 18 20 23 26 29 29 31 33 33 33 34 36 34 33 32 28 25 21 16 15 11

GFSSGP_925_spd_030.txt.gz
Wind_Speed
7 7 5 5 4 4 3 6 2 4 2 2 1 3 4 3 4 4 1 15 18 29 24 21 20 19 17 16 15 16 16 15 15 15 13 11 9 9 8 9 9 9 9 10 13 14 12 10 9
4 2 3 3 4 1 5 4 5 4 3 7 2 0 2 1 3 3 11 11 23 29 25 22 21 20 18 17 16 15 15 15 15 14 14 12 10 9 10 10 11 11 12 11 10 10 9 8 8
2 2 3 4 4 6 5 5 5 5 8 2 2 1 1 1 2 9 3 19 27 27 25 23 20 19 17 17 17 17 15 15 14 14 15 14 12 11 11 12 12 11 11 10 8 7 6 8 8
5 4 4 4 7 6 6 2 2 7 5 4 3 4 1 2 1 8 10 22 28 27 25 22 21 18 16 15 15 15 15 16 15 14 15 13 12 12 12 12 11 11 10 9 9 9 9 9 9
5 3 3 2 7 4 4 4 1 4 4 4 2 5 2 2 2 10 20 25 29 26 24 23 20 18 16 15 14 14 14 15 17 18 15 13 12 11 11 11 11 11 9 9 9 10 10 9 7
3 3 3 6 7 2 4 5 2 2 2 6 2 1 2 1 8 14 21 24 25 27 25 23 20 18 16 15 15 17 16 16 17 16 15 13 13 12 11 10 10 9 10 8 9 8 8 6 5
6 4 6 4 12 5 5 4 4 3 3 4 3 2 5 2 8 16 21 22 24 25 26 24 21 18 16 15 16 15 16 16 16 16 16 15 14 11 10 9 9 9 9 9 8 7 5 5 4
5 4 7 5 5 5 3 5 2 5 5 3 5 4 4 2 16 19 20 20 22 24 24 23 22 20 18 17 17 16 17 16 16 16 16 16 12 10 9 8 7 8 9 7 7 6 5 5 4
4 3 5 7 7 4 1 2 4 1 3 5 2 1 6 10 21 22 20 17 21 23 25 24 23 21 20 18 17 17 17 16 16 17 17 17 15 12 10 8 7 7 7 7 6 5 5 4 3
4 4 9 7 6 4 2 2 3 4 6 3 3 5 6 20 21 19 18 18 19 21 25 25 24 23 21 20 20 20 20 19 18 18 17 16 16 15 14 10 9 7 7 6 5 6 5 3 2
4 5 5 5 4 3 3 2 1 1 4 4 2 5 5 2 9 13 16 19 22 19 20 23 21 25 24 23 22 22 23 23 22 20 18 16 15 16 17 13 11 9 9 9 7 6 5 3 2
3 4 5 3 4 4 3 0 3 5 6 3 3 1 3 2 4 7 12 16 18 20 19 21 21 24 28 26 25 25 25 26 25 24 21 18 15 16 19 15 13 11 11 10 9 7 5 3 2
4 3 5 5 5 3 3 4 6 6 8 7 6 5 4 3 5 9 11 13 17 18 20 22 24 24 26 29 28 27 28 28 27 26 25 23 19 20 20 17 15 13 12 11 10 8 6 5 3
6 6 5 4 4 3 4 5 6 4 6 8 5 8 7 6 8 6 8 14 19 25 25 25 28 27 27 31 31 30 29 29 29 28 28 26 24 22 21 20 18 15 14 13 11 10 8 6 4
4 2 1 5 4 5 4 7 7 9 10 12 9 8 9 9 15 15 17 15 18 27 29 29 32 31 31 32 33 32 31 31 30 30 28 28 27 25 23 22 20 18 17 15 13 12 9 7 6
6 3 2 3 6 5 8 5 7 8 7 11 11 8 8 11 13 24 25 23 21 20 28 31 32 34 34 35 36 35 34 32 32 31 30 31 31 29 26 25 23 20 19 18 16 14 11 9 8
2 4 4 5 5 2 7 3 4 3 1 8 10 10 8 8 10 21 24 24 23 23 25 28 33 35 36 37 38 37 36 35 34 33 33 33 32 31 30 27 25 23 22 21 19 16 13 10 8
6 3 2 4 2 2 4 7 9 8 6 8 9 10 9 8 12 22 23 20 20 22 25 28 28 33 34 36 35 34 35 36 37 35 35 33 32 32 30 27 26 26 25 23 21 18 14 11 10
5 4 4 3 2 2 5 4 13 10 6 9 10 12 13 14 10 19 23 24 22 21 21 25 30 32 34 28 27 28 31 36 39 39 37 34 33 34 32 29 28 29 29 27 25 20 15 12 13
5 4 3 4 1 1 5 10 16 14 7 10 13 13 13 9 7 8 16 21 23 24 23 22 27 31 34 34 33 26 30 30 41 40 39 39 36 36 35 34 33 32 32 31 26 24 19 11 18
2 4 2 3 4 2 7 6 5 4 2 5 7 8 7 8 12 11 8 18 22 23 26 23 20 23 32 36 34 28 23 22 29 33 38 41 38 39 38 38 36 35 35 34 33 29 24 17 19
2 2 2 2 2 2 4 5 7 5 8 4 5 8 7 7 7 7 8 13 17 21 23 22 21 19 24 31 30 29 27 25 30 39 43 43 42 40 41 41 41 39 40 38 36 32 29 24 19
3 4 4 2 3 3 3 3 8 4 5 4 8 8 7 6 5 7 7 14 23 18 16 17 20 20 22 24 33 35 31 30 28 33 36 42 45 43 41 42 42 44 44 42 39 36 33 28 24
9 5 5 4 3 2 3 3 6 1 2 6 5 6 7 8 7 6 12 19 27 28 17 13 15 22 22 24 29 36 34 31 29 31 33 35 41 44 42 44 45 46 46 44 41 38 34 31 24
4 5 2 4 3 4 2 1 8 5 4 3 4 6 7 7 8 9 11 14 24 28 25 16 13 13 15 20 25 31 37 34 36 37 37 34 37 42 46 45 45 46 47 44 39 35 33 29 25
2 5 4 4 1 3 0 5 4 4 2 2 1 4 9 12 8 8 8 14 20 25 24 18 14 15 13 14 18 24 30 34 35 35 34 38 41 46 47 47 45 46 46 41 36 34 31 26 20
3 2 2 5 2 2 3 7 7 5 5 2 4 8 10 9 8 9 10 16 20 22 24 20 17 14 15 14 14 17 23 28 31 33 35 37 37 38 42 43 44 41 41 37 37 34 31 27 23
2 6 2 3 2 2 4 5 4 4 4 6 7 9 12 10 8 7 10 15 15 17 20 22 15 15 14 17 16 17 18 24 27 29 32 34 34 33 35 38 41 39 36 34 35 32 28 25 25
2 1 4 4 3 3 2 5 6 5 1 4 8 9 9 9 7 10 9 17 17 13 15 15 15 15 14 13 18 17 16 18 21 26 29 29 29 29 30 32 34 34 32 32 32 30 28 23 20
2 5 4 4 4 1 2 6 3 5 6 5 12 9 7 4 8 10 7 12 10 11 15 18 17 18 19 16 17 18 15 12 16 21 23 23 23 23 26 27 27 29 31 32 31 29 26 21 17

GFSSGP_925_spd_033.txt.gz
Wind_Speed
5 2 3 4 2 2 2 4 2 2 1 1 4 3 3 1 4 2 1 13 19 29 25 21 19 17 17 15 15 15 16 14 13 12 9 9 9 8 8 9 9 9 10 16 17 16 12 10 9
4 2 4 2 3 2 3 3 4 5 3 9 4 2 2 1 0 2 7 12 22 29 23 21 20 19 18 16 16 15 14 13 11 12 12 10 9 9 9 10 10 11 9 12 12 11 10 8 10
5 4 2 3 3 6 4 5 5 3 6 1 2 1 2 1 0 7 3 17 24 27 24 21 21 20 19 19 18 16 16 14 13 14 12 10 9 10 10 11 11 12 11 9 9 8 9 9 9
6 3 3 2 8 5 5 1 4 4 1 4 3 3 2 1 1 6 13 21 24 25 23 22 21 19 18 19 19 17 16 14 13 13 13 11 10 11 11 12 12 12 11 8 8 8 9 9 9
4 2 3 2 7 3 4 3 2 2 3 4 4 2 3 3 2 9 18 22 25 24 23 20 20 19 18 16 16 17 16 16 15 14 14 12 11 11 11 11 12 11 10 10 10 10 10 8 7
3 2 3 9 9 3 4 4 1 2 1 5 1 2 2 1 4 11 16 19 22 23 22 19 19 18 17 15 14 14 12 17 15 15 14 12 12 11 11 10 10 10 10 10 10 10 8 7 6
6 4 7 5 11 5 5 4 3 3 2 3 1 1 1 2 5 12 15 16 20 21 21 20 19 17 16 15 16 18 16 17 17 16 14 13 12 11 10 9 9 10 9 9 9 8 6 6 6
4 3 7 5 7 8 4 6 3 5 3 1 2 3 1 2 9 13 15 16 19 21 21 21 19 17 16 15 16 17 18 16 17 16 15 15 13 10 9 9 9 10 9 8 7 5 6 6 6
3 3 6 10 8 4 4 4 1 1 0 2 2 2 6 3 14 14 14 15 18 20 21 22 21 18 17 17 16 16 16 18 17 15 16 16 13 11 10 9 9 10 7 7 6 5 5 5 5
4 5 9 5 5 4 6 4 3 2 2 2 2 4 5 10 13 15 14 15 17 18 19 21 21 20 19 18 17 17 18 18 18 19 19 19 17 16 13 10 9 10 8 7 6 6 4 3 2
5 5 5 4 4 4 6 2 3 4 3 3 3 1 3 5 7 10 11 11 14 16 17 20 18 21 21 19 20 19 20 20 20 21 21 19 18 17 15 13 12 12 11 10 8 7 5 3 2
4 4 5 3 5 4 4 5 2 4 4 4 4 2 1 6 7 7 9 10 13 17 17 18 18 18 23 21 22 22 22 22 23 22 22 21 19 18 19 18 15 14 14 12 10 9 7 5 3
2 4 4 2 1 2 3 3 5 6 5 5 4 3 4 2 5 11 13 13 13 15 18 22 21 22 22 26 24 24 25 25 25 24 23 21 20 18 20 20 17 15 14 13 12 11 9 6 4
8 4 3 1 2 1 4 4 4 5 4 5 3 8 8 8 8 5 8 13 18 20 20 20 23 25 26 26 27 27 27 26 26 26 26 24 22 20 21 22 19 17 15 14 13 12 10 8 6
6 4 2 4 4 3 4 5 6 11 6 9 9 8 9 10 10 15 16 14 15 19 22 25 25 25 28 29 28 30 30 28 28 29 28 28 26 24 23 23 21 19 17 16 16 14 12 10 7
5 3 4 2 7 4 6 8 4 2 3 9 11 9 10 13 15 19 22 21 22 20 19 23 26 27 30 31 31 29 31 31 30 30 29 30 29 29 27 26 24 21 20 19 18 17 15 11 9
2 4 4 3 7 3 7 2 4 1 2 8 9 9 8 10 12 21 23 22 23 24 25 25 24 27 29 31 31 31 31 32 33 32 31 31 31 32 31 29 25 24 23 22 21 19 16 13 11
6 4 3 6 2 2 3 6 8 10 3 8 10 11 10 10 14 18 21 22 21 21 22 25 28 27 31 29 25 28 29 33 34 35 33 33 33 33 33 32 29 28 27 25 24 21 18 14 12
6 5 3 2 1 1 4 4 10 11 6 10 12 13 12 9 7 14 18 20 20 23 24 24 26 32 28 25 26 27 29 34 33 39 37 35 34 33 33 35 33 32 33 30 27 23 18 14 15
5 5 3 1 2 0 3 10 16 11 6 5 7 9 9 5 7 9 13 15 16 19 21 23 26 27 33 29 29 26 28 27 34 33 38 38 37 36 35 38 38 35 34 32 30 28 22 15 21
3 4 3 2 2 2 5 5 5 2 2 3 8 5 6 4 5 7 11 13 10 12 16 19 25 26 29 31 29 25 23 24 22 28 34 40 41 41 37 40 41 39 38 37 35 34 30 24 26
5 3 4 4 2 2 4 4 6 2 3 5 7 9 9 7 5 5 8 13 19 18 11 11 18 24 24 28 28 27 26 24 25 28 34 35 41 42 41 41 43 43 43 42 38 41 40 33 26
4 5 4 3 4 2 2 2 4 1 3 4 3 4 4 3 4 5 7 12 19 21 19 12 9 15 21 23 29 30 29 29 28 29 29 31 35 40 44 44 45 47 46 46 45 45 43 39 31
10 6 6 4 2 1 1 2 3 1 3 0 1 1 4 6 5 5 8 13 19 21 22 18 10 6 11 16 22 23 26 26 24 28 28 29 35 38 42 45 46 48 48 49 50 45 44 43 32
2 4 1 2 1 3 1 1 6 4 4 3 3 4 6 6 5 7 9 14 20 22 22 21 18 11 7 7 12 22 25 25 23 26 28 24 25 33 43 46 46 48 50 50 48 46 44 42 37
2 4 3 4 3 2 2 5 2 4 4 3 2 4 6 6 5 7 8 12 14 17 18 19 18 17 12 10 10 11 17 23 23 29 31 32 35 36 35 42 45 46 46 46 46 45 42 38 37
4 2 3 6 2 1 2 5 5 2 4 0 3 7 10 9 8 8 12 13 14 15 17 16 16 15 14 13 13 12 13 15 21 23 27 30 31 32 32 36 40 42 40 39 40 36 37 35 33
2 6 3 2 3 3 3 4 3 4 4 3 4 6 7 5 7 8 12 17 16 16 12 14 13 13 14 14 14 16 15 14 17 20 23 26 28 29 29 28 31 31 32 32 33 35 32 30 30
2 2 5 3 2 3 1 4 5 6 3 4 7 10 8 7 8 10 13 16 16 18 17 18 17 17 19 19 17 15 14 13 11 15 17 20 21 22 24 24 25 27 25 26 30 30 34 36 29
1 4 4 3 4 1 0 5 0 4 4 4 9 9 6 7 9 11 14 15 15 15 16 17 19 18 17 17 17 15 12 10 8 8 11 13 15 16 18 20 21 22 24 28 30 27 28 31 28

GFSSGP_925_spd_036.txt.gz
Wind_Speed
5 2 1 4 5 4 5 3 3 3 4 1 3 5 4 8 3 1 2 9 14 21 20 20 18 17 16 16 16 17 16 14 12 11 8 8 8 7 7 7 8 8 13 11 15 14 11 10 10
6 3 2 1 6 8 7 5 4 3 6 7 4 6 6 2 2 3 6 7 18 20 19 19 20 17 16 15 15 16 15 13 10 9 9 9 8 8 9 9 10 10 14 15 13 11 9 10 11
6 5 4 4 7 11 5 6 5 2 3 2 2 2 3 2 4 3 3 12 19 18 18 18 19 18 18 17 14 14 14 12 11 11 10 10 9 9 10 10 11 10 10 9 10 9 9 10 9
8 5 2 9 13 14 10 3 5 2 1 3 5 3 3 4 2 3 11 17 19 17 16 18 19 19 17 17 14 15 16 13 10 12 11 10 9 9 9 9 11 9 7 6 7 8 8 8 8
6 4 8 12 18 12 10 6 4 3 4 5 6 2 1 3 4 7 13 16 17 16 15 17 18 17 16 18 18 15 14 14 13 12 12 11 11 10 10 10 10 9 8 8 9 9 8 7 6
7 7 10 15 18 14 11 7 4 7 4 5 3 2 3 4 5 8 12 14 15 15 14 14 16 15 15 15 17 18 16 14 14 12 13 12 11 11 10 10 10 10 9 9 10 8 6 5 4
15 11 18 17 17 16 11 7 12 10 9 8 3 4 4 6 6 8 12 12 14 15 15 14 14 14 14 13 14 14 15 17 15 12 12 12 14 12 11 11 10 10 9 10 9 7 5 5 4
9 10 21 18 17 17 9 8 5 9 6 1 2 4 5 4 7 9 10 11 14 15 15 15 14 13 13 12 14 15 13 15 17 16 13 12 12 12 11 10 11 11 10 9 9 6 5 5 5
3 10 17 22 20 15 7 10 6 2 8 5 2 3 4 1 9 9 9 9 14 14 15 14 14 14 13 12 13 16 17 17 17 16 14 13 11 11 11 11 11 12 11 9 8 6 6 5 5
12 15 22 14 13 13 11 10 9 7 8 8 6 1 4 6 9 9 9 9 12 13 15 14 14 14 13 12 12 13 13 14 15 16 16 15 13 12 11 11 11 12 10 10 8 7 7 5 4
14 17 12 8 10 7 11 10 5 7 8 7 8 3 3 5 7 8 9 9 11 12 14 14 15 15 14 13 13 12 13 14 15 16 17 16 15 13 12 10 10 10 10 8 9 8 6 5 4
9 15 8 6 5 6 12 8 8 9 3 6 7 3 0 5 9 10 11 10 11 13 14 15 15 16 16 14 14 13 14 14 14 17 18 17 16 15 15 14 13 12 12 11 10 8 7 6 5
13 7 8 5 7 6 6 8 8 9 6 5 5 5 5 3 5 11 13 12 13 14 15 15 16 17 16 18 15 15 15 16 16 16 19 18 17 16 16 15 15 14 12 12 11 9 8 7 6
12 5 13 9 7 5 7 8 4 7 5 8 10 12 11 9 8 7 11 15 17 16 16 17 18 18 17 17 20 17 16 16 17 18 19 21 18 17 17 16 16 15 14 13 12 11 9 8 6
7 14 7 10 9 8 6 12 13 14 15 14 14 12 11 11 11 12 12 13 13 15 16 19 19 20 21 20 21 23 19 17 19 19 20 21 20 18 17 17 17 16 15 14 13 12 10 9 7
11 6 10 11 15 6 6 13 4 4 9 13 12 12 11 14 18 19 18 16 15 15 15 17 19 21 23 23 23 22 28 20 20 20 20 22 23 22 20 20 18 17 16 16 14 13 12 10 9
14 11 17 5 8 9 17 9 7 6 5 9 10 10 9 10 14 18 18 17 18 19 20 20 20 22 24 24 25 25 27 30 22 20 22 23 25 25 23 22 21 20 19 18 16 15 13 12 10
17 16 12 14 5 9 9 13 6 8 8 11 12 13 12 11 14 13 12 14 15 16 17 18 20 22 23 23 24 27 26 30 29 24 24 24 25 26 26 24 22 22 21 19 18 17 15 13 11
10 16 9 8 4 6 11 12 12 13 14 15 15 15 14 12 8 10 12 12 13 14 15 17 17 19 22 22 22 25 27 30 29 32 27 25 26 26 27 27 26 26 25 23 21 19 17 13 13
14 13 10 5 4 5 5 11 14 15 13 11 11 12 12 8 5 2 6 7 8 12 14 15 18 20 21 24 26 27 25 24 25 26 28 26 27 27 30 30 29 28 26 25 24 22 18 14 19
9 11 8 3 5 1 5 9 7 2 6 4 4 2 3 5 6 6 8 9 9 7 7 12 17 19 21 22 24 24 24 20 19 24 30 35 32 29 31 31 31 30 29 30 30 29 25 20 21
9 4 7 5 4 4 3 2 5 5 8 9 10 9 7 6 5 5 7 10 10 10 10 8 10 14 18 19 22 25 26 26 26 26 25 27 28 30 31 30 30 30 32 30 34 34 35 24 20
3 7 7 4 2 2 4 4 6 11 10 10 8 6 5 3 4 6 7 10 10 9 9 10 9 9 12 16 19 22 25 25 25 25 25 25 28 33 32 31 30 31 35 35 32 32 34 33 26
15 10 7 3 0 3 3 4 6 8 10 10 6 3 5 4 3 4 7 10 11 10 10 10 10 9 7 9 15 19 22 22 22 21 22 24 22 25 29 31 31 34 34 35 39 38 35 32 27
5 10 3 4 3 2 2 3 2 8 6 7 7 0 5 5 4 6 9 12 13 13 12 12 11 11 9 7 7 11 19 24 25 25 24 24 22 24 29 31 31 31 34 34 32 34 40 37 33
9 5 3 4 4 3 2 6 2 6 5 1 6 2 4 4 5 6 9 11 11 12 12 12 13 12 10 10 9 8 10 14 20 22 23 24 24 22 22 24 29 31 29 29 28 29 32 33 34
4 4 2 4 1 2 4 3 5 2 7 9 7 4 4 5 5 7 9 11 10 12 12 11 12 12 10 10 10 10 10 11 14 16 19 20 22 22 22 21 22 26 27 27 26 28 28 27 28
2 8 2 1 5 5 4 3 4 10 10 10 3 6 6 6 6 7 9 10 9 10 9 9 10 13 14 13 11 11 11 11 12 13 14 15 17 17 16 18 19 22 25 25 25 23 23 24 25
4 3 1 0 2 2 2 3 2 14 9 5 4 5 6 6 7 8 9 10 9 9 10 10 10 12 13 13 13 13 12 10 9 9 10 10 11 12 13 14 15 17 20 25 27 24 24 22 23
3 3 5 3 4 1 2 2 4 5 4 3 8 7 7 6 6 6 8 9 9 11 12 13 13 13 12 13 11 10 11 11 9 8 8 8 9 9 10 12 13 14 16 18 23 26 25 26 22

GFSSGP_925_spd_039.txt.gz
Wind_Speed
6 8 8 7 5 6 11 4 3 5 5 2 2 6 3 10 6 0 5 4 15 19 19 18 17 14 14 14 13 13 11 12 11 7 5 3 7 5 4 6 6 8 12 13 14 12 11 11 11
6 8 10 5 7 10 10 9 8 4 6 4 4 6 6 4 9 9 8 6 16 17 17 17 17 16 13 13 13 13 12 12 9 7 7 6 7 7 7 9 9 16 17 16 12 10 10 11 11
6 9 8 5 11 13 10 8 8 5 2 2 3 3 2 5 8 5 5 13 18 16 16 17 17 13 12 11 12 12 12 9 8 5 7 8 8 9 9 11 11 11 11 11 10 9 10 10 9
6 7 7 10 14 16 14 5 4 7 4 3 1 4 5 7 4 6 11 16 17 15 14 18 16 16 14 12 10 11 11 9 7 7 8 9 10 10 11 10 10 9 8 7 7 8 9 9 7
11 8 10 14 19 14 12 9 7 6 3 2 2 5 5 6 8 10 14 15 15 14 14 14 17 16 15 13 12 11 12 10 9 7 9 9 10 10 10 10 9 8 7 7 8 9 8 7 5
9 11 11 17 18 18 10 9 8 9 4 1 5 2 8 9 9 10 12 13 13 14 13 15 16 15 14 14 13 13 11 10 9 7 9 10 10 10 9 10 9 9 8 9 9 7 6 5 4
17 14 18 18 16 16 17 10 11 10 10 6 1 8 9 11 8 8 10 11 12 13 13 13 14 14 13 14 15 14 14 11 11 9 7 8 9 9 9 9 9 8 9 8 7 5 5 4 4
14 12 21 19 16 18 11 12 8 13 11 2 2 6 8 9 8 8 6 9 11 13 13 13 14 13 12 11 13 13 15 14 12 10 8 7 8 8 8 9 11 8 7 8 7 5 4 4 5
9 10 14 23 21 16 11 10 14 4 11 6 7 4 6 8 8 8 6 5 11 11 12 13 14 13 12 11 11 12 10 13 13 13 11 10 8 8 8 8 10 11 10 8 7 4 4 4 4
12 15 24 20 18 11 12 12 12 8 12 11 8 6 4 8 7 7 7 8 9 11 13 12 12 12 12 11 11 12 12 12 14 13 13 11 11 10 9 9 11 11 10 9 7 5 5 5 1
14 21 20 19 5 5 13 13 10 11 11 12 12 8 5 6 9 9 9 10 12 12 11 12 13 13 13 11 11 12 12 13 15 15 16 14 13 12 12 9 10 10 10 7 8 8 6 5 4
13 22 18 17 2 3 13 11 12 12 5 5 3 4 3 6 7 10 12 12 13 13 13 14 13 13 13 12 13 12 13 14 14 16 16 16 15 14 13 12 12 13 12 11 9 8 7 6 5
16 10 15 8 5 8 13 14 12 13 8 5 6 4 4 4 5 10 12 13 13 14 14 14 14 14 14 15 13 14 14 15 15 15 18 18 16 15 16 14 15 13 12 13 12 10 9 8 7
12 12 11 11 7 6 9 13 10 11 10 10 10 9 8 8 7 7 10 14 14 13 13 13 14 16 16 16 16 14 15 14 16 17 18 21 18 17 17 17 18 18 14 13 13 12 11 10 8
9 16 8 13 11 6 8 14 18 14 9 12 12 11 10 11 13 13 13 13 14 15 14 15 16 17 18 18 18 19 15 15 16 17 18 20 21 19 18 18 18 21 20 15 14 14 13 11 10
10 13 13 11 11 8 9 14 18 18 16 19 17 14 14 14 16 19 17 15 12 12 13 15 17 17 19 20 18 19 21 18 18 18 18 21 23 23 22 21 19 23 21 17 16 15 14 13 12
13 12 17 12 15 11 14 10 14 10 7 11 12 12 12 13 13 18 18 17 17 19 18 17 17 19 20 20 20 21 19 22 19 19 19 20 22 24 24 24 21 22 23 21 18 18 17 15 14
18 20 17 16 10 15 19 15 11 6 9 13 13 12 12 13 12 14 13 13 14 16 18 18 19 20 20 20 20 23 25 24 24 21 22 22 23 26 26 24 23 23 24 23 21 20 19 18 16
13 17 14 13 8 8 14 16 15 12 14 15 14 13 13 13 11 2 8 11 13 13 15 17 18 20 20 21 22 19 25 29 27 29 25 22 23 24 27 27 25 25 25 26 24 22 21 18 16
9 14 13 4 9 7 11 13 11 13 17 16 15 14 13 11 9 3 5 4 6 9 12 14 16 18 20 21 22 23 22 24 27 26 26 31 26 28 28 30 28 29 28 27 27 27 22 21 23
12 14 14 6 9 9 5 13 17 12 7 4 5 8 8 8 6 4 2 2 4 5 5 8 13 16 18 20 21 22 21 22 21 26 28 30 30 28 29 29 29 28 29 29 29 29 28 23 23
12 4 7 6 9 5 8 3 8 11 7 6 7 6 6 6 5 3 2 5 6 6 6 6 6 9 13 17 19 21 20 21 23 22 22 23 24 30 30 31 32 32 30 30 32 33 32 25 22
6 11 8 5 6 3 8 4 8 11 10 10 9 7 6 4 2 1 3 5 6 7 8 8 8 8 7 10 15 19 21 22 22 23 24 24 22 24 30 30 30 34 33 32 30 31 35 34 25
12 12 8 4 2 4 10 8 9 10 13 13 10 7 5 4 2 1 3 6 6 7 8 9 10 10 9 8 9 15 20 21 21 21 21 21 22 22 25 28 31 31 33 32 33 33 33 35 30
9 14 5 5 4 4 3 5 4 7 10 13 12 6 3 1 1 2 5 7 8 8 9 10 10 11 11 10 9 9 13 18 22 22 20 20 19 18 22 25 30 31 30 31 30 31 31 35 34
13 14 2 7 6 7 4 7 1 10 8 6 6 2 2 1 1 3 5 8 8 8 9 10 10 11 10 10 11 11 10 11 13 16 19 20 19 19 18 22 25 30 32 31 29 29 30 29 32
4 6 3 2 1 2 7 5 7 8 10 6 9 2 2 2 3 4 6 8 9 9 9 9 10 11 10 11 11 10 10 11 12 12 14 16 17 19 20 17 19 23 28 32 29 30 27 27 27
2 1 3 2 4 5 6 5 4 13 12 13 8 3 2 2 3 4 5 7 8 8 9 9 10 11 11 11 10 10 10 10 10 10 12 11 12 14 17 18 23 19 20 25 27 30 28 26 26
4 2 4 4 2 3 2 3 7 15 15 12 4 2 2 3 4 5 6 7 6 7 9 9 10 12 12 12 12 11 10 10 9 8 8 9 10 11 14 15 14 14 13 17 20 22 22 22 20
5 5 10 3 4 1 3 2 3 14 11 4 2 1 1 2 3 5 6 7 7 8 9 10 10 11 12 13 13 11 10 9 9 9 9 8 8 8 10 8 8 8 10 10 14 16 18 16 17

GFSSGP_925_spd_042.txt.gz
Wind_Speed
8 11 13 12 2 4 7 7 6 4 3 5 5 4 4 7 6 4 9 3 23 22 20 19 17 16 13 13 12 12 12 11 12 7 7 4 6 6 7 8 8 12 13 17 14 14 13 13 13
8 11 10 4 4 5 6 6 6 2 7 6 4 4 4 9 9 9 11 9 22 23 20 19 17 16 15 15 13 12 13 11 9 6 4 5 7 8 10 11 17 16 17 15 13 12 13 13 13
9 8 3 3 6 9 7 7 8 8 4 4 6 2 2 5 10 5 14 17 23 21 21 20 18 16 14 14 14 13 12 11 7 4 6 8 9 10 12 13 15 15 13 13 11 12 12 12 11
5 4 3 5 10 15 14 4 3 9 3 5 4 6 6 12 5 12 16 20 21 20 23 22 17 15 14 14 14 13 12 9 5 5 7 10 10 11 11 11 11 10 10 9 9 11 11 11 10
2 4 5 7 13 14 13 8 2 7 4 5 1 4 7 8 15 15 19 19 19 24 21 22 18 15 15 13 12 12 11 9 6 6 8 10 11 10 9 9 9 8 8 8 10 10 9 9 8
5 3 8 12 13 15 11 11 4 1 6 4 2 3 5 14 15 15 17 17 17 20 19 19 18 16 15 14 13 12 11 9 8 4 9 10 11 11 10 10 9 9 9 10 10 9 8 7 6
8 5 15 15 14 12 14 7 7 5 6 6 3 4 8 14 12 13 13 14 15 16 19 18 18 15 15 14 14 13 11 10 9 7 6 8 10 10 10 11 10 10 10 10 8 7 6 6 6
4 4 12 19 14 12 7 4 8 8 6 2 5 5 5 11 11 8 13 13 14 14 18 17 16 16 15 18 16 13 11 10 10 9 7 7 8 9 9 10 11 9 10 9 6 5 5 5 5
6 6 13 17 17 15 5 4 5 3 5 3 4 8 12 16 12 9 7 10 16 14 16 15 16 14 11 10 15 15 14 13 12 11 8 5 8 9 7 9 8 9 8 8 6 4 5 5 5
7 7 15 16 21 17 5 5 3 4 7 5 5 11 16 14 12 12 7 6 11 14 14 15 19 16 13 15 10 12 11 14 16 13 11 8 11 7 9 9 11 11 9 8 6 5 5 5 3
7 13 19 25 16 10 6 6 2 5 6 8 7 11 10 14 9 10 10 8 3 10 12 12 13 14 15 13 11 13 14 12 16 15 15 15 12 14 15 13 11 13 12 10 9 7 7 7 5
7 18 16 13 3 5 10 4 7 6 3 7 10 9 6 7 9 12 11 14 13 10 9 10 12 13 14 15 12 13 18 16 19 19 19 15 17 19 15 13 11 14 12 11 9 7 7 7 11
17 12 15 17 8 2 8 6 5 6 4 6 8 7 2 2 5 13 14 12 15 17 13 15 12 13 16 16 15 15 17 17 17 18 20 21 19 19 16 16 15 12 17 13 16 10 11 12 10
9 14 9 7 5 1 4 5 3 6 7 7 4 2 5 5 5 3 14 13 13 14 19 15 17 17 15 18 17 16 15 17 18 18 20 21 20 21 23 20 19 18 15 14 16 14 14 12 12
5 6 8 4 6 2 2 7 12 8 4 7 8 8 8 8 11 10 8 9 17 19 20 19 20 19 20 18 24 20 17 17 20 20 20 22 23 20 19 21 27 25 22 15 18 17 17 16 16
6 2 8 8 9 4 8 6 13 10 8 8 7 8 8 10 13 12 11 12 10 9 10 22 23 22 20 19 19 20 22 14 16 19 21 23 25 25 23 21 21 25 24 24 17 20 19 19 19
5 7 12 9 12 5 9 3 14 7 12 9 9 11 8 7 7 12 13 16 13 11 11 11 10 21 22 21 20 19 17 23 19 17 21 23 25 27 28 25 23 23 24 26 26 22 23 21 20
15 14 14 13 11 14 11 10 9 6 6 8 7 7 6 6 6 8 11 7 5 4 9 15 16 21 18 19 22 26 25 23 24 26 20 24 26 28 28 29 26 25 27 28 29 26 24 23 23
9 12 13 14 9 11 14 11 11 8 7 7 7 7 7 7 6 2 9 6 7 9 11 11 12 13 12 20 18 23 28 28 28 30 31 24 24 28 30 32 32 28 29 32 32 30 25 25 22
9 5 15 2 8 5 6 11 10 9 8 8 8 8 8 5 4 11 10 7 5 6 7 9 12 15 16 18 20 20 21 27 32 30 29 31 30 24 31 35 36 36 33 30 34 33 29 28 27
11 8 9 4 6 2 5 7 10 8 7 8 0 2 5 5 7 6 8 9 4 4 5 7 10 13 14 13 15 19 22 19 22 26 28 32 31 33 23 30 35 37 35 36 33 36 35 27 31
9 8 5 8 5 3 9 4 11 16 8 3 3 5 6 5 7 6 6 7 3 3 3 4 5 7 9 15 18 16 18 18 19 24 25 25 25 29 29 32 30 32 34 33 35 35 39 29 30
5 11 7 5 4 4 6 2 2 11 7 6 7 6 6 6 6 6 6 1 1 4 4 5 6 7 6 9 9 15 18 20 22 22 22 23 22 24 27 23 35 32 33 34 30 35 35 41 31
7 10 8 2 2 2 8 5 4 8 11 9 6 7 8 7 7 5 7 1 4 6 6 8 8 9 9 8 8 9 13 17 20 20 21 24 25 26 25 27 23 32 29 32 35 34 34 36 34
9 9 3 1 1 4 3 5 6 6 12 11 9 9 8 7 6 4 5 5 5 5 7 10 10 11 11 10 10 11 12 11 13 18 20 19 18 18 19 23 25 26 29 32 31 35 35 32 38
7 7 4 5 4 4 2 5 4 7 10 13 9 8 6 6 5 5 5 4 7 7 8 9 10 11 12 11 12 12 12 13 12 12 13 14 16 19 15 12 22 25 24 25 31 33 34 34 37
3 2 4 3 3 3 5 3 4 7 7 6 8 7 6 5 5 5 6 7 7 8 9 10 11 12 12 13 12 13 12 12 13 13 12 14 14 10 14 15 11 13 19 19 22 28 30 31 33
3 4 2 1 2 4 5 6 4 11 11 7 7 6 6 6 5 5 5 6 6 8 10 10 11 13 14 13 13 13 13 11 11 9 9 11 12 13 12 13 14 12 10 12 17 23 25 25 28
2 1 3 2 2 2 2 2 3 13 10 9 8 6 5 5 5 4 4 5 6 10 11 12 12 12 13 15 15 14 13 11 9 10 13 11 10 10 10 12 15 16 16 13 11 11 12 12 12
4 4 2 2 3 1 2 3 1 9 8 7 6 6 6 6 5 3 3 2 8 9 9 10 12 12 13 15 16 15 12 11 12 11 11 9 8 7 7 7 6 7 8 10 10 10 10 10 12

GFSSGP_925_spd_045.txt.gz
Wind_Speed
5 6 13 5 3 4 4 6 2 3 4 3 2 7 4 0 3 4 7 13 22 28 28 23 20 19 17 17 15 14 15 14 13 9 9 7 8 8 9 10 15 15 17 16 15 14 14 14 13
5 8 5 1 3 2 5 6 4 4 5 2 5 5 5 3 3 6 12 25 24 28 26 24 21 18 16 16 15 14 15 15 9 7 5 7 9 11 13 16 16 18 15 14 14 15 14 14 15
7 5 2 3 3 5 5 3 7 3 6 3 2 4 4 3 5 13 18 28 23 26 23 21 20 18 18 16 15 16 14 12 10 6 7 10 12 13 15 17 18 16 15 13 12 14 14 13 14
12 7 3 1 5 10 6 6 5 4 4 5 3 7 5 5 5 14 23 29 24 27 23 21 20 18 19 17 16 16 14 11 6 5 9 11 13 13 14 14 14 13 12 10 11 13 12 12 13
8 3 2 3 8 9 3 6 4 5 5 2 3 3 4 7 16 22 24 27 30 28 25 22 17 18 16 18 18 16 12 10 6 7 10 12 14 12 12 12 11 10 10 9 11 11 11 10 11
4 3 3 7 7 10 2 8 6 3 4 2 6 5 2 14 18 19 22 26 28 30 26 21 18 18 17 14 16 15 12 9 7 6 10 12 11 11 12 11 10 9 9 10 11 10 10 9 9
8 6 4 7 8 10 7 6 4 4 2 1 4 5 2 6 14 19 19 26 27 25 22 22 21 18 16 15 15 14 14 10 8 5 7 10 11 11 12 12 11 11 11 10 9 9 8 8 9
5 7 10 5 6 8 9 5 7 6 2 3 5 5 5 4 6 15 24 27 25 22 19 23 21 19 18 17 17 15 15 12 10 8 5 7 10 12 12 13 12 12 12 10 8 7 7 8 9
6 6 11 17 16 19 12 13 1 5 6 6 3 6 12 12 8 17 22 25 26 23 18 20 22 21 20 19 18 16 14 13 13 12 8 7 9 11 12 13 12 12 11 10 8 7 7 7 7
6 9 16 16 17 4 15 10 11 3 4 6 6 11 18 12 7 8 13 13 20 25 20 17 17 18 16 19 20 19 17 16 16 15 13 9 10 11 11 12 11 12 11 10 9 8 8 8 7
6 13 14 15 14 4 5 13 11 7 0 3 9 11 12 17 10 7 7 9 10 19 21 20 19 18 18 18 15 17 18 19 19 17 15 11 12 12 13 13 14 14 13 13 11 10 10 9 8
6 10 16 9 5 5 6 9 12 2 4 5 9 10 9 10 12 14 12 12 9 11 14 14 25 21 19 18 16 13 16 16 20 20 17 15 17 19 18 15 14 15 15 14 12 12 11 11 9
4 3 10 8 11 8 12 20 7 7 8 11 9 7 7 8 14 19 19 15 13 15 15 16 16 20 20 17 15 12 16 17 16 18 19 18 17 19 23 18 14 14 15 15 14 11 10 12 12
8 8 6 4 7 8 10 4 4 5 6 9 9 4 1 1 6 12 18 16 21 17 15 21 18 17 16 19 17 16 20 20 17 18 20 22 19 19 24 19 18 17 15 14 17 16 14 16 15
3 12 7 4 3 4 2 2 17 7 2 6 5 5 6 5 5 5 15 16 19 21 18 19 22 25 21 16 19 19 16 21 21 20 20 23 23 22 25 23 21 20 20 15 20 21 19 17 17
5 6 5 10 9 5 6 7 7 10 5 6 5 6 6 7 13 13 10 10 15 22 23 23 19 19 27 25 22 24 22 19 21 23 22 23 25 26 23 26 27 26 26 24 21 18 22 21 21
5 4 5 6 11 5 5 5 10 7 6 8 7 7 7 7 10 18 15 11 8 10 13 22 22 20 20 23 25 22 25 26 21 21 25 24 26 27 30 27 25 26 27 30 28 26 23 24 24
13 12 9 8 8 7 6 7 6 5 9 10 7 7 7 7 8 10 10 10 8 5 4 6 8 24 22 20 23 24 23 23 30 27 22 24 29 29 30 33 32 29 28 29 32 32 29 28 27
6 7 5 7 7 7 13 5 12 7 3 6 7 7 6 6 2 12 12 11 8 4 1 2 3 2 4 20 26 28 28 29 26 25 30 29 23 27 31 34 34 34 33 34 34 33 34 31 29
5 8 8 1 6 10 5 12 8 11 6 8 8 8 7 3 5 7 11 11 10 7 4 4 6 8 8 8 6 9 21 28 33 30 31 29 29 30 28 33 38 37 38 35 35 36 33 33 30
6 5 4 5 3 3 3 5 8 8 6 8 7 5 5 5 6 4 10 12 9 8 7 7 7 10 13 13 13 13 9 11 14 22 27 28 28 27 29 32 33 37 38 39 39 38 37 29 33
5 5 3 12 5 4 6 5 6 15 15 9 8 6 6 5 7 6 10 10 8 6 4 4 6 7 7 9 11 13 15 15 16 15 22 26 27 27 25 25 27 35 37 43 40 37 40 36 30
5 7 7 5 4 3 2 2 7 4 9 7 8 7 7 7 8 7 8 8 9 5 3 4 5 6 8 7 8 10 12 15 16 16 15 16 23 26 24 24 26 25 31 36 38 38 32 41 29
4 9 8 5 4 1 6 7 5 5 10 6 5 8 9 8 7 7 9 9 8 5 4 5 5 7 8 8 7 8 10 12 13 15 16 18 16 16 26 28 29 28 22 25 29 30 32 35 40
4 7 2 2 1 5 2 6 10 5 5 9 10 9 8 7 7 6 6 7 6 5 5 5 7 7 8 8 9 9 11 11 10 10 10 11 11 12 12 13 20 23 23 22 24 28 29 32 35
9 3 5 6 5 4 2 7 6 5 9 13 11 9 8 8 7 7 8 8 6 6 7 7 8 8 10 9 9 9 10 11 10 10 10 8 8 7 6 6 4 7 14 18 22 19 23 27 30
5 3 2 2 1 3 4 5 6 4 9 12 10 9 9 7 8 8 9 9 7 8 9 10 9 10 10 10 10 10 10 10 9 6 6 8 9 9 11 10 7 5 10 12 14 15 17 22 25
2 1 2 2 2 4 4 4 4 8 8 10 9 9 8 8 8 7 8 9 11 11 10 11 10 10 10 9 10 11 11 9 5 7 10 10 10 10 10 10 10 9 7 8 9 10 13 16 17
2 0 2 3 4 3 2 5 5 13 12 11 8 8 8 7 7 7 8 11 11 9 9 11 11 10 10 10 11 11 10 10 9 8 9 9 9 9 7 8 8 9 8 9 9 9 9 12 11
1 5 4 4 4 3 3 5 4 8 9 8 8 7 7 8 7 6 8 11 10 10 9 9 10 11 11 10 9 10 8 8 8 7 7 6 5 7 8 6 6 8 8 7 7 8 9 9 10

GFSSGP_925_spd_048.txt.gz
Wind_Speed
6 3 4 4 3 4 3 6 2 2 2 3 2 6 7 2 2 4 5 12 26 30 28 25 23 20 19 18 18 18 17 16 15 12 8 7 7 8 10 14 14 16 14 14 13 13 12 12 13
3 1 4 2 4 2 5 5 5 5 7 8 5 3 6 2 1 7 11 21 28 30 28 25 23 21 21 19 19 18 17 16 12 7 5 7 9 11 12 14 17 15 13 12 13 13 13 14 15
1 5 3 4 3 5 4 3 6 4 4 3 4 5 4 0 2 13 17 28 28 30 27 24 23 21 20 19 19 18 18 14 9 5 5 9 14 16 15 16 16 14 12 11 13 13 13 15 16
4 6 4 3 5 7 3 4 5 4 1 4 5 6 3 2 4 11 29 27 30 30 26 24 21 19 20 19 19 18 16 11 6 5 9 12 15 16 15 17 15 13 11 10 12 12 13 14 16
4 3 3 2 6 3 7 6 5 5 1 2 3 2 3 4 9 31 29 28 29 26 24 21 20 20 20 19 19 17 14 11 5 6 11 13 15 15 14 15 12 10 9 9 11 11 11 12 14
3 3 2 3 6 6 7 7 3 4 1 3 6 5 1 2 18 28 30 27 27 28 26 23 18 20 19 19 19 17 13 10 9 7 11 12 12 14 13 13 12 10 9 10 11 10 10 11 12
8 8 11 3 8 7 4 10 6 3 3 2 9 5 1 2 9 28 28 28 28 28 26 23 21 20 18 16 18 16 13 11 10 7 9 12 11 11 12 12 11 11 11 11 10 9 9 10 11
6 5 11 5 4 8 7 12 6 4 1 2 3 6 5 3 8 25 28 30 29 27 23 24 24 22 20 18 18 17 15 13 12 8 7 8 9 11 12 11 11 11 11 10 10 9 9 9 11
3 5 12 18 12 7 7 9 8 8 4 4 5 3 9 17 17 27 26 27 27 24 22 25 25 23 21 21 20 18 17 15 14 12 7 8 10 11 11 12 11 10 10 9 7 7 7 8 9
4 11 19 12 17 6 9 9 11 7 11 6 5 7 16 16 23 20 18 20 25 25 25 25 26 25 23 23 21 19 17 17 17 15 12 7 10 12 12 12 11 11 10 8 7 6 7 7 8
7 18 7 13 16 3 8 16 13 8 5 4 9 7 5 11 15 12 19 23 26 25 24 24 23 24 24 25 22 21 19 18 18 17 14 10 9 13 13 13 13 12 12 11 10 9 9 8 7
6 8 12 5 3 7 14 12 13 8 8 10 11 12 6 8 11 15 13 17 19 23 23 23 23 23 22 20 21 22 22 21 21 20 17 15 12 15 14 15 14 13 14 14 14 13 10 11 10
3 13 13 12 13 12 5 8 9 17 22 12 11 8 8 5 10 16 19 15 15 19 18 21 24 24 25 22 19 18 18 19 19 22 20 18 17 17 17 17 16 16 17 18 17 15 14 15 14
7 3 7 11 12 16 14 9 5 15 14 9 10 9 8 9 13 13 14 17 17 18 18 17 21 25 25 26 22 19 16 16 16 18 21 20 20 20 21 22 22 20 18 17 18 17 16 14 15
3 8 3 10 14 7 7 7 16 23 13 8 5 7 7 8 10 20 23 20 21 19 20 22 20 23 25 23 22 19 18 19 21 20 19 19 21 23 23 23 27 25 20 19 19 18 19 20 19
5 6 5 4 9 7 12 14 19 20 11 10 7 6 6 5 9 11 17 22 20 24 22 18 22 26 23 22 22 21 21 18 23 25 23 22 23 24 26 26 29 28 25 24 23 22 23 24 24
3 6 8 6 12 5 9 5 8 10 8 10 9 7 6 6 7 14 14 17 17 23 24 23 21 20 25 27 24 24 24 23 21 20 27 27 26 25 27 30 29 30 28 27 28 26 24 25 27
19 9 11 8 11 7 9 5 4 5 7 11 9 8 7 5 8 13 13 12 12 13 12 16 21 22 20 21 25 28 25 26 29 27 24 28 29 30 31 32 31 31 30 30 32 33 32 29 28
10 5 5 2 7 7 12 4 9 9 4 8 9 8 7 5 3 7 12 13 14 13 13 12 9 9 16 21 22 23 28 27 26 27 32 30 27 27 31 33 34 32 32 34 34 34 35 35 32
9 7 5 1 4 8 6 14 7 9 6 7 8 8 8 4 6 7 10 12 10 8 7 7 6 4 4 7 13 18 18 27 31 31 29 27 28 28 28 26 31 35 36 38 37 34 34 37 34
2 6 5 5 3 2 4 6 7 8 6 6 7 7 6 9 9 6 8 10 9 8 5 3 2 3 2 2 6 9 9 11 12 16 22 24 24 26 27 27 27 30 32 38 42 40 37 29 27
3 6 5 7 5 4 4 5 6 9 12 11 12 8 8 8 5 6 8 9 8 7 5 5 4 4 5 2 2 2 5 9 11 12 13 15 18 20 24 26 27 27 27 33 37 39 40 34 25
5 5 8 4 5 4 1 0 6 2 8 17 13 10 9 8 9 9 9 11 9 7 5 4 4 6 6 6 5 5 5 5 7 9 11 13 14 14 17 21 26 25 24 27 28 33 35 36 30
5 6 8 5 3 1 6 6 5 6 8 5 5 7 9 8 8 8 11 14 11 7 6 5 6 6 6 5 6 7 7 8 8 8 7 8 9 9 9 11 20 25 27 25 23 23 26 31 36
3 7 2 2 1 7 3 5 17 6 7 7 9 9 9 9 8 8 7 11 9 7 6 5 5 5 5 5 6 7 7 7 7 5 5 6 7 6 5 6 8 14 17 18 19 20 20 21 23
4 4 5 6 4 4 4 8 7 8 7 8 11 13 9 8 7 8 9 11 11 9 8 6 6 5 4 4 6 6 6 6 5 5 3 3 5 6 8 8 7 7 7 11 13 13 15 15 18
4 2 1 4 2 3 5 7 9 1 2 8 11 9 9 8 8 8 10 12 12 11 9 7 5 4 3 5 6 6 5 4 2 3 5 7 7 7 8 8 8 7 6 7 8 7 10 12 13
1 3 1 2 2 4 5 5 6 5 8 10 11 10 8 6 7 7 9 12 12 11 10 7 5 4 4 4 6 6 6 4 3 3 5 7 6 6 6 6 6 6 7 6 5 4 6 7 9
3 3 3 0 3 3 2 6 5 9 10 12 11 10 8 8 7 7 9 13 12 10 8 7 5 4 4 4 5 5 5 4 3 5 6 6 7 8 7 7 6 6 5 5 3 3 3 4 4
3 4 6 4 5 3 3 6 5 7 7 9 9 8 8 9 8 7 11 13 10 9 7 5 4 3 5 4 4 5 3 2 3 5 6 5 7 8 8 8 7 7 6 6 5 6 6 8 7

GFSSGP_925_spd_051.txt.gz
Wind_Speed
4 4 3 3 3 4 3 6 3 5 2 2 3 4 5 5 3 4 3 13 25 32 27 24 22 19 18 17 17 16 15 15 14 10 8 8 7 10 13 13 13 12 11 10 10 9 9 11 12
2 1 2 3 4 3 4 4 5 5 2 6 6 3 5 3 3 4 13 13 28 30 28 26 23 20 19 18 17 17 16 15 12 9 6 8 10 10 13 14 12 11 10 11 11 10 11 11 13
2 1 3 4 3 5 4 3 6 6 4 4 4 4 2 2 2 14 5 24 32 31 29 26 23 21 20 19 19 18 17 13 9 6 6 11 13 13 14 16 12 10 8 10 11 11 12 13 14
3 3 4 4 4 5 4 5 4 8 4 4 4 7 2 4 7 6 23 28 31 31 27 25 23 21 20 20 19 19 15 12 6 3 9 15 13 16 16 15 11 10 7 8 10 11 12 13 12
4 2 3 2 4 4 4 5 7 7 7 2 1 4 2 5 5 21 26 28 30 29 26 24 22 20 19 20 19 18 14 10 5 4 10 14 13 13 15 14 11 8 6 8 10 10 11 12 11
3 3 2 3 3 4 5 6 6 5 4 3 5 4 1 5 21 25 25 26 28 29 26 23 20 20 20 20 19 17 13 9 5 4 9 11 12 11 11 12 9 7 6 7 8 8 9 9 9
5 2 5 3 2 4 3 8 3 7 6 3 7 4 1 4 21 24 25 26 26 25 24 20 19 21 19 20 18 15 12 9 6 5 8 12 10 12 10 10 8 7 6 7 6 6 6 7 8
4 5 17 6 4 5 3 8 5 7 5 7 2 6 4 4 22 23 24 26 25 25 24 23 21 22 20 17 18 14 12 10 8 5 7 9 10 11 11 10 9 8 7 7 6 5 5 6 6
1 6 15 18 13 14 1 6 7 11 5 4 7 2 7 19 25 24 22 23 25 24 22 22 23 22 21 19 18 16 14 12 11 8 6 8 10 11 12 12 11 10 8 7 6 5 5 5 6
5 9 16 6 16 18 4 5 8 8 14 6 3 8 16 23 27 21 17 19 24 24 23 23 24 24 22 21 20 19 17 15 14 12 10 7 9 10 11 11 11 11 10 9 7 6 6 5 6
5 13 3 8 11 1 5 1 7 7 7 5 10 5 6 17 18 19 19 26 29 25 23 24 24 23 23 22 21 19 17 17 16 15 13 10 9 11 11 11 12 12 12 11 10 8 8 8 8
6 12 13 6 5 3 6 4 7 3 9 10 11 9 4 7 13 18 21 24 25 23 23 23 24 22 22 21 22 21 19 18 18 18 17 15 12 13 14 14 13 13 13 12 12 12 10 10 11
3 10 8 12 12 7 1 7 14 16 18 15 14 5 8 6 8 13 22 22 22 21 22 21 22 22 23 22 22 22 22 21 20 20 20 18 16 14 15 15 15 15 14 14 14 15 14 14 14
6 4 10 13 10 8 5 3 3 21 7 12 10 7 7 7 11 13 19 22 20 23 23 21 23 23 22 22 21 21 20 20 21 21 22 21 19 17 17 18 18 18 16 15 16 17 17 17 16
4 6 5 7 11 7 11 11 13 26 16 16 11 8 8 9 10 15 21 24 22 21 22 22 23 28 26 25 23 22 20 18 18 18 17 21 22 21 20 21 21 21 20 19 19 18 19 20 19
4 4 5 8 12 4 13 10 19 7 16 14 10 8 8 7 13 17 17 19 22 23 25 24 21 23 27 27 26 26 23 21 20 20 19 20 23 23 23 24 25 23 24 25 24 23 23 23 23
2 6 6 7 18 8 16 5 18 20 20 14 14 9 8 7 7 12 15 22 19 21 22 22 24 24 23 23 23 24 24 24 22 22 25 25 25 26 28 28 27 26 27 29 29 28 27 27 28
18 6 13 8 11 9 18 3 12 19 19 18 19 8 8 8 9 9 11 14 18 20 22 22 21 18 18 22 22 21 22 24 23 23 22 22 27 27 27 30 30 30 29 30 31 31 31 30 30
8 5 7 1 4 11 10 7 6 8 6 8 10 9 9 9 4 2 7 13 14 12 14 16 19 20 21 18 18 21 27 28 26 27 27 28 25 25 28 30 31 32 31 31 30 32 32 33 33
9 5 4 2 3 11 7 8 8 9 7 9 10 9 10 5 5 6 11 13 11 13 12 11 10 8 9 14 20 19 18 21 25 27 26 25 25 28 30 28 29 30 32 32 32 32 30 32 30
3 7 4 5 3 3 4 3 8 11 6 7 7 8 6 10 9 7 10 12 12 11 9 7 6 5 5 6 7 9 11 13 16 17 18 22 24 26 27 27 26 26 26 27 30 32 33 27 23
4 4 5 5 4 4 3 4 8 9 12 9 14 10 10 8 6 5 10 12 12 11 10 8 7 5 4 5 5 7 9 10 10 12 14 14 14 16 18 20 22 24 24 26 27 27 30 29 22
2 5 6 3 4 3 1 1 6 3 7 17 14 12 9 9 10 10 12 15 12 11 9 9 9 8 7 6 4 2 1 2 4 6 10 15 18 16 14 15 19 22 25 25 24 25 25 26 27
7 6 7 5 3 2 5 5 6 6 7 4 7 11 9 9 9 8 14 16 14 11 9 8 7 7 5 4 4 3 1 2 4 5 5 5 6 7 10 12 12 17 21 24 25 24 22 22 22
4 5 2 1 1 5 2 4 15 7 4 6 8 9 9 9 10 9 9 14 13 11 9 8 7 6 3 3 3 3 2 3 4 5 6 6 5 5 6 7 7 8 12 17 17 17 17 19 19
5 6 5 6 4 3 2 8 6 6 9 7 8 7 6 8 7 8 10 14 13 11 9 8 6 5 2 3 4 5 5 4 3 3 2 3 5 7 8 9 8 8 7 6 9 10 11 13 12
4 3 3 6 2 3 5 7 9 7 10 6 6 7 10 8 8 8 10 13 13 11 9 6 4 3 2 5 6 6 5 3 2 1 1 3 5 7 9 10 9 8 8 7 5 4 6 6 7
3 3 2 3 3 4 4 5 7 6 9 5 7 10 8 7 8 7 9 13 11 10 8 6 3 1 2 4 4 3 2 1 2 1 2 3 5 6 6 5 5 5 5 4 3 1 2 3 2
1 2 3 2 4 4 2 5 6 6 8 8 8 8 10 10 9 8 10 12 12 10 8 6 3 1 1 2 2 1 1 2 1 2 3 4 4 5 5 5 5 5 6 5 4 5 4 4 4
4 4 6 4 4 3 2 6 2 6 7 7 7 7 7 9 8 7 12 15 12 9 7 4 2 1 1 1 1 1 1 1 0 1 2 3 3 5 5 5 6 7 7 7 6 6 8 8 9

GFSSGP_925_spd_054.txt.gz
Wind_Speed
8 4 1 4 3 5 2 5 2 6 2 4 3 4 6 3 4 5 3 9 24 32 27 25 22 19 18 17 16 14 13 13 12 8 7 8 9 14 14 13 12 11 11 11 11 11 11 12 12
5 3 4 2 4 3 4 3 3 4 3 3 2 2 3 1 2 5 14 12 27 30 28 25 21 20 19 17 16 16 14 13 9 7 7 8 11 14 13 12 11 10 10 11 11 11 11 11 11
5 4 4 4 3 5 4 3 4 6 8 4 2 3 2 0 2 15 3 21 32 29 27 25 22 21 20 18 18 16 15 10 7 6 8 11 11 13 13 10 9 8 9 10 11 11 12 12 10
3 1 4 4 5 5 3 3 3 8 5 4 1 2 2 3 6 8 18 25 30 29 26 24 22 21 20 19 18 17 13 10 7 6 11 11 12 13 15 10 7 8 8 9 10 10 11 11 9
1 0 3 3 4 2 2 3 5 5 5 1 2 2 2 6 2 16 25 27 28 28 26 23 21 20 19 19 18 17 12 9 6 5 15 12 13 14 12 9 8 7 7 8 9 9 9 9 7
1 2 3 5 3 2 4 4 2 5 5 3 3 1 1 2 14 22 24 27 26 28 26 22 20 19 18 19 18 15 12 8 4 6 13 12 10 11 11 8 6 5 5 7 7 7 7 6 5
4 3 5 5 4 2 1 4 4 5 6 4 2 1 1 2 14 20 22 24 26 25 25 23 20 18 18 18 17 14 11 7 2 4 10 15 13 9 8 7 6 5 5 5 5 5 5 5 4
1 3 6 3 4 2 0 2 2 6 4 6 2 3 4 5 18 18 20 23 25 24 23 22 19 19 18 18 15 12 9 7 4 4 8 10 12 12 11 8 7 5 5 5 5 4 3 3 3
2 4 14 10 6 5 2 3 5 3 5 4 7 4 10 22 21 20 20 21 22 22 21 20 19 20 18 16 16 13 11 9 7 5 5 6 7 10 11 9 8 7 6 6 4 3 3 4 4
4 11 15 9 15 6 4 5 5 5 9 5 12 17 19 7 24 21 16 17 22 22 21 20 20 21 20 17 16 14 14 12 10 8 6 5 6 7 8 8 9 8 7 6 4 3 4 4 4
6 10 8 6 7 7 3 2 2 5 4 4 7 14 10 11 8 15 19 24 27 24 21 19 20 20 19 18 17 18 17 14 12 10 8 7 6 8 9 9 10 10 10 9 7 6 6 6 6
5 2 12 3 4 6 7 2 3 3 7 6 9 11 6 6 11 15 18 24 24 23 21 20 20 21 19 19 19 19 18 16 15 13 13 12 10 9 11 11 11 11 11 10 9 9 9 8 8
2 4 9 7 7 5 6 1 4 9 7 6 8 12 9 5 11 12 20 24 23 22 21 20 21 21 20 19 19 19 18 17 15 16 16 15 14 11 11 12 13 12 11 11 12 12 12 12 12
7 2 8 11 10 9 9 2 4 16 5 7 11 14 9 5 10 8 17 24 24 22 21 19 20 21 20 20 20 20 19 19 18 18 18 18 17 16 14 14 14 14 14 13 13 14 14 15 15
1 10 2 3 9 5 8 2 9 14 9 13 11 10 10 6 11 17 19 22 23 23 20 21 20 20 21 21 19 19 19 19 19 18 18 18 20 19 18 16 16 16 16 17 18 17 17 17 17
2 4 7 5 7 2 11 17 12 1 6 16 12 11 9 10 11 16 19 22 20 19 22 21 21 22 23 22 21 20 19 19 18 17 16 17 18 19 20 21 20 19 19 20 21 21 21 21 21
5 7 5 5 13 8 8 5 8 13 9 15 14 12 10 8 12 14 15 17 19 22 21 21 21 20 20 25 24 23 23 23 22 20 20 20 20 20 22 23 23 22 23 23 24 25 25 26 27
14 5 2 5 10 8 12 1 8 14 10 13 16 13 8 7 11 14 13 13 16 17 18 18 19 22 19 18 21 23 23 25 25 24 24 22 23 25 26 27 27 26 25 26 26 26 28 29 31
8 5 6 2 5 4 6 7 4 13 14 7 15 13 8 9 11 11 10 14 16 18 19 19 19 19 17 18 21 21 23 23 24 24 24 23 24 23 23 27 28 28 27 29 28 27 27 29 29
8 7 4 2 2 9 6 10 13 9 18 17 18 16 12 5 5 7 7 9 12 14 14 15 14 16 19 21 20 18 16 19 25 25 26 25 24 24 24 26 27 25 27 27 28 28 27 27 26
3 8 5 6 4 2 5 5 8 12 7 9 16 14 9 7 9 7 10 13 11 11 11 11 10 9 9 10 12 14 14 15 14 13 14 15 18 20 21 23 24 25 25 26 26 25 25 23 20
3 5 6 8 6 4 1 4 10 15 14 10 16 15 11 9 6 5 9 12 15 13 11 10 9 7 6 6 6 7 8 9 7 9 10 11 11 12 12 14 16 19 20 22 24 24 25 24 18
3 5 5 3 5 4 1 0 6 5 13 27 18 10 9 10 9 10 14 17 13 13 12 11 9 7 5 3 3 3 3 3 5 6 8 10 10 12 12 13 14 16 19 21 23 25 24 22 22
8 6 7 5 3 2 6 6 7 7 8 7 6 12 12 10 11 9 15 14 14 13 12 11 9 8 5 3 2 0 1 3 6 7 7 7 8 7 8 9 11 12 14 17 21 21 20 20 21
3 5 2 2 1 4 4 5 10 1 4 5 8 8 9 8 8 7 10 16 16 15 13 12 10 9 6 4 2 1 3 5 6 7 8 8 7 7 8 9 9 9 10 11 12 15 18 18 19
4 4 4 5 4 3 3 7 6 5 5 6 8 8 4 7 8 13 14 21 19 17 14 13 10 8 5 2 1 3 4 5 5 5 3 4 5 7 9 10 10 10 10 9 8 7 9 10 11
3 2 3 6 3 3 4 7 8 8 7 5 9 6 7 7 8 8 10 18 18 16 13 11 9 7 4 2 1 3 4 4 5 4 3 2 3 6 8 8 8 8 7 6 4 3 2 2 2
3 6 3 3 3 4 4 5 6 7 10 8 7 7 6 6 7 8 10 17 16 15 14 11 8 5 2 0 0 1 0 1 2 3 2 0 3 4 5 4 4 3 3 1 2 3 2 5 1
2 2 4 3 4 4 2 5 6 5 7 10 9 7 7 7 8 7 9 15 16 14 13 11 8 4 2 2 1 2 2 2 2 2 1 1 3 3 3 3 3 4 4 5 5 6 6 6 6
3 5 5 4 5 1 2 8 4 6 8 8 8 4 7 7 7 7 12 16 15 14 12 9 7 4 2 2 2 2 2 3 2 2 1 1 1 1 1 2 3 4 5 5 6 8 9 8 8

GFSSGP_925_spd_057.txt.gz
Wind_Speed
6 5 2 3 2 2 2 4 1 3 2 1 2 2 3 2 4 3 3 15 24 29 24 23 21 20 18 16 16 14 13 11 10 8 8 10 14 14 13 13 13 12 13 12 12 12 13 13 14
3 1 1 2 3 3 3 2 1 2 5 3 2 1 1 2 1 4 14 13 25 27 24 22 21 19 18 17 16 15 14 11 8 7 9 11 15 13 12 12 12 13 13 12 12 12 12 12 11
1 1 1 4 3 5 3 3 2 4 7 4 1 2 2 1 1 12 6 21 26 25 23 23 21 19 18 17 17 15 14 9 7 6 9 12 13 13 12 10 11 12 13 12 12 12 12 11 10
4 2 2 3 6 4 4 1 2 7 2 3 1 2 1 3 3 3 16 23 26 25 24 23 21 20 18 17 17 16 12 9 6 8 11 11 13 12 11 6 10 10 12 12 12 12 11 10 9
5 1 2 3 5 4 3 1 1 4 4 3 1 2 2 5 2 10 20 24 23 24 24 22 20 20 18 18 17 15 12 8 8 11 12 12 13 13 9 6 8 9 10 10 10 10 9 8 8
2 0 3 6 5 2 2 1 3 4 4 4 2 2 1 1 5 15 19 23 19 24 22 20 20 19 19 18 17 13 10 9 7 13 12 12 12 11 8 6 7 8 8 8 8 8 7 6 5
6 3 3 5 8 4 3 2 4 3 5 5 5 1 2 2 7 15 21 22 20 23 22 20 19 18 18 18 17 12 9 8 7 9 15 13 11 9 7 4 5 6 6 6 6 6 5 4 3
4 2 5 3 8 5 3 2 4 5 4 6 5 6 3 7 8 14 18 19 21 23 22 20 20 19 17 17 15 10 8 7 5 6 11 13 11 10 8 7 4 4 4 5 5 4 3 3 2
4 2 8 8 7 5 3 3 2 1 5 8 5 6 9 4 10 13 15 17 20 20 20 20 20 19 18 17 15 12 9 7 5 5 6 8 9 10 9 7 6 4 4 4 3 3 2 3 3
5 7 8 6 5 6 3 3 1 3 3 3 4 15 19 6 2 9 13 12 14 17 19 18 18 19 18 17 17 13 10 9 7 5 4 5 5 7 7 7 6 6 5 4 3 3 3 3 3
5 17 15 10 7 7 5 2 1 2 2 3 4 11 16 7 4 5 11 18 21 20 20 20 18 20 18 18 17 16 13 12 9 8 6 5 5 6 7 7 7 8 8 7 6 5 5 4 4
9 5 12 1 7 6 7 4 2 3 3 6 3 4 8 10 7 9 10 17 19 21 20 18 18 19 19 18 17 18 16 14 12 11 10 9 7 7 7 7 8 8 9 8 8 8 8 7 7
5 5 11 10 7 8 6 4 5 11 5 1 3 7 9 12 8 11 14 15 20 22 22 20 19 20 20 18 17 16 16 15 13 13 13 12 11 9 7 8 9 10 10 10 10 10 10 10 10
8 5 7 9 8 7 7 1 1 7 5 4 5 6 6 8 9 8 14 16 22 22 22 20 20 20 20 18 17 16 16 15 14 14 15 15 14 12 11 10 10 12 12 11 11 11 11 11 11
4 7 4 3 8 5 4 4 16 4 2 6 8 7 8 9 10 10 13 16 22 23 21 20 20 20 21 19 17 16 16 16 16 16 15 16 15 15 15 14 13 13 13 13 14 15 15 14 14
5 5 5 7 7 4 11 21 16 5 2 10 7 8 8 12 9 9 12 17 19 22 22 19 20 20 20 19 18 17 16 16 16 16 15 15 15 15 17 18 17 15 15 16 17 17 18 19 18
2 6 6 3 10 5 12 3 6 9 9 14 14 9 8 12 13 11 7 12 17 21 21 20 21 20 19 19 19 18 18 18 17 16 16 15 16 16 17 19 19 17 18 19 19 20 20 20 20
10 7 4 5 9 8 12 3 1 5 10 14 8 10 11 12 14 13 6 7 12 17 21 19 18 18 16 15 18 20 20 21 21 21 20 18 19 19 20 22 23 22 22 23 23 23 22 23 22
9 9 8 3 8 7 9 9 4 6 7 7 9 11 9 11 13 12 10 10 11 14 18 18 19 19 19 18 17 18 22 22 22 22 22 21 21 20 20 22 23 24 25 25 24 23 23 23 23
11 8 3 2 5 5 6 10 11 8 11 12 13 18 17 9 5 6 10 11 12 15 16 18 19 18 18 19 18 17 15 18 22 20 20 21 22 24 25 25 25 25 24 24 24 24 18 19 21
3 11 5 5 5 1 5 6 9 7 8 11 12 13 12 10 8 5 9 11 12 13 13 13 13 16 18 20 19 16 14 13 12 12 12 13 16 19 21 22 23 24 24 25 25 25 23 16 17
3 7 7 9 4 3 2 4 8 13 9 14 19 20 15 9 3 4 9 12 13 11 11 12 12 12 11 11 12 12 11 9 8 7 9 10 12 12 12 13 15 17 18 19 21 21 22 20 16
3 6 5 4 5 3 1 2 4 4 15 20 12 14 11 11 10 9 13 19 15 13 12 12 13 11 9 8 8 7 7 6 6 6 6 7 7 8 9 11 13 14 14 15 17 19 19 21 21
8 6 7 4 3 2 5 6 3 4 6 5 10 15 14 16 13 12 16 18 18 15 14 13 13 11 9 7 6 5 4 4 4 5 6 6 6 5 5 5 7 8 9 10 13 15 17 19 20
4 6 3 2 2 4 1 3 8 5 5 6 8 9 11 9 6 9 10 17 22 21 18 16 14 12 9 6 4 3 2 3 5 6 7 7 6 6 8 9 9 9 9 9 8 10 14 16 19
3 4 4 5 4 3 1 6 4 6 5 5 6 7 5 5 6 9 15 20 19 26 22 18 15 13 9 6 4 3 4 5 6 6 6 5 5 6 8 9 10 11 11 10 8 7 9 10 13
3 2 4 6 2 1 3 4 9 6 7 4 7 6 8 8 7 9 13 17 22 21 20 17 15 12 9 6 4 4 4 5 6 6 6 5 4 5 7 8 8 8 8 7 5 5 5 4 4
3 5 2 2 3 4 2 3 5 3 2 6 8 10 7 6 4 7 12 16 21 21 18 15 11 9 7 5 3 4 3 4 5 6 6 4 3 3 4 4 4 4 3 3 3 4 4 5 3
3 1 4 3 3 3 1 4 6 5 3 6 9 9 8 5 6 8 11 16 17 17 17 14 11 9 6 5 5 5 5 5 5 5 5 4 3 2 2 2 1 2 2 2 3 4 5 5 4
2 3 4 4 4 0 1 6 3 5 6 4 8 7 3 3 7 8 13 16 15 15 14 12 10 8 6 5 5 6 6 6 7 7 6 4 3 2 1 0 1 2 3 5 6 7 8 8 7

GFSSGP_925_spd_060.txt.gz
Wind_Speed
4 3 1 2 5 5 12 7 0 5 5 1 4 5 1 6 4 2 8 12 21 26 23 22 22 19 16 15 14 13 11 9 9 8 10 14 13 14 13 13 12 12 13 12 13 14 15 14 14
4 2 2 1 7 11 11 6 8 4 2 4 3 4 5 4 3 5 13 10 22 25 24 22 21 19 17 15 14 13 11 9 7 8 10 14 13 12 12 12 12 12 12 12 12 13 13 12 12
4 3 4 4 8 14 11 8 5 3 2 6 4 2 1 3 4 10 3 16 24 23 23 22 22 20 19 16 14 13 11 7 6 8 10 13 12 11 11 11 12 12 12 12 13 12 12 12 12
8 4 2 7 15 12 6 7 2 2 4 6 2 5 4 5 2 1 14 21 24 21 21 21 21 20 18 17 16 13 9 6 5 9 12 11 11 11 7 9 11 12 12 12 12 12 12 11 10
8 4 9 11 14 10 7 6 2 3 3 3 1 4 3 5 5 6 17 20 22 20 19 20 21 20 18 17 16 14 9 7 9 11 9 12 12 10 5 7 9 10 10 11 11 10 10 9 9
7 5 12 15 16 8 5 5 3 3 3 3 4 2 6 6 5 9 14 20 19 19 19 18 19 18 18 18 16 13 9 8 13 12 13 11 13 9 6 5 7 8 8 9 8 7 7 7 7
12 12 16 18 14 9 7 3 3 7 6 6 3 2 4 12 5 7 12 18 18 17 17 18 17 17 17 17 15 12 10 8 12 13 15 11 9 6 4 3 5 6 6 6 6 5 4 3 3
14 11 15 12 15 8 9 5 2 0 7 3 4 3 3 9 2 8 12 14 16 18 17 17 16 16 16 16 15 12 9 8 10 13 12 12 10 9 6 5 3 4 4 4 4 3 2 1 1
9 8 14 14 17 10 8 6 1 2 12 14 6 6 5 4 5 9 12 11 14 17 16 16 16 16 16 16 15 11 8 7 8 9 11 9 6 6 5 7 5 4 4 4 3 2 2 1 2
11 11 21 17 5 11 6 8 7 5 9 11 11 12 11 5 4 8 10 13 15 17 16 16 15 15 15 14 15 14 10 7 7 7 8 7 6 6 7 6 6 5 5 4 4 3 2 1 3
17 15 20 18 11 7 7 6 3 8 6 7 8 9 13 7 4 3 11 13 17 17 15 15 14 14 14 14 14 15 12 8 7 7 7 6 6 5 5 5 5 5 6 5 4 3 3 3 3
12 20 17 16 7 6 5 5 2 3 4 6 3 4 8 10 1 7 9 12 14 16 16 16 15 16 16 14 14 14 12 10 9 8 7 6 5 5 5 5 6 6 6 6 6 5 5 5 5
13 19 12 16 10 13 13 9 8 10 7 4 2 1 4 8 8 5 9 10 11 14 16 15 15 16 17 16 14 13 13 12 9 9 9 8 7 6 5 6 7 7 7 7 6 6 7 7 7
18 9 13 12 8 6 10 9 7 15 6 6 4 3 2 4 7 4 9 12 12 14 15 14 14 15 16 16 14 13 13 12 11 10 10 10 8 7 7 7 7 8 8 7 7 7 7 7 8
10 19 14 10 16 6 11 13 17 22 12 9 9 7 5 5 3 6 6 11 13 16 15 15 14 14 16 17 15 13 12 12 11 10 10 10 10 9 9 9 8 8 8 8 9 9 9 10 10
14 15 11 15 21 12 16 21 20 14 12 15 14 12 7 7 6 6 6 9 11 14 15 14 13 14 15 15 14 13 12 12 11 10 9 10 11 11 10 10 10 9 8 8 10 10 11 11 12
14 15 22 13 18 11 19 11 4 10 16 15 14 16 12 10 8 7 7 7 10 13 15 15 15 15 15 15 13 13 11 11 10 10 10 10 11 11 12 11 11 10 10 11 11 12 12 13 13
18 15 20 14 13 14 16 11 3 9 14 14 15 15 14 14 11 8 7 6 9 11 14 14 14 16 16 14 14 13 12 12 13 12 12 11 11 12 13 13 13 12 13 13 14 14 14 15 15
15 11 16 13 11 15 13 13 14 5 10 12 12 12 16 15 12 6 7 8 7 9 12 15 15 15 15 14 12 12 14 14 14 14 13 13 14 13 14 14 14 13 15 16 16 16 16 17 15
17 17 14 6 11 13 14 16 15 14 11 12 14 16 18 16 11 10 9 9 9 8 10 12 13 16 18 15 14 12 10 11 11 10 11 12 13 14 14 15 16 16 16 17 17 17 17 15 13
16 18 14 11 10 3 6 13 18 16 15 13 18 18 15 14 16 10 10 9 8 8 9 11 14 14 14 14 12 10 10 10 7 8 7 8 11 12 15 16 16 17 17 19 18 16 15 16 14
13 9 12 15 11 5 9 4 11 16 17 21 18 17 17 11 5 5 7 8 9 8 9 9 11 13 15 16 14 14 13 12 8 8 9 10 11 12 12 12 13 16 17 19 20 21 20 20 17
4 12 11 9 7 3 8 5 9 5 18 19 15 17 17 17 12 11 13 13 10 10 12 11 9 9 11 11 10 9 7 6 6 6 5 6 7 9 10 11 12 12 11 14 14 13 15 17 17
14 14 11 6 4 5 11 10 4 5 6 8 10 15 17 17 17 16 16 11 12 12 12 13 12 10 11 10 10 8 8 6 5 4 5 5 5 6 7 8 8 9 9 9 10 12 14 16 17
9 16 5 5 4 4 2 8 9 4 4 5 4 6 9 15 17 17 17 17 18 17 17 16 15 13 11 10 8 7 7 6 5 5 6 6 6 5 6 9 9 10 11 12 10 11 13 14 17
14 10 3 6 5 4 2 6 0 4 6 9 8 10 9 10 9 12 14 18 19 18 18 16 16 13 10 9 7 6 5 5 5 5 5 5 5 5 7 8 9 10 11 11 10 10 11 13 14
6 5 3 4 2 2 4 2 11 10 6 8 6 6 8 8 10 10 7 14 17 20 20 17 14 12 10 8 6 5 4 5 5 6 6 5 6 6 7 7 8 9 9 9 8 7 7 8 7
4 9 3 1 4 4 3 4 3 8 8 3 8 9 8 8 8 7 8 12 15 17 17 16 14 12 10 8 6 5 4 5 5 6 5 6 6 6 6 6 6 6 6 6 4 7 7 6 4
4 4 1 1 2 2 2 2 2 4 4 6 7 9 10 10 5 4 6 12 15 16 13 13 12 11 8 6 4 4 4 4 5 5 5 5 6 5 5 5 5 4 3 3 0 4 6 5 3
3 7 12 6 5 2 3 4 4 4 4 3 5 8 6 5 3 3 7 13 16 15 15 13 11 10 8 6 5 4 4 4 5 5 5 5 4 4 5 5 4 3 3 1 2 3 4 4 5

GFSSGP_925_spd_063.txt.gz
Wind_Speed
7 6 5 5 5 7 15 15 4 13 8 1 4 6 9 12 3 3 15 11 23 24 23 22 21 18 17 14 13 11 10 9 8 9 12 13 14 13 13 13 13 13 13 13 13 13 14 14 14
9 7 6 4 7 13 13 18 11 10 10 2 1 3 1 10 13 10 14 15 23 24 22 21 21 18 17 15 14 12 10 9 9 10 13 13 14 13 13 13 12 12 12 13 13 13 12 13 12
7 10 6 5 9 16 15 18 11 6 4 3 3 3 4 6 9 14 12 18 24 22 22 21 21 19 18 16 13 11 9 8 8 11 12 12 13 11 12 13 12 12 12 12 12 12 12 12 11
8 7 6 11 18 22 16 10 10 7 6 11 1 6 7 9 3 4 14 20 22 21 20 20 19 18 17 16 14 12 8 7 9 10 13 12 11 11 10 12 12 12 12 11 11 11 11 11 11
10 8 10 15 21 20 8 8 8 11 7 9 8 1 4 8 5 8 16 21 20 20 20 20 18 17 15 16 15 12 9 8 11 11 12 12 11 9 7 11 11 11 11 11 10 10 9 10 10
8 8 13 18 22 19 10 7 8 10 7 7 6 14 6 8 6 12 14 19 18 19 17 19 18 16 15 15 14 11 9 10 14 11 10 12 12 6 5 9 9 9 9 8 8 7 7 7 7
16 11 18 22 20 13 9 5 8 9 10 5 2 8 7 10 3 10 13 16 17 17 18 17 17 17 16 15 13 11 10 13 13 15 12 12 9 5 3 6 7 7 6 6 6 5 4 4 5
14 13 22 16 16 13 13 6 1 4 5 5 4 3 8 8 3 9 7 17 16 17 16 17 17 17 15 14 13 10 9 11 13 13 13 12 11 8 5 5 6 5 4 4 4 3 2 2 1
19 5 16 20 19 14 12 9 2 1 7 4 6 6 4 7 8 12 11 10 10 13 16 15 16 17 17 16 14 10 7 9 10 11 10 8 6 6 3 6 4 4 4 4 3 2 0 0 1
12 14 20 18 15 16 14 12 8 8 10 13 12 11 8 10 6 11 17 15 17 17 16 17 15 16 17 15 15 11 8 7 7 7 9 7 7 7 6 6 6 5 5 5 4 2 1 1 2
17 18 20 21 5 10 11 9 6 13 11 10 9 9 9 10 7 7 7 13 16 16 15 16 16 16 14 15 15 11 10 8 8 8 8 7 7 5 7 4 4 4 4 4 4 3 1 4 3
11 22 21 11 8 12 12 9 6 5 10 8 6 5 8 8 8 7 5 10 15 17 18 16 16 15 15 12 14 11 11 9 9 8 8 7 7 6 6 6 5 6 6 6 6 5 5 5 5
20 13 19 19 17 15 9 6 4 7 6 6 1 1 3 6 5 10 8 5 7 12 13 15 14 14 14 14 14 13 13 11 10 9 9 8 7 6 6 6 6 7 6 6 6 6 6 6 6
18 10 15 20 13 12 14 17 13 11 10 5 4 3 1 4 5 6 12 11 10 10 13 13 15 15 15 15 13 14 11 10 10 10 10 10 8 7 6 6 6 7 7 7 7 7 7 7 7
11 16 16 14 8 16 17 13 15 21 12 9 8 7 5 4 2 3 7 14 15 14 13 14 15 14 14 16 14 13 11 10 11 11 10 10 10 9 8 7 7 7 7 8 8 8 9 9 8
23 21 4 16 20 9 8 18 21 19 17 22 12 12 9 7 7 3 2 8 13 14 16 14 13 13 14 15 14 12 11 11 11 11 10 11 10 10 8 8 8 8 8 8 8 9 9 9 10
19 16 15 8 12 9 14 9 12 4 16 22 17 17 15 12 10 7 4 6 11 14 16 16 15 14 14 13 12 12 11 11 11 11 10 10 10 10 10 9 8 9 9 10 10 10 11 11 12
23 21 20 13 15 14 16 12 7 14 17 19 22 21 17 17 14 12 7 5 8 12 15 16 16 15 15 13 13 13 12 13 13 12 11 10 10 10 11 10 10 10 12 12 13 14 14 14 15
18 19 16 19 13 18 13 15 18 8 12 15 16 17 21 18 15 13 10 7 7 10 15 16 16 16 15 15 14 15 15 14 14 13 12 11 11 11 11 11 12 13 14 14 15 15 16 17 16
15 16 10 10 10 11 14 18 21 18 15 11 16 15 19 20 15 16 12 11 9 10 13 15 17 15 16 15 15 14 14 14 13 12 11 11 11 12 12 13 14 14 15 16 17 17 17 17 14
14 16 15 12 7 12 11 18 17 17 17 14 14 13 12 8 14 16 14 13 10 10 11 14 14 14 15 15 13 12 8 7 7 9 9 9 9 10 14 16 18 18 19 20 21 19 15 15 16
13 13 9 9 12 9 14 6 19 20 18 18 15 13 13 12 5 10 15 14 12 12 10 10 13 14 13 13 13 12 12 11 11 8 8 9 10 10 10 10 10 13 15 17 19 21 18 18 16
12 9 12 12 15 2 10 6 10 8 16 17 16 15 14 10 13 10 9 11 13 12 11 10 9 11 13 14 14 13 13 10 7 7 7 6 6 7 9 10 11 12 11 11 12 12 12 15 17
13 13 10 6 7 5 14 12 8 9 8 10 12 15 15 15 14 14 18 17 13 14 14 13 12 11 11 11 11 12 11 10 8 8 6 6 5 5 7 8 8 8 8 8 9 10 11 12 14
16 17 6 5 4 6 1 9 3 3 2 2 3 2 6 10 13 14 15 17 16 15 14 16 15 14 11 13 12 9 8 9 8 6 6 6 6 6 6 9 8 8 9 11 11 11 11 13 15
15 14 4 6 6 8 5 6 2 3 3 4 4 5 6 7 7 6 9 8 17 17 17 15 18 16 14 11 9 7 6 5 4 4 4 5 5 5 7 8 8 9 10 11 11 11 12 13 14
10 6 3 2 3 0 7 4 9 7 6 4 2 1 3 5 7 9 6 5 13 15 17 18 15 14 16 12 10 7 5 4 3 3 4 4 5 5 6 7 8 9 10 9 9 9 11 10 8
4 8 3 1 3 4 4 3 3 11 9 6 7 8 8 6 5 5 6 7 10 11 12 13 16 16 13 12 10 8 5 3 3 3 4 4 4 4 4 5 6 7 8 7 6 7 9 9 8
4 4 3 2 3 3 1 5 7 12 10 3 5 7 9 10 6 3 3 6 8 11 15 16 15 14 13 12 9 7 5 3 3 3 4 4 4 4 4 5 5 5 6 5 3 4 7 8 7
10 11 13 5 4 3 4 2 6 3 3 1 2 7 10 8 8 3 2 6 9 12 14 15 15 15 14 11 9 8 7 5 4 4 4 4 4 4 5 5 5 4 4 4 2 2 0 2 1

GFSSGP_925_spd_066.txt.gz
Wind_Speed
8 7 6 2 3 4 10 8 13 21 9 7 6 4 0 12 7 8 29 23 32 27 26 24 22 20 17 16 15 13 12 11 13 17 17 17 16 16 16 17 16 16 16 16 16 16 16 16 16
9 10 5 3 3 8 10 12 7 8 5 6 4 3 2 6 10 8 8 28 28 29 25 22 22 21 18 17 15 13 11 11 14 16 16 16 16 16 16 16 15 15 16 15 15 15 15 14 14
9 12 3 4 4 11 9 11 7 5 12 2 3 8 6 5 8 5 15 28 29 26 24 21 21 20 19 17 14 13 11 11 14 16 15 15 14 15 16 16 15 16 15 15 14 14 14 14 13
8 5 4 7 12 15 19 8 6 9 5 5 6 10 5 9 9 8 15 26 29 24 26 21 19 19 18 16 15 13 11 12 14 16 15 14 14 13 14 15 15 16 15 14 14 13 13 13 13
13 4 6 10 17 14 18 3 8 10 8 7 9 6 5 5 11 10 13 23 26 27 24 22 18 17 16 16 15 12 11 12 14 16 15 13 12 12 12 14 14 15 14 14 13 12 12 11 11
5 7 8 13 17 17 8 8 4 5 7 5 7 10 5 2 9 9 12 20 24 26 23 22 18 15 15 15 14 11 11 15 14 14 14 13 11 9 10 12 12 13 12 12 11 10 9 9 8
10 9 11 15 13 15 6 8 3 6 5 6 6 10 4 4 6 10 8 17 23 26 24 21 19 16 15 14 13 11 13 14 13 16 13 15 8 5 7 9 10 9 10 9 9 7 6 6 6
7 9 17 9 15 17 8 6 4 4 6 4 6 4 5 2 11 13 10 13 20 29 23 19 18 17 17 15 12 12 13 13 16 15 16 14 11 5 5 8 8 7 7 6 6 5 4 3 3
14 9 14 19 17 7 10 5 1 6 5 6 6 7 12 12 22 12 5 16 21 24 23 22 19 18 16 15 13 11 11 12 13 13 12 10 6 5 2 6 5 5 5 5 4 3 2 2 4
12 14 14 19 15 5 10 8 6 3 9 8 11 10 14 12 11 11 7 11 16 19 22 19 21 19 21 16 15 10 7 9 10 10 10 9 9 7 8 4 4 4 4 4 2 1 1 4 3
9 14 15 16 5 12 10 9 6 9 8 9 9 11 11 10 7 11 15 9 14 17 20 19 22 20 20 19 16 14 8 8 8 10 8 7 9 7 5 3 4 4 4 3 1 1 3 2 2
6 20 17 13 4 5 9 7 6 6 7 9 7 7 11 10 6 7 11 16 14 17 21 19 20 21 19 19 19 15 13 11 11 11 8 10 8 6 5 7 1 0 3 3 6 4 3 3 5
16 15 16 12 5 9 12 8 6 9 9 7 5 2 9 10 13 9 6 5 11 19 22 22 21 21 20 18 18 14 14 14 12 13 11 8 8 6 7 7 7 7 6 4 6 5 6 7 6
13 15 15 11 18 21 10 5 5 7 9 7 7 2 6 8 8 17 13 8 8 11 12 20 18 18 17 17 16 16 11 16 13 12 12 11 8 7 8 7 8 8 8 7 7 7 7 7 8
10 17 4 5 6 10 8 10 11 8 8 5 8 5 4 6 9 10 19 16 12 12 12 16 17 18 16 20 17 17 15 14 14 13 12 11 11 8 8 8 8 7 7 8 8 8 9 9 10
22 14 8 5 2 8 12 19 14 10 2 8 7 7 6 8 8 12 7 17 19 16 17 18 18 18 16 18 18 19 13 13 9 11 11 12 12 11 10 9 9 8 8 8 8 9 9 10 11
17 7 16 3 1 3 5 5 15 9 8 12 11 8 7 7 11 13 14 13 14 16 18 18 18 19 18 17 19 17 15 10 13 11 12 11 12 12 12 10 9 9 9 9 9 10 11 12 12
19 10 7 11 5 14 11 7 12 8 13 14 12 13 11 8 8 18 15 14 16 17 19 20 18 18 17 17 13 17 13 15 15 14 13 13 12 12 12 11 10 9 10 11 11 12 13 15 15
12 15 10 8 12 10 16 12 6 7 13 16 12 12 15 17 13 23 20 16 12 15 18 22 21 20 19 18 17 14 16 14 15 14 14 13 13 12 12 12 11 10 12 12 12 13 15 17 17
17 18 17 16 12 9 8 7 8 8 9 9 8 9 12 13 14 13 21 19 18 16 16 21 23 21 21 21 19 19 15 17 16 16 13 14 15 14 11 11 12 12 12 14 15 15 16 17 16
13 13 7 11 12 12 8 7 12 14 13 9 7 7 6 4 12 10 16 22 20 18 17 16 21 22 21 19 18 16 14 15 16 13 15 12 11 12 13 14 14 16 17 18 18 18 18 18 19
8 9 19 15 6 4 7 3 13 15 15 12 10 7 6 6 5 9 9 15 19 19 20 16 13 18 21 22 19 21 20 13 12 13 15 16 15 14 15 16 15 16 16 17 20 21 19 18 15
5 7 8 9 5 3 7 2 6 12 9 8 9 8 9 8 6 2 9 16 15 16 20 22 21 17 15 19 21 20 17 12 12 15 14 11 11 9 9 10 10 11 12 12 12 13 13 14 15
8 11 10 6 1 2 3 4 6 4 8 7 11 10 9 9 8 6 16 14 14 16 14 15 19 20 22 20 18 18 18 15 12 11 8 7 6 6 7 8 7 8 9 10 10 9 10 11 12
10 8 3 3 3 2 5 5 7 6 5 7 7 6 2 5 8 9 9 15 17 18 16 16 18 19 19 18 17 16 15 14 11 9 7 7 6 7 7 9 8 8 9 11 11 12 12 12 12
9 5 4 4 4 3 3 3 4 5 7 7 8 4 3 4 4 1 4 1 19 25 21 18 18 18 17 17 16 18 17 14 10 10 10 8 7 6 9 10 8 8 10 11 11 11 12 11 13
7 1 3 3 2 4 4 5 1 6 6 7 7 9 8 8 7 6 4 2 2 18 21 22 21 19 20 19 18 17 17 16 12 10 8 9 11 11 11 8 7 8 9 9 9 9 8 7 9
4 2 2 3 2 3 3 5 3 8 7 8 9 8 7 7 7 5 5 2 5 7 20 18 18 19 20 20 19 18 20 17 13 9 8 8 8 8 7 7 7 7 8 7 7 7 8 9 10
3 1 2 1 3 1 2 1 5 9 8 9 9 5 5 5 4 4 4 3 3 4 13 16 18 19 18 17 16 15 11 13 12 10 11 10 9 9 7 7 7 7 7 5 3 5 7 7 8
6 4 3 3 3 0 3 3 2 9 8 3 7 2 4 6 5 2 2 3 5 5 11 13 15 20 18 16 15 14 11 9 9 9 9 8 6 8 8 7 6 6 6 5 3 3 2 5 4

GFSSGP_925_spd_069.txt.gz
Wind_Speed
11 7 8 3 2 3 4 6 2 9 7 15 2 7 7 7 4 1 19 21 34 37 32 26 23 21 19 19 18 16 16 17 23 20 19 18 19 19 18 18 19 21 20 19 17 16 17 19 20
12 9 5 0 3 3 5 7 8 8 7 10 11 9 7 3 1 5 12 28 35 36 32 28 24 22 20 19 17 15 16 20 18 20 18 18 19 19 19 18 18 17 17 17 16 16 17 19 19
12 8 3 4 4 6 5 9 9 10 10 6 7 5 3 3 5 5 26 29 35 33 30 27 23 21 20 18 16 16 16 20 19 18 18 18 18 18 19 18 18 18 17 16 16 17 17 19 18
3 2 4 3 11 7 4 4 8 8 6 5 12 7 3 4 3 7 30 27 29 29 27 25 23 21 19 17 16 16 18 19 19 18 16 17 18 18 18 18 19 17 16 15 16 16 17 18 17
4 1 3 4 9 3 10 7 7 3 4 9 7 11 12 5 2 6 27 27 30 27 26 24 22 21 18 17 16 14 17 19 19 18 15 16 15 17 17 17 17 16 15 15 14 15 15 15 14
3 3 4 8 8 9 5 8 4 3 4 6 8 9 5 8 17 4 8 27 29 29 26 23 21 20 19 17 14 13 17 19 19 18 15 15 13 14 16 16 16 15 14 13 12 12 12 11 11
4 4 6 10 3 7 4 5 3 3 3 4 5 6 5 2 22 10 11 23 31 28 26 23 21 20 18 15 14 15 18 18 19 17 13 13 11 11 13 14 14 13 12 11 10 9 9 9 8
4 4 4 5 8 6 7 3 4 3 1 2 3 6 5 7 28 20 5 21 27 27 26 24 21 21 20 17 14 16 15 15 18 18 16 13 9 9 11 11 11 10 10 9 8 7 6 7 6
2 5 10 8 5 3 5 5 0 0 5 5 4 3 10 25 29 29 5 24 27 25 25 23 21 21 20 18 15 15 16 16 16 17 16 12 7 6 8 10 8 7 7 6 6 5 5 5 6
6 7 13 8 5 2 4 6 7 4 6 5 7 9 14 17 20 28 22 10 23 24 26 22 22 21 20 19 16 14 14 16 15 15 14 10 8 6 7 6 5 6 6 5 4 3 4 5 3
6 11 9 3 4 6 9 4 5 9 2 4 10 9 8 15 9 11 22 27 26 27 25 22 23 21 21 21 19 14 13 14 13 13 13 11 8 12 7 3 4 6 6 6 5 4 4 2 1
5 12 15 6 3 3 6 6 5 2 5 8 10 11 4 9 7 11 16 20 29 34 30 26 25 20 22 22 19 16 14 13 14 11 13 12 13 6 8 6 4 5 5 6 5 3 4 3 3
15 5 13 12 5 3 8 6 6 8 7 8 9 9 7 6 8 9 13 19 25 24 27 28 29 24 22 22 20 19 15 16 16 15 13 16 11 9 9 8 8 5 4 5 5 4 4 7 6
8 17 8 9 11 3 3 0 5 7 7 8 7 9 9 7 12 11 10 13 14 23 25 26 27 24 24 22 20 17 15 16 19 17 16 14 11 10 12 10 9 8 7 7 7 7 7 7 7
10 8 8 7 10 5 2 3 3 7 8 10 7 7 8 8 17 16 19 15 15 16 24 26 28 28 24 23 21 18 15 18 17 19 17 16 13 12 10 11 11 11 11 10 9 8 8 7 8
9 5 10 3 10 7 1 5 10 8 7 7 7 7 8 8 14 23 18 20 17 18 21 25 24 24 21 23 22 19 19 15 19 20 18 17 16 15 13 13 11 11 10 9 10 10 10 9 9
5 7 15 5 1 6 6 7 18 10 8 7 5 6 5 7 9 18 22 22 21 21 21 24 24 23 23 22 23 22 20 13 15 15 17 18 16 15 15 14 12 12 11 10 10 8 9 10 11
11 8 12 5 6 5 7 8 11 11 7 9 9 9 8 6 8 21 21 23 23 23 21 23 23 23 22 24 23 23 18 13 15 16 14 16 16 15 14 14 13 12 12 11 10 10 11 12 13
10 16 8 7 9 5 3 10 15 7 6 9 8 8 8 8 9 21 23 22 23 24 24 26 24 25 25 24 22 24 21 18 19 17 15 17 16 14 15 15 13 12 13 12 11 11 11 14 15
11 11 8 5 11 4 9 7 13 13 7 8 9 9 8 6 9 14 24 26 26 29 26 24 29 29 29 27 25 25 25 21 19 19 17 16 16 15 17 16 15 15 13 13 14 14 16 16 16
10 13 9 5 8 2 7 2 14 18 7 6 7 8 7 8 9 10 20 27 26 26 29 29 29 27 27 28 27 21 22 20 20 20 19 16 18 16 14 15 15 16 16 16 15 16 18 18 19
3 11 17 14 7 3 6 3 16 17 9 8 8 8 8 8 3 5 17 20 26 25 23 25 30 27 29 27 27 28 27 21 25 24 22 19 17 17 16 17 17 17 18 19 19 19 19 18 17
4 18 19 19 10 3 9 1 4 13 11 12 11 10 9 8 6 6 9 19 25 22 19 20 23 28 29 28 28 28 26 23 18 19 19 20 18 18 18 16 16 14 14 13 13 13 12 13 14
8 16 8 5 5 2 5 5 5 4 15 6 9 9 10 8 7 7 15 22 20 16 14 14 14 17 20 26 28 25 26 20 19 20 20 19 16 14 12 10 10 10 9 10 10 11 10 10 11
17 7 3 3 3 3 2 4 6 4 5 6 7 6 3 2 4 6 9 12 16 18 20 19 18 19 19 18 23 22 22 20 20 20 18 18 17 14 11 11 9 8 9 9 10 11 12 12 12
3 4 4 5 4 3 1 5 3 1 6 8 8 7 8 8 7 6 5 5 10 22 24 22 21 21 20 19 19 19 20 22 22 20 17 15 13 14 13 12 8 10 9 10 11 12 12 12 12
3 4 3 5 2 4 2 3 3 3 5 9 9 10 8 8 7 7 7 4 1 16 21 22 21 19 16 18 18 20 18 19 20 20 20 21 16 13 12 11 11 10 9 10 11 11 10 10 10
5 1 3 3 3 3 3 4 3 5 7 8 8 8 7 7 7 7 7 7 2 4 16 19 18 19 19 16 18 20 22 21 18 18 20 20 15 13 12 10 9 8 8 9 9 9 9 9 9
4 3 2 3 3 3 3 3 5 7 8 10 8 6 6 5 4 2 1 5 6 7 10 17 17 18 18 19 19 17 16 14 12 12 12 11 13 11 9 7 8 8 8 8 8 10 11 10 10
1 1 3 2 3 2 3 3 4 8 8 9 8 8 4 2 2 2 2 1 3 5 5 11 14 18 20 19 17 16 14 14 14 12 11 9 7 7 7 7 7 8 9 7 8 9 9 9 8

GFSSGP_925_spd_072.txt.gz
Wind_Speed
17 13 8 2 2 3 5 6 4 5 4 5 6 2 5 3 4 2 11 14 30 33 30 27 24 23 22 21 18 17 20 21 17 18 18 18 18 18 18 21 21 19 18 18 18 18 19 21 21
15 11 3 1 3 4 5 8 6 6 11 14 5 3 6 4 5 7 7 21 36 33 30 27 25 22 22 20 18 18 22 20 19 18 19 20 19 19 18 19 18 18 18 17 18 18 20 20 19
12 6 3 4 4 7 6 9 12 4 8 7 2 4 1 2 4 6 13 27 36 32 28 27 24 23 21 19 18 20 21 20 18 18 19 19 20 20 19 18 16 18 17 17 18 19 20 19 17
3 1 2 3 9 9 5 6 4 4 14 22 15 6 2 6 7 6 27 32 34 31 28 25 24 23 21 18 18 20 22 21 19 17 19 19 19 19 19 19 17 18 17 17 18 18 18 17 16
1 2 5 3 9 3 6 3 8 4 11 19 17 10 8 4 14 13 25 32 32 29 26 24 22 22 20 18 18 20 21 21 19 18 19 18 18 18 19 20 18 17 16 17 17 17 17 15 14
2 2 4 10 9 5 5 5 10 3 3 9 14 15 4 14 9 1 22 31 29 29 26 23 22 20 19 18 17 20 22 19 19 17 17 18 17 18 17 17 17 15 15 15 15 15 14 14 13
4 4 7 16 3 3 6 7 7 8 4 2 8 10 7 14 33 6 21 25 28 28 26 24 22 20 18 16 16 19 21 20 19 16 15 14 15 16 16 17 16 15 14 13 13 12 11 11 10
3 3 6 4 8 5 7 3 6 6 2 4 2 7 10 16 32 17 20 23 27 28 26 24 22 21 18 16 16 19 21 22 19 16 15 14 13 14 14 14 13 13 13 12 11 10 10 9 9
2 7 11 10 8 6 2 5 3 2 5 3 1 3 13 33 33 38 27 20 24 26 29 27 23 22 19 16 17 19 18 20 20 18 15 14 12 10 11 11 11 10 10 9 8 8 8 8 8
7 8 8 9 4 5 3 1 4 5 4 3 2 7 24 27 27 22 31 25 22 25 27 27 25 23 20 18 17 18 18 20 20 19 16 13 10 10 11 9 8 8 8 8 7 6 6 7 6
7 9 4 6 6 1 2 5 3 10 3 5 10 17 16 13 10 23 22 39 27 14 21 27 26 24 22 20 18 18 18 19 20 19 16 14 12 11 10 8 8 8 8 8 7 6 6 4 2
7 12 10 3 4 4 2 7 1 2 4 8 10 11 14 11 7 17 23 26 34 21 22 23 28 28 24 22 19 16 17 19 18 18 17 15 13 14 12 9 7 9 9 9 7 7 6 4 2
16 7 13 8 4 4 2 4 6 4 4 6 7 9 9 8 11 14 18 20 32 35 35 27 28 31 27 25 23 19 17 18 16 15 17 16 14 13 11 11 10 8 10 9 9 8 7 7 6
7 15 10 8 7 5 2 4 4 5 3 8 7 7 8 9 12 17 22 22 28 35 34 35 29 28 28 26 26 21 18 19 19 18 17 15 14 12 12 12 12 11 10 9 8 8 8 7 7
11 10 8 7 9 6 3 5 4 6 4 8 8 6 6 8 14 13 18 29 32 33 33 33 33 26 29 29 26 24 19 18 21 20 21 20 15 14 11 13 12 12 10 9 9 8 8 8 7
11 3 10 7 14 3 6 12 4 0 5 5 6 6 5 4 7 14 17 21 24 33 34 30 30 31 32 30 25 24 20 19 24 24 22 22 19 16 14 14 13 11 11 11 10 10 10 10 10
6 6 12 5 8 7 14 5 8 3 2 4 4 4 4 4 5 15 19 23 23 26 29 31 29 33 31 28 25 22 20 22 22 24 25 26 19 18 17 15 13 12 12 12 11 10 9 10 10
11 5 14 2 6 3 14 5 12 6 5 8 7 6 5 4 8 17 21 21 26 25 23 27 31 31 28 25 21 21 24 22 18 17 24 22 20 20 18 16 14 13 13 12 12 12 11 13 13
4 4 9 5 4 5 4 6 2 7 8 8 8 7 7 7 8 18 20 23 24 27 26 26 26 26 27 23 23 28 29 23 20 19 18 22 23 21 18 17 16 15 15 13 13 13 13 14 15
3 8 2 9 8 4 6 3 6 11 11 6 8 9 9 6 6 11 23 23 25 29 30 28 29 30 30 32 32 32 29 26 24 25 20 18 21 21 18 18 18 16 16 15 14 14 14 15 16
5 13 9 6 10 4 7 1 4 9 15 11 7 8 7 10 11 8 14 26 26 26 32 33 32 32 33 32 31 25 25 25 23 22 22 19 21 22 20 20 19 18 17 16 13 13 14 17 19
6 13 16 10 1 3 3 3 6 7 10 9 10 8 9 9 7 6 12 21 29 30 29 26 29 29 32 33 31 30 27 21 26 25 22 21 20 22 23 20 19 18 17 17 18 17 16 16 18
4 16 15 13 5 0 3 3 4 5 10 13 10 9 9 9 8 6 9 21 34 32 29 30 27 29 32 35 34 32 31 32 27 28 24 23 23 22 19 19 20 20 18 19 19 19 16 14 14
4 10 14 5 3 2 7 3 4 3 15 12 8 8 9 8 8 6 10 17 13 17 16 18 20 24 25 26 28 27 30 24 24 20 22 23 21 20 18 17 18 16 16 15 15 15 14 13 13
7 10 3 3 2 4 10 4 5 5 7 11 11 8 6 2 2 4 5 10 16 18 17 16 17 18 21 27 29 26 24 25 22 25 23 22 22 19 16 13 13 13 15 15 14 14 13 15 15
4 3 4 4 4 4 3 3 3 2 7 7 9 8 7 8 5 3 2 3 4 13 15 17 19 18 17 18 18 19 22 25 27 29 27 25 26 23 20 17 15 14 15 13 12 13 14 15 16
2 3 1 6 2 4 2 1 3 6 7 8 9 8 7 7 6 7 7 6 2 6 17 19 17 17 16 17 16 17 18 21 22 20 17 16 15 17 18 20 17 15 13 13 12 13 14 14 14
8 2 3 4 3 3 2 1 3 4 6 5 7 8 5 5 7 5 4 3 5 7 9 12 18 18 16 15 15 16 16 18 20 21 21 19 19 17 15 14 14 13 12 12 13 12 12 13 13
4 2 5 4 3 4 4 5 4 8 8 9 7 6 6 6 4 4 4 4 5 7 9 10 13 15 14 14 14 15 16 18 17 16 14 14 16 15 14 14 13 11 9 10 11 11 11 12 13
1 1 3 4 3 2 2 4 5 9 7 7 7 6 3 2 2 3 5 5 6 6 8 7 8 12 13 14 15 16 16 14 14 14 14 14 14 12 11 12 12 10 9 9 10 11 11 12 11

GFSSGP_925_spd_075.txt.gz
Wind_Speed
12 13 10 3 1 2 10 6 3 2 6 5 5 1 3 2 1 3 4 10 29 31 28 25 24 22 20 17 16 19 19 18 17 16 17 17 18 21 22 22 19 17 18 18 19 19 18 17 14
11 9 1 1 3 3 5 10 9 6 9 14 3 2 5 1 3 6 10 20 31 31 29 26 23 22 21 18 18 21 20 15 17 17 17 18 18 19 21 19 18 17 17 17 18 20 19 16 13
7 2 2 3 3 5 7 6 20 2 7 12 9 5 1 3 3 4 6 21 30 28 27 25 23 22 20 18 19 21 19 16 17 17 19 19 18 18 18 15 16 16 17 18 21 20 18 15 15
3 1 1 2 8 8 5 5 6 7 2 24 17 5 3 1 3 2 18 27 27 27 26 25 22 21 19 18 20 23 19 16 17 17 17 18 18 17 16 16 16 17 18 19 20 19 16 16 15
1 2 4 5 11 5 5 4 3 14 12 14 9 3 4 5 14 15 22 29 29 26 25 23 22 20 18 17 20 21 19 18 17 17 17 17 18 19 17 16 17 17 19 19 19 18 16 14 13
2 2 4 9 18 9 5 7 6 5 7 16 17 14 10 10 10 7 15 28 27 25 24 22 21 19 17 16 19 20 21 19 17 17 17 17 17 18 17 16 15 14 16 17 16 16 14 12 11
3 4 6 12 19 9 7 9 5 8 5 7 9 13 3 4 16 7 12 23 26 24 23 21 21 19 17 16 18 22 19 19 16 16 17 18 18 18 17 15 14 13 14 14 13 12 11 10 10
3 3 14 6 11 12 7 7 2 8 4 2 3 6 6 10 17 5 8 20 23 23 23 22 21 19 17 15 17 22 20 20 17 16 15 16 17 18 17 17 15 14 13 12 11 10 9 9 8
1 6 14 16 8 13 6 9 3 3 5 2 0 6 8 31 33 20 15 6 19 22 22 23 21 19 17 15 17 20 22 19 19 16 16 15 15 16 16 15 15 13 12 11 9 8 7 7 7
7 9 21 9 13 6 3 4 7 4 3 1 4 1 29 30 31 36 26 10 20 20 21 25 24 22 18 16 18 18 21 21 21 18 17 15 13 13 12 12 11 11 11 10 8 7 7 7 6
5 15 15 15 20 5 1 1 4 5 5 6 12 16 23 31 21 28 37 45 30 17 20 24 25 24 21 18 19 18 18 21 21 20 17 14 12 12 12 11 10 10 10 10 9 8 7 7 5
11 17 12 15 8 5 4 2 3 3 5 7 10 26 24 21 17 21 27 29 43 23 16 19 21 24 22 20 19 20 19 20 21 21 18 15 14 12 12 11 9 10 10 9 8 7 7 6 3
20 11 11 11 9 5 3 2 4 4 5 5 12 14 20 18 18 22 25 27 39 40 27 24 17 23 25 24 20 20 21 21 20 20 19 16 14 14 12 11 10 8 10 9 9 7 6 7 6
5 16 16 10 12 9 8 2 2 6 5 6 13 14 12 16 16 17 28 36 33 32 34 23 30 25 26 27 24 22 20 20 21 21 20 19 15 14 13 12 12 10 9 8 8 8 8 7 8
18 9 15 12 7 7 8 13 3 3 7 3 5 8 11 8 14 19 22 26 32 27 32 31 33 29 27 30 28 24 22 22 22 21 18 19 17 16 14 13 13 12 11 10 10 9 9 9 8
17 11 12 11 8 6 7 12 6 5 6 4 5 4 5 9 13 18 21 24 28 24 31 39 35 32 23 25 25 28 26 24 22 22 22 21 20 19 16 14 14 11 12 11 11 10 9 9 9
13 5 11 5 11 2 5 3 4 4 6 7 3 2 1 3 5 12 22 25 28 33 34 33 37 33 33 30 30 31 28 27 21 22 24 22 24 21 19 16 13 13 13 12 11 10 9 9 9
10 6 6 9 5 9 10 7 7 4 8 7 4 6 4 1 4 8 22 26 29 33 32 34 37 38 34 30 29 33 30 28 24 25 25 25 26 25 22 19 15 15 14 13 13 13 12 11 11
11 5 11 4 5 8 11 8 9 5 9 9 6 6 5 4 3 8 10 17 27 25 27 32 33 35 35 37 30 29 29 29 22 24 23 24 28 26 23 20 17 16 15 14 15 15 13 13 13
13 7 6 8 6 7 4 1 1 5 11 8 7 7 7 5 5 7 12 14 15 20 26 24 27 33 35 35 28 25 33 29 26 25 23 21 22 27 25 21 19 17 17 16 15 13 11 12 13
2 6 4 7 8 7 4 2 3 8 9 12 8 7 6 9 8 7 8 13 17 17 20 27 30 35 33 33 30 26 23 24 23 23 25 24 24 26 28 23 18 18 18 18 14 14 12 13 14
4 4 10 16 11 2 9 2 8 10 9 9 14 8 8 8 6 5 8 11 19 23 22 22 24 26 28 30 31 28 26 23 28 30 26 24 22 23 26 22 20 17 16 14 16 15 17 18 18
3 13 14 16 7 1 5 3 3 10 12 13 16 8 9 8 7 8 8 17 22 28 26 24 23 21 25 26 29 26 23 24 21 20 22 20 20 19 21 21 16 12 16 20 22 19 20 20 18
1 14 12 6 3 1 4 1 3 4 6 8 8 7 7 8 5 5 6 9 15 21 26 22 23 21 22 25 26 25 23 25 25 22 21 18 16 18 18 18 20 16 20 23 20 16 16 15 15
8 5 3 3 2 3 5 1 6 4 3 5 9 10 8 5 5 4 3 2 5 9 11 15 15 20 21 22 21 23 24 29 24 20 21 23 21 15 21 20 18 17 20 19 17 16 15 14 15
6 4 3 3 3 3 0 4 3 4 7 4 6 8 6 6 3 4 3 1 3 1 5 9 11 15 16 15 17 20 24 26 23 22 24 22 21 21 21 18 14 11 11 11 12 12 13 14 14
1 4 2 6 3 4 3 4 2 7 7 9 9 9 8 7 7 7 7 10 9 8 6 6 10 15 17 18 16 16 16 17 20 23 23 24 22 21 19 17 15 13 11 11 13 11 13 14 13
4 3 3 4 3 2 1 3 1 2 4 6 8 8 7 7 8 7 8 12 12 11 10 9 9 12 14 14 14 14 14 15 15 15 17 19 20 22 20 19 18 15 13 12 13 13 13 14 14
5 3 5 4 3 3 3 3 2 6 5 7 7 6 7 7 6 5 6 11 11 12 12 12 11 9 10 11 11 12 11 11 12 15 16 14 12 13 14 13 12 11 12 12 13 14 14 14 14
1 1 3 4 3 2 2 3 7 4 5 6 6 7 6 7 7 7 8 12 16 18 18 15 13 10 8 8 10 11 11 11 11 11 11 11 13 14 13 12 10 10 11 12 13 13 14 14 14

GFSSGP_925_spd_078.txt.gz
Wind_Speed
8 10 8 1 2 3 4 6 3 3 6 6 3 1 1 2 0 2 2 8 23 30 28 24 24 21 18 16 16 20 18 16 16 16 18 22 23 22 22 20 19 19 19 19 19 18 16 15 14
6 5 0 2 3 3 6 6 6 3 3 9 10 9 4 1 2 4 5 16 27 29 27 25 22 21 18 16 18 19 18 14 16 17 16 19 21 22 20 19 18 19 19 19 18 17 15 14 14
3 3 2 3 3 10 5 4 11 3 4 10 7 3 6 5 3 4 6 20 28 27 26 24 22 21 18 17 19 18 15 15 16 18 18 16 20 20 18 17 17 18 18 19 18 17 15 16 16
2 3 2 3 11 10 6 5 6 3 5 10 9 6 4 3 1 2 14 25 27 26 25 22 22 21 18 18 19 17 15 15 16 19 20 17 18 17 14 15 17 17 17 18 17 15 14 15 14
1 2 4 6 14 8 5 6 6 8 9 6 16 10 5 3 7 12 18 26 28 25 23 21 21 20 17 17 20 17 14 15 16 17 18 17 16 15 14 15 16 16 17 17 16 14 14 13 12
1 1 4 13 13 21 6 9 4 2 5 9 13 14 6 8 12 14 19 26 26 25 22 20 20 19 17 16 19 17 14 14 15 16 18 19 18 16 16 16 15 16 16 17 15 13 11 10 9
3 2 10 7 17 10 19 9 4 5 7 12 15 19 6 9 20 15 9 20 22 22 22 20 19 18 16 17 19 18 16 13 15 16 17 19 19 17 16 16 16 16 17 15 14 12 10 9 8
1 2 6 8 8 14 7 9 6 8 9 0 10 8 10 13 19 21 18 12 15 18 20 21 19 18 16 16 20 17 18 14 13 15 17 18 19 18 16 15 14 15 15 14 12 11 9 7 7
1 4 11 19 13 16 4 11 16 1 3 2 1 3 13 32 25 23 26 7 6 14 19 21 21 18 17 16 19 20 17 16 13 13 14 16 17 17 16 15 13 13 11 10 9 8 8 7 6
4 5 17 10 11 5 8 5 7 4 4 4 4 2 28 33 27 28 18 4 12 20 22 21 22 21 19 17 18 21 18 20 15 14 15 15 14 14 14 13 12 10 9 8 8 7 6 5 5
5 12 13 10 9 5 4 4 2 7 9 8 11 13 21 27 22 24 25 15 12 22 21 21 22 21 20 19 19 21 22 19 20 16 15 15 13 14 13 13 12 11 10 9 8 7 6 6 4
7 11 11 7 8 8 14 7 3 5 12 5 9 23 20 21 18 24 25 25 31 25 9 8 16 21 19 17 20 21 21 21 20 18 17 15 14 14 14 12 11 11 10 10 8 7 6 5 3
9 13 7 12 19 12 18 15 5 7 8 11 8 16 25 23 19 22 33 31 25 14 8 13 15 19 20 19 20 21 21 22 23 21 19 16 14 13 13 11 10 10 11 10 10 8 7 6 5
3 9 18 13 14 14 15 14 3 6 6 10 13 17 19 20 20 17 23 27 33 32 18 13 14 18 23 26 22 22 22 21 22 23 22 19 16 14 14 12 12 10 10 9 10 9 7 6 6
9 8 9 15 15 7 12 13 15 5 6 6 5 16 17 16 20 20 30 41 50 34 42 40 34 23 27 24 25 24 22 22 23 23 23 21 19 16 14 13 13 12 10 10 10 9 8 8 8
6 7 8 11 14 9 12 17 19 5 3 6 9 7 15 15 15 28 35 28 32 30 32 36 38 27 28 21 19 21 23 24 24 25 23 22 21 19 16 14 14 13 13 13 12 11 10 8 8
3 7 15 7 17 8 10 7 8 3 8 8 4 6 7 5 11 21 28 26 29 27 30 31 34 30 28 28 18 19 23 24 25 26 26 25 23 21 20 18 15 14 14 14 12 11 10 8 8
6 7 7 14 13 18 11 11 1 4 9 5 4 3 3 7 8 9 25 27 32 33 37 37 34 27 25 31 24 25 21 28 29 27 29 27 25 25 22 21 18 16 16 15 14 12 11 11 9
9 16 4 3 7 12 10 4 9 5 1 6 7 8 6 4 4 5 12 16 32 31 30 33 27 25 32 26 21 19 26 31 30 31 29 29 26 25 26 24 21 18 18 16 14 13 13 12 10
15 10 3 6 4 5 3 3 6 4 1 1 5 7 9 7 4 3 4 7 15 21 24 28 27 29 31 27 28 32 23 28 27 27 28 30 26 27 27 27 24 21 18 16 15 14 11 10 8
2 10 6 7 9 9 5 3 12 1 0 4 9 8 7 9 8 5 4 7 9 6 14 22 26 30 36 36 35 33 29 26 25 25 33 25 21 20 22 26 25 22 17 17 13 11 11 9 9
5 4 9 15 4 3 4 1 7 6 5 7 15 13 9 8 7 5 3 5 9 15 15 15 21 24 26 25 26 23 25 23 22 25 27 20 17 17 18 23 22 23 16 13 11 10 12 14 13
2 10 11 9 7 4 2 3 4 5 5 10 13 16 10 8 6 6 5 10 11 12 15 17 17 18 19 24 27 30 31 25 19 26 13 11 10 7 13 15 18 16 8 5 7 10 13 12 13
11 12 8 7 3 3 2 3 2 3 8 12 12 11 8 8 7 5 2 3 4 7 10 15 15 15 15 16 17 20 18 19 19 19 13 14 13 11 15 13 9 7 13 11 15 12 11 19 16
2 3 3 2 2 2 1 1 6 4 2 6 14 15 9 6 5 2 3 7 8 6 5 5 12 10 10 11 13 14 18 19 21 18 19 21 18 19 22 21 17 16 13 20 19 16 13 12 10
4 3 3 4 3 2 3 3 3 3 5 2 1 8 6 5 4 6 7 9 9 9 6 3 2 3 4 6 7 9 12 16 18 20 20 20 19 27 21 17 17 17 17 15 15 10 8 8 10
4 3 3 6 3 3 2 4 3 7 12 12 9 11 9 7 7 8 8 13 13 14 13 11 8 7 7 8 10 10 10 11 13 15 15 17 17 19 19 22 20 17 16 16 13 12 10 9 10
3 6 3 2 4 3 3 3 2 5 7 7 9 9 8 8 9 7 8 13 15 16 15 15 14 12 11 9 9 9 9 10 10 10 10 13 16 17 19 19 16 17 17 13 9 8 8 8 9
4 3 5 4 2 3 3 1 2 3 3 7 7 7 8 8 7 7 7 15 17 18 17 16 16 15 13 10 9 9 9 9 9 9 9 10 13 15 14 13 13 13 9 8 8 6 6 7 8
2 3 4 4 2 2 3 2 6 4 6 5 7 7 6 7 7 8 11 17 21 18 19 16 13 13 12 10 8 8 8 8 7 7 8 9 11 11 13 15 13 10 9 7 6 6 5 6 7

GFSSGP_925_spd_081.txt.gz
Wind_Speed
8 4 5 2 3 3 9 6 2 4 11 5 3 5 6 4 1 1 4 13 20 25 24 23 23 21 19 16 19 17 17 18 16 21 22 23 24 22 21 19 20 21 20 20 19 18 16 16 16
5 1 2 2 5 8 8 6 6 5 2 8 7 2 7 4 2 2 4 9 22 25 24 23 23 21 19 17 19 19 16 17 16 19 22 24 24 22 20 19 20 20 19 19 17 15 14 14 14
1 4 2 4 6 15 10 5 12 6 2 6 5 1 3 4 2 5 2 16 22 22 23 23 23 22 19 17 19 19 16 15 19 17 21 23 25 21 19 19 19 21 19 18 16 15 14 15 14
3 2 1 4 15 9 9 8 5 8 5 5 5 4 2 9 5 2 10 18 22 22 23 23 22 20 18 20 20 17 15 14 17 19 18 21 23 20 19 19 20 21 18 17 16 16 17 15 14
2 1 4 5 13 5 7 9 7 10 10 8 8 7 4 12 10 4 12 21 23 25 25 22 21 20 19 22 19 16 15 14 15 18 17 20 20 18 17 18 19 20 19 17 15 15 16 13 12
2 0 5 15 12 12 13 12 5 10 8 8 8 7 4 13 21 16 9 22 24 27 24 22 20 20 19 20 20 15 14 15 15 16 16 16 17 15 16 17 17 18 17 17 15 14 13 12 10
3 4 11 13 14 11 11 12 8 13 9 9 4 12 2 9 16 14 16 20 26 26 23 21 20 18 18 19 20 15 14 15 18 17 16 15 14 15 16 16 16 16 16 15 13 12 10 9 9
1 2 6 7 11 16 9 6 12 11 17 7 8 6 5 7 17 23 20 6 22 22 22 21 19 19 18 20 19 17 13 14 17 18 17 18 14 15 14 15 15 15 15 14 12 10 9 8 7
1 4 10 11 15 19 6 15 11 9 11 3 3 11 8 25 27 25 17 7 10 9 16 19 21 19 18 19 19 18 15 13 14 17 17 17 16 14 14 14 13 14 14 13 11 10 8 7 6
5 5 11 5 13 8 7 6 4 6 19 15 6 5 26 30 25 29 24 18 9 2 5 14 19 19 19 19 22 18 19 16 15 15 16 18 18 16 15 15 13 12 12 11 10 10 9 7 6
4 13 10 14 8 6 4 3 5 6 11 15 10 12 20 24 19 23 29 32 29 6 10 16 17 20 21 20 22 22 19 18 14 14 15 16 16 15 15 14 13 12 11 11 10 9 8 8 6
8 13 8 10 10 8 9 11 8 4 11 24 11 9 20 18 14 25 28 22 20 19 10 16 9 17 20 20 22 24 23 21 19 16 16 16 16 15 15 14 13 12 11 10 9 8 7 7 6
11 17 11 8 9 13 15 16 16 15 8 12 6 7 20 17 19 24 27 25 26 13 12 13 7 6 19 19 21 24 25 24 22 19 17 16 15 15 14 14 12 12 11 11 10 9 8 8 6
4 10 15 14 17 12 15 17 7 11 2 7 10 12 20 22 24 19 19 30 30 36 38 27 13 13 18 22 22 24 24 25 24 23 21 19 16 15 15 14 13 12 12 12 11 10 8 7 7
10 15 13 14 11 14 11 15 17 16 3 6 11 15 20 20 19 23 27 33 33 36 35 36 27 16 16 22 22 23 22 23 25 25 23 23 20 18 16 16 15 13 11 12 11 11 10 8 8
4 5 8 11 13 11 8 20 16 7 7 3 6 10 14 19 23 20 24 30 25 25 27 32 13 15 19 23 21 22 23 22 23 23 24 25 22 20 18 17 16 14 14 13 12 12 11 9 8
8 9 15 13 14 11 16 12 9 8 8 2 6 7 3 15 17 22 28 30 30 23 32 32 23 30 22 27 21 19 24 22 21 23 24 25 24 23 22 19 16 14 15 15 14 13 12 11 9
7 11 11 14 9 19 15 13 5 4 6 5 4 6 2 3 2 4 13 32 31 27 31 39 36 31 26 25 19 19 24 22 21 24 25 25 25 23 24 22 18 16 15 15 15 14 13 11 9
7 7 13 13 10 15 20 10 10 3 2 4 4 4 4 6 5 4 15 11 19 26 28 30 26 29 24 18 22 26 24 17 16 21 24 24 25 28 28 26 23 20 18 18 17 15 14 14 12
19 18 13 10 15 15 15 13 2 3 9 7 9 1 3 4 6 2 3 6 19 24 28 32 29 25 28 26 21 21 17 19 17 20 21 22 26 30 31 32 29 24 22 20 19 18 15 12 8
9 15 10 3 13 6 7 1 1 6 3 10 7 5 1 3 3 3 6 16 14 17 20 24 31 31 33 31 28 28 27 20 19 21 22 26 23 24 26 30 28 27 26 23 22 21 17 13 9
4 11 20 15 5 4 2 3 2 3 11 12 10 6 3 6 3 3 4 7 14 16 22 27 31 28 33 29 31 31 29 16 31 20 17 17 21 26 23 23 18 16 19 19 17 17 15 11 9
2 5 9 9 8 7 5 3 2 2 8 12 13 11 6 6 4 4 4 6 5 9 15 19 17 19 23 26 32 28 25 22 17 21 16 21 19 17 22 21 11 6 8 6 3 1 2 5 7
5 13 7 4 3 4 2 2 2 1 6 8 9 12 6 3 4 4 4 3 4 2 4 8 11 8 9 15 17 20 20 30 23 26 26 22 18 21 24 19 17 17 14 10 8 7 11 12 11
1 3 2 3 3 3 2 3 3 7 8 6 9 8 7 4 1 4 5 6 11 11 10 8 3 2 3 3 5 6 9 13 20 26 25 22 22 26 21 19 16 12 14 16 21 20 19 18 15
5 2 2 4 3 3 3 3 4 5 7 2 2 6 10 7 6 9 6 9 14 16 15 12 10 6 3 2 2 4 4 7 8 10 15 21 24 24 19 20 18 13 16 21 22 23 22 15 12
1 3 2 5 2 3 1 2 2 8 12 13 12 12 11 10 10 5 8 14 17 18 18 16 14 10 6 3 1 1 3 4 4 6 10 13 15 19 20 20 17 16 23 22 19 16 15 13 10
6 1 2 3 3 3 3 2 1 7 9 11 14 13 12 10 8 9 10 13 17 17 17 18 17 14 11 8 6 4 3 3 4 5 6 8 12 15 17 19 19 21 18 17 16 14 12 10 7
3 2 3 3 2 4 3 3 1 2 4 7 9 9 8 9 8 8 9 14 17 20 21 19 17 15 14 12 9 6 4 3 3 4 5 6 9 12 15 18 20 19 18 15 14 13 10 9 9
2 1 0 3 3 4 3 1 4 4 5 4 8 7 7 9 9 8 10 13 20 22 23 22 20 17 14 12 9 8 7 4 3 4 5 7 8 11 14 17 18 18 18 16 13 11 10 9 8

GFSSGP_925_spd_084.txt.gz
Wind_Speed
4 4 4 6 8 8 20 20 9 13 17 12 5 6 8 5 3 1 2 10 15 22 23 24 24 22 20 19 18 18 18 18 20 21 21 23 24 22 20 20 20 20 20 19 19 18 17 16 16
5 5 5 3 11 17 16 19 16 12 6 7 9 7 6 5 3 5 6 11 17 22 22 23 23 21 19 20 18 19 18 16 20 21 23 23 24 22 20 20 20 21 20 19 17 15 15 15 15
3 6 5 5 15 22 17 17 18 12 2 4 14 7 4 6 5 5 4 13 22 20 22 22 24 22 19 21 20 18 18 16 19 22 23 24 24 21 21 20 22 21 20 18 15 15 15 15 14
7 5 4 11 21 22 24 15 16 21 12 7 7 9 3 2 12 6 11 15 23 21 20 21 24 23 20 22 21 19 17 17 16 19 23 25 23 20 20 22 22 20 19 17 15 17 16 15 13
6 3 12 16 25 22 13 19 17 16 12 12 11 16 4 4 9 20 19 16 20 21 19 19 23 22 20 23 23 19 16 18 17 17 21 24 22 19 19 22 22 19 18 16 16 17 15 14 12
5 4 11 19 22 21 17 17 21 20 16 12 16 17 8 8 11 20 25 19 16 19 18 19 20 21 22 23 22 18 16 17 19 16 20 21 20 17 17 18 21 18 16 15 15 15 14 12 10
11 9 17 20 19 23 19 21 19 19 22 18 10 20 10 11 14 15 21 25 5 12 16 17 18 17 22 23 21 17 16 18 20 20 17 19 18 15 16 16 17 17 15 15 14 13 12 11 9
6 8 16 18 19 23 17 21 17 21 22 17 12 7 16 13 17 16 15 22 10 8 15 16 17 17 18 20 20 17 16 19 19 19 17 16 15 16 16 15 15 16 16 15 13 12 11 10 9
6 8 13 18 19 16 17 20 19 14 20 19 13 14 15 12 19 17 21 21 32 11 17 14 17 18 18 19 20 18 16 18 21 18 17 16 14 15 16 14 15 16 15 14 12 11 10 9 8
10 12 16 15 14 14 12 15 16 12 19 22 21 13 8 18 24 23 24 25 26 14 26 16 18 18 18 18 19 18 17 16 16 17 18 15 15 15 14 14 15 14 14 13 11 10 10 8 6
10 18 15 12 8 11 12 15 18 16 15 17 21 23 11 18 24 21 19 25 30 24 26 17 19 18 17 17 18 19 18 16 15 16 18 16 16 15 13 12 12 11 12 10 9 8 7 7 6
13 17 18 18 13 14 15 10 15 16 18 12 15 16 10 13 18 23 24 28 31 30 20 28 19 19 17 14 19 17 18 16 15 16 17 17 16 16 15 14 13 12 11 10 10 9 8 7 7
16 18 17 17 14 15 16 19 19 18 18 14 12 10 13 12 20 19 21 25 29 32 36 34 17 9 21 14 15 18 17 18 15 15 16 16 15 15 15 14 13 12 11 11 10 9 9 8 8
8 13 13 14 18 17 16 18 18 21 19 14 9 12 21 19 18 16 21 28 33 31 31 40 33 8 10 19 16 17 18 18 17 15 15 15 14 14 13 12 12 12 11 11 11 10 10 9 9
11 17 18 18 16 12 16 22 27 23 18 14 13 10 19 21 17 23 28 34 37 40 40 34 30 24 19 17 17 16 18 18 16 16 16 16 14 13 12 12 12 11 11 11 10 11 10 9 8
11 12 9 14 15 15 13 24 23 20 20 18 18 11 11 15 18 26 26 21 30 30 31 27 33 34 29 20 24 17 16 17 17 17 16 17 16 13 13 12 12 11 11 11 12 11 10 10 9
9 13 17 16 14 15 18 21 21 17 16 20 13 8 9 9 15 25 27 27 32 28 27 23 25 29 28 20 18 19 16 17 15 15 16 16 16 15 15 13 13 13 12 12 12 12 12 11 10
10 15 15 20 11 18 17 22 15 9 15 15 11 6 5 7 6 20 25 21 17 22 21 24 29 33 29 19 13 12 13 14 16 18 16 15 16 17 17 15 15 14 14 14 14 14 13 12 11
18 17 18 18 18 16 22 20 20 2 3 9 8 4 2 3 3 3 4 7 10 13 18 30 27 26 21 12 15 13 14 15 12 14 15 16 17 16 17 17 17 16 16 16 17 16 14 13 11
18 20 22 19 15 15 17 20 15 10 5 5 7 8 3 2 4 9 4 10 6 13 20 22 21 19 23 15 10 15 13 8 8 9 10 13 17 18 18 18 17 17 17 17 17 17 14 14 14
18 18 19 14 3 14 12 18 11 11 8 7 7 8 7 2 7 6 11 2 5 12 8 15 20 11 16 13 16 17 16 13 6 4 10 10 11 16 18 20 23 23 21 15 16 18 19 17 16
13 17 14 13 12 6 13 8 15 12 14 13 11 7 10 9 6 7 7 5 5 9 17 15 16 18 27 28 26 19 18 8 11 12 16 12 9 10 16 20 20 20 22 26 22 19 14 16 15
6 11 15 10 10 11 7 1 6 2 4 7 9 10 10 15 10 11 4 9 10 22 23 19 25 27 24 25 30 33 24 24 24 28 18 18 15 11 14 15 11 12 20 22 15 10 7 8 9
2 11 8 7 8 3 2 3 5 1 5 6 5 17 15 8 14 10 5 5 7 9 17 25 21 17 25 29 32 31 29 28 27 26 23 15 14 18 16 16 18 25 24 23 21 18 10 8 7
2 4 3 2 2 4 2 4 4 10 10 10 7 6 11 10 15 9 3 7 12 5 2 5 7 6 7 19 24 27 26 34 34 34 31 25 22 26 26 24 24 28 27 25 22 16 16 19 20
3 4 2 3 3 4 4 4 6 9 5 3 5 9 13 13 14 11 6 13 9 5 8 9 9 7 5 5 8 11 15 21 25 27 27 29 31 35 35 31 30 30 30 23 23 21 22 20 20
5 3 6 4 2 4 3 1 4 10 13 10 11 13 13 13 12 12 3 14 7 11 12 12 12 10 7 5 4 4 6 8 12 14 18 21 22 26 27 29 30 30 26 23 21 21 22 21 20
4 8 2 1 2 4 3 4 6 11 11 11 13 15 14 11 13 11 7 12 12 13 12 14 13 12 10 8 5 2 1 4 6 9 11 12 11 15 17 23 28 26 23 20 19 18 18 19 18
2 2 0 1 2 1 4 4 7 8 9 12 13 13 13 13 10 8 11 11 12 15 16 15 15 14 12 10 7 5 3 2 3 5 7 9 12 14 17 19 23 22 20 20 19 18 18 18 16
4 6 4 3 3 4 4 4 6 4 8 11 13 13 12 11 10 9 10 9 15 16 17 18 18 17 15 12 10 8 5 4 2 4 6 7 6 10 13 17 20 20 20 20 21 22 21 18 16

GFSSGP_925_spd_087.txt.gz
Wind_Speed
8 8 8 6 8 9 21 24 22 18 18 13 16 12 14 10 7 3 5 10 12 20 23 23 23 20 17 15 14 13 14 19 20 20 20 20 20 20 20 19 19 19 18 16 16 17 16 16 15
10 9 9 7 11 16 16 21 24 19 13 11 23 7 8 7 1 8 7 8 14 21 23 22 23 20 18 16 16 15 14 18 20 21 22 22 23 21 20 19 19 21 19 18 18 16 15 14 14
6 11 8 6 17 20 17 18 18 14 18 9 15 10 13 6 1 6 9 12 17 17 21 22 23 20 18 17 17 16 13 17 18 21 22 23 23 21 20 20 21 20 20 17 16 14 14 13 12
8 7 6 15 21 22 27 21 14 14 14 13 14 15 16 4 4 6 13 15 19 16 18 21 22 19 17 17 17 16 14 15 18 21 22 25 24 20 20 22 20 19 18 15 14 14 14 12 11
13 7 13 17 24 22 15 21 23 17 20 19 15 16 7 11 8 10 14 28 14 15 17 19 21 20 17 19 18 16 15 14 16 20 23 24 23 21 21 23 20 19 17 15 16 15 14 12 11
7 7 14 18 22 20 22 21 15 22 18 20 17 15 10 14 17 13 14 22 27 10 14 14 17 17 17 19 19 17 15 15 15 19 22 24 22 20 22 22 21 19 17 16 17 15 14 12 11
13 12 18 21 19 19 19 20 18 21 22 19 18 18 15 14 15 15 16 17 30 15 7 12 13 13 14 19 19 16 14 17 14 17 22 24 21 18 20 23 21 18 16 16 15 14 13 11 10
10 13 23 19 18 23 18 18 20 19 23 18 19 24 16 10 20 18 14 16 24 27 7 5 10 13 14 17 18 16 15 17 17 16 22 24 18 18 17 20 19 18 16 16 15 13 11 11 9
7 11 16 20 20 15 16 19 18 18 21 20 21 23 16 15 20 18 16 13 20 22 12 10 14 14 16 18 17 16 16 17 20 16 16 18 17 17 16 15 18 17 16 15 14 12 11 9 8
13 12 21 17 16 15 17 15 17 21 20 19 17 18 18 11 16 13 19 19 17 21 36 33 25 25 17 20 18 17 15 16 16 17 17 14 13 15 16 15 17 16 15 14 12 11 10 8 6
13 19 18 16 14 12 13 16 17 17 21 16 17 22 21 14 15 19 19 22 28 28 23 25 30 39 35 24 24 21 16 16 17 18 18 15 15 16 15 14 14 14 14 11 11 11 9 8 7
19 18 17 19 20 16 14 16 21 21 18 17 4 8 14 18 15 16 19 19 22 24 30 37 28 33 30 11 21 22 19 17 16 17 19 19 17 17 15 15 15 14 14 12 11 10 9 9 9
15 16 19 18 18 18 18 19 22 23 20 20 16 10 13 13 13 14 19 16 20 17 23 32 28 20 10 12 14 20 21 18 16 17 18 17 17 18 17 15 16 14 13 12 11 10 10 9 9
12 15 15 16 17 19 20 22 21 25 20 21 21 19 15 19 15 12 13 18 18 17 18 24 21 24 27 19 10 13 20 20 19 17 18 17 16 16 15 14 14 13 12 11 11 11 10 10 9
13 17 19 21 21 22 17 23 27 24 21 22 22 16 16 14 23 20 14 21 20 23 21 21 19 20 25 17 11 11 14 21 20 18 17 17 16 15 14 13 13 12 12 11 11 10 10 10 10
16 18 18 17 19 21 20 22 20 21 23 24 23 19 16 14 16 26 18 20 24 28 23 20 19 25 23 20 12 16 15 15 22 19 17 17 15 14 14 14 13 12 11 11 12 12 11 11 11
9 14 18 18 16 16 17 21 22 22 19 22 21 19 15 12 12 16 18 19 28 29 21 19 24 28 32 27 20 21 17 16 16 18 17 18 17 15 14 13 13 12 13 12 13 12 13 12 12
12 11 15 17 14 14 16 19 23 21 22 17 20 17 12 13 8 10 15 18 21 27 21 22 21 22 29 32 23 25 19 17 14 14 14 14 18 16 16 13 12 13 14 14 14 13 13 13 13
16 18 22 21 18 17 18 21 19 18 9 15 16 10 8 10 2 2 12 20 17 20 20 20 23 24 27 34 26 22 19 18 15 14 14 14 15 16 15 13 14 15 14 15 15 15 15 15 14
18 21 24 23 22 15 21 22 18 17 9 9 8 10 9 6 2 5 12 13 10 3 13 17 18 21 31 36 31 24 23 20 17 14 14 13 11 12 14 15 15 15 16 14 16 18 16 17 18
19 20 22 20 16 16 15 18 17 16 10 11 10 7 6 2 3 5 10 13 4 15 11 9 15 14 20 25 23 16 15 14 14 12 12 8 9 12 14 16 18 18 14 15 15 18 20 18 18
18 18 24 19 10 7 17 8 16 13 15 15 14 11 10 5 2 3 9 11 9 5 11 8 9 5 19 21 20 14 12 12 14 14 11 8 7 6 8 12 16 16 16 18 24 29 19 17 17
9 5 9 14 13 9 18 3 15 17 14 13 14 12 10 4 4 1 4 10 17 13 5 4 10 7 11 23 22 23 16 8 7 9 10 2 7 14 10 10 14 18 13 14 12 20 24 16 11
5 4 2 7 6 5 3 1 9 6 2 2 5 10 11 9 7 7 3 8 7 9 12 14 13 13 15 15 22 17 14 14 15 22 22 12 8 9 12 14 16 16 13 13 20 19 18 15 17
6 3 4 5 4 3 2 2 9 9 5 2 2 16 13 12 10 4 2 8 10 4 1 10 13 19 27 29 29 25 26 21 20 20 24 9 24 18 25 25 26 17 17 13 26 21 22 19 20
12 8 5 2 2 3 4 3 4 9 5 9 3 19 15 14 6 8 8 12 8 9 6 4 7 7 6 6 10 29 28 32 35 33 29 30 29 28 28 31 27 24 24 22 25 24 24 24 22
7 4 9 3 1 2 2 5 15 16 14 19 12 18 15 13 7 12 11 13 13 12 11 8 7 7 5 4 6 4 16 23 22 22 23 23 24 26 28 31 33 27 25 29 27 30 29 25 24
4 7 4 2 3 5 6 12 8 12 11 15 14 13 14 12 11 11 11 13 13 11 9 9 10 11 11 10 7 6 2 3 4 8 14 19 24 28 29 31 31 28 29 30 30 28 29 26 25
1 7 4 3 2 3 4 6 9 10 11 13 14 13 11 11 7 10 10 11 10 12 10 10 14 14 13 13 11 9 6 2 2 4 7 10 12 15 17 20 24 29 30 30 27 25 26 24 23
3 9 9 5 7 4 10 6 7 11 12 10 13 13 10 9 9 8 10 11 9 9 9 13 14 14 14 12 11 9 7 6 4 3 6 8 9 11 11 13 17 23 26 26 25 23 27 26 24

GFSSGP_925_spd_090.txt.gz
Wind_Speed
8 9 10 13 4 5 10 11 14 18 11 17 13 7 1 8 4 2 10 2 23 26 26 25 21 18 16 15 13 13 16 17 16 17 17 17 18 20 19 18 18 19 16 17 17 17 16 16 16
7 13 13 3 6 11 9 13 18 17 19 12 9 8 3 3 8 8 6 9 13 26 24 21 20 18 15 14 12 13 14 19 17 18 19 19 19 21 19 19 19 18 17 18 17 16 15 14 14
8 12 2 4 10 14 9 12 15 16 14 6 5 7 4 3 13 8 12 15 25 27 23 22 20 17 15 14 13 13 13 19 18 19 19 21 22 20 19 19 23 17 17 19 16 15 14 13 12
6 2 4 9 15 16 22 19 19 11 8 4 4 7 1 9 4 14 13 17 21 20 24 23 20 17 15 15 14 14 11 17 17 19 21 23 22 21 21 23 20 19 17 17 15 15 13 12 11
11 3 7 11 16 19 14 19 20 19 11 8 8 10 5 4 17 9 16 21 23 22 21 21 19 16 14 13 15 14 12 16 16 18 21 23 23 21 21 23 21 20 18 16 15 15 13 12 13
4 3 8 13 17 15 15 18 18 13 13 8 7 9 2 15 15 16 10 19 21 23 23 21 18 15 13 14 13 14 13 12 16 18 21 23 23 22 24 21 21 19 17 16 16 16 13 13 13
6 8 12 15 15 14 15 13 15 15 11 12 7 9 2 9 19 18 21 17 17 26 28 25 14 15 12 15 15 14 14 12 14 18 21 23 23 22 22 21 21 18 18 17 16 14 12 12 12
6 6 17 15 13 17 16 16 10 11 14 10 8 7 7 8 23 22 19 18 20 23 26 25 18 10 12 15 16 16 13 14 12 17 23 26 24 23 21 21 20 19 17 17 16 13 12 11 10
9 5 10 15 17 13 12 13 14 12 10 7 9 6 9 15 17 14 10 8 17 21 20 20 21 10 10 11 16 15 14 15 14 20 26 26 23 21 22 21 19 19 17 17 15 13 11 10 9
8 8 12 15 14 11 13 12 10 11 10 8 9 9 19 11 10 11 12 9 10 20 24 24 29 26 6 5 13 17 16 17 18 18 25 23 21 20 21 21 20 18 16 16 14 12 11 9 6
6 15 14 17 15 15 15 13 12 12 12 14 6 9 9 11 14 12 18 20 24 15 20 23 25 26 20 23 19 16 17 19 21 21 21 18 17 19 22 21 20 18 17 16 14 13 11 9 9
13 15 15 15 15 16 15 13 15 13 13 17 18 14 5 9 6 7 11 18 24 19 24 23 23 27 27 30 22 35 23 22 24 24 22 21 23 25 20 22 22 20 19 15 13 11 10 8 5
12 12 14 14 15 14 15 14 15 19 12 19 19 14 14 10 7 13 3 29 19 20 23 25 18 14 11 17 24 29 27 25 24 24 25 23 21 25 20 15 19 18 16 15 12 12 9 11 10
11 15 15 14 14 14 16 16 13 16 12 19 20 17 14 13 9 8 11 22 12 18 13 11 13 19 18 10 16 15 21 21 23 22 24 25 21 24 20 19 19 18 17 14 14 14 11 11 11
10 12 13 14 16 18 17 22 22 11 15 20 20 19 14 16 14 12 10 27 17 11 5 7 9 16 24 27 20 23 10 19 20 25 21 19 19 22 20 19 20 18 15 16 14 13 13 12 11
13 13 14 14 16 17 16 24 17 15 19 22 21 19 17 11 11 14 21 19 21 18 12 9 10 14 23 28 32 29 22 15 22 24 27 22 22 22 21 18 20 18 16 15 14 14 12 12 12
5 10 14 14 12 10 12 19 17 18 18 19 19 19 17 12 7 11 20 21 24 23 16 20 12 18 23 25 29 28 23 17 18 21 24 25 22 21 21 19 17 16 17 16 15 14 14 14 13
7 9 14 15 11 11 11 15 16 16 16 15 19 17 15 15 8 1 12 15 20 21 16 17 10 22 22 23 32 25 21 18 18 23 22 24 23 21 19 18 16 15 16 15 14 14 15 15 15
13 17 19 17 17 17 13 16 15 15 15 16 10 9 13 12 6 6 12 14 14 13 14 19 19 18 26 32 31 29 23 20 21 21 20 22 24 21 20 17 14 14 15 16 15 16 15 16 15
18 18 21 21 18 16 16 20 16 17 11 9 10 8 5 4 5 5 6 13 14 12 8 11 18 23 29 26 28 26 27 27 27 25 24 23 19 17 17 17 16 14 15 16 16 18 17 16 17
17 17 20 19 16 15 18 18 16 14 15 7 7 5 4 4 7 5 4 9 15 12 10 4 9 20 25 26 27 22 24 18 25 24 21 20 18 17 16 17 16 17 13 18 18 17 11 10 15
18 10 19 18 10 6 5 4 9 14 13 10 8 7 7 7 3 4 6 8 8 10 7 9 2 6 16 21 20 22 19 13 20 16 22 19 17 14 14 15 14 17 20 19 20 15 13 12 9
8 11 12 8 9 10 10 2 6 10 9 9 12 10 8 8 5 3 2 6 7 4 5 11 7 7 3 10 15 19 15 14 6 5 10 11 13 13 14 15 15 20 17 18 17 17 15 15 16
7 3 2 3 1 3 8 6 3 5 8 7 11 10 12 9 7 6 9 7 5 2 2 5 1 4 1 2 9 16 13 16 6 4 9 14 10 13 16 13 17 15 15 17 15 14 11 12 14
3 3 3 2 2 2 10 7 4 7 7 2 6 15 13 10 6 8 9 10 11 12 10 11 9 10 8 8 15 16 12 9 21 14 13 21 25 24 20 18 19 21 18 18 19 17 18 15 10
12 7 2 4 2 3 5 3 3 12 3 2 13 16 14 10 8 10 11 14 16 21 16 10 5 7 6 5 11 18 22 20 21 20 17 18 23 25 25 28 22 25 17 17 22 16 21 20 17
6 4 4 4 1 1 3 2 9 11 16 12 14 14 12 10 9 12 12 13 10 13 12 15 12 10 6 3 4 6 14 24 25 26 29 26 24 25 25 26 25 22 23 24 27 21 24 22 24
4 5 3 2 6 4 4 4 4 9 13 13 14 12 11 10 11 9 6 15 13 13 15 16 16 13 12 9 6 5 3 1 6 17 20 23 26 23 26 27 27 28 33 31 28 28 29 28 28
2 5 4 2 1 1 3 3 5 8 8 11 12 11 11 10 9 6 6 14 16 12 15 16 16 14 13 12 10 8 7 4 2 0 4 9 11 11 14 20 23 23 29 31 31 31 29 29 31
4 6 6 3 7 3 5 4 11 9 9 11 12 10 9 9 6 3 7 11 10 12 15 16 15 16 15 14 12 11 10 9 8 5 5 7 9 10 15 16 16 19 24 29 32 33 30 30 28

GFSSGP_925_spd_093.txt.gz
Wind_Speed
3 5 9 4 2 2 3 6 5 11 6 4 5 4 5 2 2 3 7 16 23 28 28 26 22 20 18 16 16 16 16 16 17 16 17 17 18 18 17 18 19 17 20 20 21 20 18 18 17
3 4 1 1 3 2 4 7 9 12 10 12 8 6 2 3 2 4 8 21 28 29 30 26 20 19 18 16 14 15 17 16 16 17 17 17 18 20 19 18 20 18 20 21 20 20 18 17 18
2 1 3 3 3 5 4 7 14 9 10 9 3 1 2 2 3 10 10 23 27 27 29 26 21 18 16 14 14 13 16 18 17 18 18 19 20 21 19 21 20 20 19 20 19 18 16 16 18
3 4 3 2 6 5 12 16 17 10 14 11 5 2 4 2 4 10 15 26 26 27 26 26 23 19 16 14 12 14 14 18 18 19 20 20 22 22 21 25 20 21 19 18 19 17 15 14 16
4 1 1 4 7 6 11 10 14 10 8 11 6 3 5 2 19 20 27 26 26 24 24 24 21 18 16 14 12 13 12 17 16 19 20 22 23 22 20 26 22 19 17 16 16 15 14 14 17
2 1 1 7 7 10 9 10 7 6 6 9 7 2 1 16 21 21 24 25 22 25 24 22 21 18 15 13 13 12 10 15 15 17 20 22 24 23 22 24 21 19 18 18 17 14 13 14 18
3 2 4 4 6 7 6 8 7 7 9 11 3 3 2 4 15 17 23 25 23 24 28 25 21 17 14 12 10 11 9 9 15 16 19 22 24 24 24 22 21 19 18 17 18 15 14 15 16
3 1 2 3 5 9 9 6 6 6 10 7 2 2 3 5 12 11 12 13 18 24 26 27 23 20 17 12 9 9 9 8 12 16 18 22 23 23 22 22 21 20 19 18 17 15 14 14 14
3 1 3 4 5 6 14 10 6 7 5 7 5 2 5 11 13 12 9 6 8 21 25 28 26 24 19 15 9 7 8 9 9 16 21 24 23 25 23 23 21 21 21 20 19 16 13 12 11
3 2 4 5 7 7 13 8 12 8 10 6 15 20 19 21 17 11 9 11 13 16 24 29 24 20 18 19 16 7 7 10 11 18 26 27 27 25 23 24 22 21 20 20 18 16 13 11 10
3 4 5 12 15 12 10 14 8 8 5 5 8 14 18 11 7 12 17 16 22 24 23 19 21 21 20 22 23 10 5 8 12 18 29 29 27 28 26 25 24 22 20 20 18 16 14 12 10
5 6 7 5 10 11 9 9 10 6 9 8 8 9 9 13 7 6 8 12 13 18 20 22 20 19 21 18 15 16 15 17 18 19 26 26 25 27 29 27 27 25 22 20 18 15 13 12 10
3 3 7 7 8 11 12 11 11 15 9 12 11 12 10 13 9 11 12 14 12 18 22 21 22 26 21 17 18 28 29 28 29 28 27 24 23 28 29 28 27 25 23 21 17 14 13 12 9
5 9 8 6 8 7 12 16 5 6 11 15 14 13 10 12 13 7 9 15 10 12 10 11 16 19 21 21 21 25 18 9 28 32 29 26 26 29 29 27 29 27 24 21 17 15 12 12 11
7 6 9 11 9 9 10 21 18 8 11 18 20 18 13 12 20 11 17 13 17 16 8 10 14 13 17 15 22 25 28 9 20 30 29 27 26 32 27 25 26 26 23 21 17 16 14 14 14
4 3 3 4 8 10 8 21 11 15 15 19 19 18 17 12 17 24 13 10 19 15 18 22 15 15 17 22 17 19 19 18 22 18 19 26 31 32 26 24 25 24 21 22 20 18 17 16 15
3 4 5 7 4 7 11 17 14 17 15 17 15 13 18 14 15 22 21 6 15 23 25 23 20 16 13 15 22 19 23 28 32 30 29 23 26 25 31 25 27 24 24 23 20 19 18 16 15
4 5 5 11 4 15 17 18 10 7 10 15 18 11 14 16 16 20 14 8 11 27 26 20 20 16 14 12 16 23 27 28 27 32 31 32 28 29 31 27 25 25 23 22 21 19 18 18 17
6 9 14 19 15 14 18 21 17 11 12 12 12 12 12 16 17 6 2 7 16 18 17 17 16 17 12 13 17 18 26 30 26 29 33 32 32 32 30 29 26 25 26 25 21 19 19 18 15
9 10 20 20 15 13 14 21 17 13 16 13 14 10 11 10 6 6 4 6 14 17 17 17 20 12 12 15 14 21 23 22 26 28 32 30 33 32 32 28 27 26 23 26 23 21 19 17 18
9 9 17 18 21 14 16 16 14 13 16 15 14 8 5 8 9 7 6 8 10 14 14 16 19 19 16 15 18 18 23 23 24 25 29 39 40 36 32 31 29 25 24 21 23 22 22 20 17
14 8 15 12 6 3 5 5 6 4 9 8 9 5 7 7 4 4 5 6 2 3 3 4 10 14 16 14 18 21 20 18 21 22 24 30 33 29 25 26 29 26 23 20 24 22 21 17 15
10 10 11 12 5 4 3 3 7 2 5 8 9 8 8 6 8 7 5 3 7 3 4 5 1 3 5 12 17 20 20 22 13 10 18 24 26 34 30 23 25 21 22 21 25 23 24 21 21
10 5 3 3 1 3 3 5 5 0 5 4 3 5 9 9 9 9 11 11 8 5 4 3 5 4 3 6 10 12 12 22 21 13 10 11 17 12 20 24 22 13 16 17 28 21 22 24 23
7 5 2 2 2 4 7 4 5 13 15 8 9 11 11 10 9 6 8 9 10 8 7 4 3 6 6 5 3 6 4 9 20 22 8 10 11 11 13 13 13 12 16 23 25 20 19 18 21
7 3 3 4 1 2 6 2 1 9 12 12 14 14 12 12 9 8 7 9 11 16 15 11 10 10 10 8 4 2 4 9 6 6 20 18 16 23 27 27 23 19 17 26 22 21 22 19 23
2 3 3 4 2 1 3 1 4 13 15 12 11 12 11 10 9 7 10 11 15 20 21 19 17 18 14 10 8 6 7 3 7 11 13 15 18 18 18 25 30 25 21 27 24 21 19 20 26
6 4 3 2 5 3 2 2 4 5 7 9 10 10 11 9 10 8 10 13 18 15 20 21 21 18 16 13 12 9 4 1 7 14 17 20 25 27 31 31 31 25 24 30 27 23 20 26 22
3 5 3 3 3 1 3 2 4 4 5 8 10 11 10 8 8 7 7 13 20 18 18 21 18 19 18 15 12 10 10 8 5 3 3 4 7 8 11 11 19 27 30 31 30 30 28 24 25
2 6 3 3 6 3 3 3 5 5 6 8 9 8 7 9 7 6 6 13 17 16 18 17 17 17 16 14 13 15 14 12 11 9 8 8 8 8 8 8 9 11 14 19 22 25 28 30 31

GFSSGP_925_spd_096.txt.gz
Wind_Speed
4 0 2 4 3 4 2 6 3 5 4 2 3 3 9 6 5 4 1 19 20 33 30 26 24 22 22 21 19 19 18 17 16 15 15 16 17 17 16 17 17 16 16 18 19 19 18 17 19
2 3 4 2 4 3 4 5 9 8 4 10 7 6 4 5 3 2 9 21 26 32 32 28 25 22 20 20 19 17 18 18 17 16 15 16 17 17 18 19 18 17 20 19 20 19 18 18 19
3 2 4 4 4 5 5 4 10 6 10 7 6 6 2 3 2 8 5 25 29 30 30 28 25 22 20 18 17 18 17 17 17 18 17 17 18 18 18 20 18 21 22 20 21 18 17 21 19
3 4 4 3 7 5 5 7 4 11 8 2 5 9 4 5 11 9 20 26 28 30 28 26 23 21 19 17 15 15 18 17 17 18 18 18 18 20 18 22 21 22 19 18 19 18 19 20 17
3 2 2 2 4 4 5 4 5 10 6 10 3 7 4 4 9 22 26 28 29 28 28 26 24 22 18 16 14 14 14 18 17 18 19 18 20 21 20 21 22 20 19 18 18 17 17 18 19
3 3 2 4 4 5 6 4 2 4 5 9 7 3 4 5 16 20 24 26 25 28 30 26 22 20 19 16 15 14 13 16 17 18 19 19 20 21 21 22 21 19 15 18 17 17 17 18 19
4 3 3 2 2 3 3 3 5 5 5 6 5 5 2 4 8 16 19 21 20 23 25 26 23 20 18 16 16 15 10 12 15 16 17 18 20 22 22 22 20 17 16 17 16 16 16 19 19
3 3 2 2 2 4 4 6 5 7 7 10 6 6 5 15 9 11 13 16 16 18 19 22 22 20 19 18 16 15 13 9 12 13 14 19 22 23 26 23 20 19 18 18 17 16 16 18 18
2 2 2 3 3 4 6 8 1 4 4 6 4 3 10 28 3 9 9 8 12 16 17 23 23 21 19 18 17 16 13 10 9 13 14 19 24 25 25 24 22 18 19 21 18 16 16 16 16
3 3 7 4 2 3 8 4 10 6 7 3 3 9 23 26 23 13 7 11 10 17 19 23 24 22 20 19 19 17 16 12 8 10 17 21 26 27 25 23 22 21 18 18 17 17 16 15 14
3 4 3 4 6 6 6 13 2 6 5 5 5 9 10 12 19 18 12 8 16 20 22 23 25 23 21 20 19 18 14 14 6 4 16 23 25 27 27 25 25 24 24 22 20 18 17 16 14
2 4 4 4 4 6 6 6 7 8 12 6 8 6 3 8 8 14 20 14 15 13 21 23 24 21 19 21 21 18 17 13 12 5 10 21 28 30 30 28 29 27 26 24 22 19 17 16 14
2 3 6 7 7 8 8 9 8 18 12 10 8 7 6 6 9 18 16 18 13 11 14 23 21 22 23 23 21 18 17 13 10 12 10 22 27 29 31 30 29 30 26 25 24 21 19 17 16
4 4 6 6 7 6 8 17 3 5 12 14 13 12 7 6 6 14 18 19 13 15 17 20 21 21 22 23 19 16 18 14 15 20 16 27 28 25 25 29 28 29 26 25 24 22 20 19 17
5 6 7 8 4 6 6 18 16 14 12 20 18 15 13 7 15 13 21 17 23 18 17 18 20 15 18 24 22 21 21 20 8 22 23 28 28 23 22 30 30 29 30 26 24 22 19 19 18
4 2 4 4 1 7 8 13 12 15 12 18 16 18 14 10 10 19 21 22 22 17 20 20 20 17 11 19 22 23 22 26 12 22 28 25 29 28 30 33 33 34 33 29 28 24 23 20 21
4 3 5 7 4 5 6 7 6 10 14 16 17 16 15 12 10 22 24 23 21 21 20 22 21 19 14 17 22 22 18 23 24 27 28 27 30 34 34 34 33 34 34 32 33 27 26 23 22
3 5 5 8 5 8 15 22 18 10 10 11 12 13 13 14 12 22 28 21 21 23 22 23 20 18 16 19 26 21 19 22 23 27 28 26 39 39 39 34 31 29 31 33 31 28 26 24 21
4 6 10 18 15 16 19 22 21 17 14 15 10 11 11 14 15 20 21 18 19 22 23 23 20 19 19 21 22 22 24 25 30 29 38 36 33 35 38 37 34 33 35 35 32 29 26 24 22
8 9 18 15 13 3 13 22 19 18 15 17 14 10 10 12 8 6 13 14 17 19 26 26 23 20 22 22 23 18 23 29 31 29 32 37 39 36 36 34 35 36 37 34 32 30 26 26 22
4 5 11 13 16 13 15 13 6 10 12 18 13 9 7 10 13 8 8 8 6 9 13 16 19 18 20 19 18 17 15 12 22 19 24 31 39 37 35 36 37 37 35 35 34 34 30 26 26
6 8 15 14 9 4 3 7 7 7 6 4 7 8 10 4 2 3 5 9 9 8 6 5 3 6 16 19 21 25 23 18 17 25 25 27 30 35 34 34 38 38 37 36 38 37 35 30 24
9 1 11 10 8 3 2 2 7 7 8 9 6 6 3 6 7 9 7 5 9 7 8 6 4 1 3 14 23 22 22 18 16 20 26 27 26 34 32 33 34 37 33 32 33 37 36 36 27
9 8 6 1 2 2 3 4 5 4 9 11 6 5 7 8 8 8 12 11 10 5 5 4 4 3 3 3 6 18 21 18 16 20 20 22 18 18 34 34 31 27 25 24 30 32 31 29 21
3 4 4 4 1 4 4 1 6 11 13 6 4 9 8 8 10 8 9 8 10 7 4 2 4 7 5 3 2 1 8 8 8 25 24 17 15 23 21 30 30 27 23 21 26 25 23 23 21
4 2 2 4 3 3 2 3 3 9 11 12 13 11 11 10 9 10 10 12 13 16 12 9 12 11 10 8 8 10 9 3 3 11 17 16 15 9 17 13 11 19 20 18 24 28 27 23 22
2 3 3 3 4 1 2 3 4 10 12 11 10 11 10 10 10 10 12 16 15 16 17 17 15 15 13 14 14 15 18 12 5 4 5 5 5 12 10 11 14 23 28 27 27 27 27 22 25
5 3 2 1 4 3 1 3 4 10 9 7 10 9 9 9 10 9 10 16 16 17 19 20 19 19 17 17 17 18 17 14 12 8 6 4 6 11 13 19 23 27 28 29 26 23 24 22 22
2 4 3 3 3 2 3 2 5 4 4 5 9 10 8 9 9 8 11 9 10 13 19 17 20 19 18 16 18 17 15 15 11 11 10 9 6 6 8 9 10 14 21 27 25 24 26 28 27
3 4 2 2 5 2 2 3 5 4 3 3 8 8 10 10 8 6 6 5 11 13 17 21 19 19 17 16 17 15 13 12 14 13 12 10 10 8 7 8 9 11 14 21 29 29 29 31 30

GFSSGP_925_spd_099.txt.gz
Wind_Speed
3 2 3 5 4 4 2 6 2 4 1 2 7 3 7 6 5 5 6 15 9 25 28 24 22 21 21 21 20 19 19 17 16 16 16 16 16 17 17 17 18 18 17 17 18 18 18 18 18
2 3 4 3 4 4 5 4 6 4 5 9 7 5 2 6 3 3 7 12 14 29 28 26 23 22 21 21 20 19 18 17 15 15 16 16 17 17 16 16 17 17 16 19 20 16 15 17 17
4 3 3 4 3 6 5 5 2 5 8 4 5 3 4 3 3 4 6 16 19 27 27 25 23 23 22 20 18 19 18 18 17 16 15 17 17 16 16 17 17 18 20 21 20 18 17 18 16
3 5 4 3 6 5 4 1 2 6 5 3 3 8 6 1 3 4 10 21 23 26 27 25 23 22 21 20 20 19 18 18 17 17 16 16 17 18 18 19 17 21 22 20 17 18 18 18 16
5 3 3 1 3 3 4 4 4 4 4 4 4 5 5 5 8 4 16 23 27 27 26 25 24 22 20 18 18 19 19 18 17 17 16 16 17 18 18 19 21 21 19 17 16 19 20 17 16
4 3 3 3 3 3 6 4 3 3 5 9 8 6 5 14 21 5 11 19 22 26 25 25 22 22 20 17 15 15 17 19 17 19 18 18 18 19 19 20 21 18 17 16 17 20 19 18 15
5 3 3 2 2 3 4 3 3 3 6 5 7 3 6 17 36 7 9 11 17 19 21 23 22 20 18 16 15 14 14 16 18 18 19 18 17 19 20 20 21 17 14 14 17 18 18 19 16
4 3 3 4 3 4 1 5 1 6 4 8 3 4 5 13 26 13 9 9 12 17 20 21 21 18 17 16 15 14 11 13 16 16 17 16 17 19 20 22 20 18 14 14 15 16 17 20 17
2 3 1 3 4 3 3 6 4 5 2 5 2 2 6 23 23 17 7 10 14 15 19 21 21 20 18 15 15 13 12 10 15 14 15 17 19 22 22 25 23 20 17 18 16 16 17 20 18
4 3 5 3 2 3 6 1 5 3 5 3 4 9 21 26 25 22 18 10 10 16 19 23 25 23 21 19 17 17 15 13 13 14 15 17 21 25 28 26 25 20 20 21 19 17 17 18 18
2 4 3 3 5 3 4 6 3 4 5 4 5 8 12 16 20 18 21 16 13 14 14 20 24 26 24 22 21 20 17 14 12 12 15 16 21 27 28 27 23 20 21 22 21 19 18 18 17
1 3 1 4 6 6 6 4 7 9 5 6 6 7 7 10 9 14 19 23 19 14 15 17 22 24 24 23 21 20 18 15 11 11 13 17 21 24 26 26 25 25 23 25 22 21 19 18 17
0 4 6 7 8 8 8 8 9 12 8 10 7 7 9 10 15 20 18 23 20 14 14 19 21 22 22 21 22 19 17 17 15 14 12 16 22 27 26 25 28 28 27 24 24 22 21 20 19
3 5 8 6 9 6 11 14 3 6 7 13 11 11 9 10 14 21 24 26 23 15 15 16 22 22 21 20 22 21 21 18 16 14 14 15 20 30 33 25 27 30 29 26 24 23 22 21 20
4 6 7 7 4 5 5 12 12 16 7 13 14 12 11 11 19 19 28 25 24 23 17 18 22 23 23 24 23 24 22 19 19 19 21 23 25 29 32 29 24 27 26 25 24 24 23 21 21
4 2 4 4 1 4 7 19 7 10 9 14 15 15 13 10 15 22 23 23 26 23 20 18 20 23 23 25 26 24 24 23 22 22 17 24 29 31 29 24 23 24 23 27 26 28 26 25 24
5 3 4 8 4 4 7 12 9 6 9 16 18 13 12 8 10 20 24 23 24 21 23 20 20 22 22 22 23 24 24 22 23 24 19 22 29 29 26 30 29 25 26 30 32 32 29 28 26
3 4 5 9 5 4 10 23 23 22 15 18 14 13 10 9 11 19 22 24 23 21 20 20 22 22 20 20 19 20 20 19 20 24 26 23 26 30 35 34 31 28 32 34 37 34 31 30 28
1 5 12 15 13 8 15 21 21 21 15 18 17 14 14 12 8 18 21 20 22 20 22 23 25 22 22 20 18 15 17 18 21 24 26 27 32 25 31 28 32 35 39 40 38 35 32 32 28
6 10 14 13 11 7 14 20 19 21 14 17 17 14 13 7 7 11 18 17 19 21 21 22 26 23 23 21 19 14 14 18 23 26 27 28 30 29 28 33 34 36 40 35 34 35 28 30 29
7 9 9 11 9 11 10 9 5 5 5 7 10 8 6 9 10 9 6 6 7 9 13 17 18 18 19 18 18 17 11 15 16 25 30 34 32 29 29 33 35 38 40 36 38 36 34 24 30
6 10 15 12 10 5 5 6 6 8 9 8 8 6 8 9 8 3 7 9 10 10 9 6 7 12 14 12 16 19 17 14 22 25 30 34 35 32 30 32 37 37 38 38 40 40 38 31 23
10 4 6 11 8 5 1 1 7 6 11 19 9 5 2 3 3 8 8 11 14 13 11 11 8 4 1 6 12 15 16 20 26 23 27 32 32 29 29 29 33 37 37 39 38 37 38 37 27
10 6 3 0 1 2 3 2 5 9 11 14 12 8 9 8 10 11 14 14 11 7 8 9 6 5 2 1 1 4 19 22 21 22 22 26 29 30 29 26 29 30 31 32 33 33 33 32 33
4 4 4 5 4 3 2 1 7 10 12 8 8 8 9 9 12 11 11 13 14 10 7 9 8 9 6 4 2 5 9 12 20 20 21 22 24 25 26 23 27 33 33 30 21 19 20 21 27
3 1 1 5 3 3 1 4 2 8 10 8 8 8 8 8 8 10 11 15 17 18 17 15 13 13 12 10 10 10 14 4 10 10 12 21 20 24 21 23 27 30 33 32 27 27 20 18 20
1 2 1 4 4 3 2 3 2 11 12 9 10 9 9 9 9 12 13 19 18 20 18 18 17 16 17 14 13 14 15 16 15 15 8 10 10 7 4 2 4 7 15 28 24 23 26 26 29
2 3 2 0 4 4 1 2 5 11 10 10 9 9 10 10 11 10 11 16 17 18 17 20 18 18 16 17 19 16 16 17 16 15 15 15 15 10 7 7 10 14 16 16 18 21 23 23 29
3 3 2 2 2 2 4 2 3 6 5 7 8 9 10 11 10 9 11 12 15 15 19 20 16 22 18 19 17 15 16 16 19 18 16 15 13 14 13 10 11 12 11 15 18 23 23 26 27
3 3 2 2 3 1 2 3 4 3 3 4 7 7 7 8 7 8 10 10 11 11 16 15 20 19 19 17 16 18 18 17 17 16 15 15 13 11 11 10 9 10 12 12 20 23 27 28 27

GFSSGP_925_spd_102.txt.gz
Wind_Speed
1 3 3 5 4 4 3 6 1 1 2 2 4 3 5 4 4 5 9 11 2 20 23 20 19 18 19 19 19 18 16 15 16 17 15 15 15 15 16 16 16 17 16 16 17 18 18 18 17
4 5 4 3 4 3 5 3 3 2 2 8 5 1 2 5 4 7 1 7 11 22 25 22 20 19 19 18 18 17 17 16 15 15 16 15 15 16 16 16 17 18 18 16 19 19 18 18 17
6 3 4 4 3 5 4 1 1 4 7 2 4 1 3 4 6 5 6 10 14 23 24 22 20 21 20 18 18 18 17 15 15 14 15 16 17 17 17 17 16 16 15 19 17 16 16 16 15
3 5 4 4 5 5 3 1 4 7 5 4 3 4 5 18 13 19 14 11 14 22 22 21 19 20 20 20 18 18 17 17 16 16 15 15 16 16 16 17 15 18 18 21 18 17 17 16 12
6 3 4 3 3 4 4 3 3 3 2 4 5 6 4 7 30 13 3 12 15 20 20 21 20 20 20 19 19 17 17 16 16 16 16 15 15 15 16 18 17 21 21 20 14 17 18 16 14
4 3 3 2 3 4 6 4 1 2 3 5 5 6 2 17 37 29 7 7 13 17 19 20 17 17 18 17 18 18 17 16 16 16 16 16 16 16 17 17 19 21 19 17 15 17 17 16 13
5 3 3 2 2 4 3 6 3 1 4 2 4 3 6 12 31 31 14 4 10 14 17 19 18 17 16 15 14 15 16 17 16 16 16 16 15 16 17 18 21 20 18 16 16 20 17 16 13
4 4 3 2 2 4 5 6 2 4 3 6 1 2 5 10 26 27 19 7 9 13 17 18 19 18 17 15 13 13 13 14 16 16 16 16 14 15 18 18 19 18 16 16 17 21 19 17 14
3 4 2 2 4 4 3 6 5 4 4 4 4 2 4 21 24 26 26 23 11 11 17 19 21 20 19 17 16 14 12 12 13 16 16 16 16 16 18 20 21 19 15 13 17 20 19 20 16
4 3 7 3 2 3 5 2 3 4 4 3 7 5 19 27 25 21 19 19 20 16 14 16 20 21 20 20 19 17 16 13 13 15 16 17 18 19 22 23 22 19 16 15 15 16 18 21 19
2 4 4 2 3 3 4 5 3 3 4 6 5 7 12 18 22 17 21 19 16 19 15 14 18 21 23 22 20 19 18 16 13 15 16 17 19 21 24 25 24 22 18 18 18 17 18 21 21
1 1 3 3 4 5 6 5 5 6 5 9 9 6 5 10 10 17 20 25 23 21 18 15 15 22 23 24 23 21 18 15 13 13 15 17 20 24 26 27 27 25 22 22 22 21 20 20 20
3 4 6 7 9 6 6 9 7 6 15 11 11 9 8 9 17 26 28 26 24 23 18 16 15 19 24 23 22 19 19 17 15 14 15 16 17 22 25 27 27 25 22 25 24 23 21 21 20
2 4 6 7 6 5 8 7 3 5 7 9 11 14 10 12 18 25 26 29 27 24 20 14 16 19 21 24 23 13 20 18 16 15 14 13 14 19 23 30 30 27 25 25 25 23 21 21 20
2 5 7 3 2 4 5 5 10 10 7 12 11 11 11 11 20 22 30 29 30 26 21 19 16 18 22 21 24 25 26 23 22 20 17 16 15 18 25 29 30 29 30 28 25 23 21 21 21
4 4 5 4 6 4 6 11 2 5 6 16 12 13 11 11 17 26 30 34 28 24 22 19 15 18 24 24 22 23 26 25 23 21 19 19 21 21 24 30 32 30 29 29 24 25 25 25 23
7 2 2 8 2 2 1 15 2 5 8 13 16 17 18 19 13 24 25 29 30 24 22 19 16 20 23 24 23 23 24 24 25 24 23 21 21 21 27 32 34 30 31 30 25 27 26 25 26
2 3 4 6 5 1 7 25 23 22 14 19 21 21 18 16 16 20 22 25 30 26 22 20 16 17 20 21 19 20 23 27 27 26 24 21 20 19 23 31 32 27 28 28 29 27 28 27 26
2 1 6 8 10 8 11 20 22 22 16 18 19 19 17 16 11 20 24 25 25 27 23 20 17 18 20 20 14 14 18 22 21 25 22 20 18 19 23 26 28 27 30 27 29 30 30 28 30
2 2 7 8 7 5 12 20 20 19 11 10 12 17 12 8 6 11 20 21 25 26 24 20 20 19 23 22 18 14 13 15 19 21 20 20 17 19 23 25 26 30 30 33 30 33 26 29 31
3 4 5 7 8 12 14 12 4 6 6 7 9 7 5 8 11 10 7 17 21 17 19 19 17 17 20 21 18 13 13 10 13 16 18 18 21 24 24 29 28 28 32 35 42 38 34 26 28
4 7 10 9 7 4 2 6 5 6 9 14 14 12 9 8 9 9 6 8 11 12 12 13 13 13 14 15 15 15 13 8 12 15 18 20 19 24 30 30 32 32 33 34 32 39 38 31 22
8 2 5 9 10 5 3 3 6 8 14 15 19 13 12 8 14 7 5 4 4 8 14 15 14 12 6 6 10 10 11 13 17 19 21 23 22 23 26 30 33 34 34 34 35 33 36 34 27
6 5 5 2 2 2 4 4 4 7 12 14 8 8 11 10 7 10 15 14 16 17 13 14 15 12 9 7 4 1 5 12 16 17 18 23 26 27 29 30 33 32 31 38 40 39 37 36 33
1 4 4 5 3 4 4 2 5 10 11 13 11 6 7 6 10 9 11 14 18 19 20 16 16 16 10 9 7 6 6 8 11 15 16 17 20 24 27 28 30 35 35 31 33 33 34 35 33
3 2 1 4 3 5 0 3 3 6 9 10 8 8 10 11 9 11 11 14 17 19 20 20 18 18 15 13 13 13 16 12 8 7 3 5 8 10 15 27 29 30 33 28 29 25 26 24 23
0 2 1 4 1 4 2 4 3 10 11 11 10 10 11 10 10 10 12 16 18 20 21 21 21 23 21 18 17 17 16 18 18 16 15 14 14 14 10 10 10 11 19 29 29 28 26 26 23
4 2 2 1 4 5 4 2 5 11 9 9 9 10 12 10 10 10 11 15 19 19 22 22 23 23 21 21 19 19 18 19 20 20 20 19 18 18 18 18 14 10 11 12 13 15 28 28 30
2 0 1 0 3 2 4 3 2 6 5 7 7 7 8 9 9 9 10 15 17 18 21 22 23 20 21 17 17 20 19 18 19 22 23 21 19 19 18 17 19 17 15 12 13 14 15 20 23
1 3 3 3 3 2 1 4 3 5 5 2 2 4 4 7 9 9 12 12 15 14 15 18 20 20 16 19 23 21 20 20 21 21 21 21 20 18 18 17 17 17 17 16 15 13 13 18 21

GFSSGP_925_spd_105.txt.gz
Wind_Speed
3 4 4 5 3 2 2 0 2 2 1 1 4 3 3 4 4 1 14 3 8 14 20 19 19 19 18 17 17 15 15 16 15 15 15 14 13 12 14 15 16 17 16 16 18 18 17 16 15
5 6 5 2 3 2 1 1 1 1 2 9 3 2 1 2 3 8 8 15 5 13 17 17 19 18 19 19 18 17 15 14 14 14 14 13 14 14 14 14 16 18 17 17 19 18 17 16 16
7 4 3 3 2 3 2 2 1 3 5 2 3 1 3 6 11 13 17 14 4 14 18 18 18 16 18 19 19 18 18 15 14 14 14 15 14 15 15 14 16 17 16 17 21 17 16 16 15
3 5 3 2 3 2 2 4 2 4 2 4 3 1 4 10 8 15 20 7 6 13 16 17 18 18 18 18 18 18 18 17 16 13 13 14 15 15 15 16 16 15 16 20 19 17 17 16 14
6 3 3 2 2 3 2 3 2 2 2 4 5 3 3 3 22 25 13 5 8 13 16 15 15 18 18 17 16 16 16 16 16 16 14 14 14 15 16 16 15 16 18 18 15 17 18 16 12
3 2 3 3 3 3 2 2 1 2 3 3 4 5 3 6 28 30 17 7 7 11 15 16 15 14 15 16 16 14 15 15 15 16 15 14 14 14 15 17 17 19 21 18 13 16 17 17 15
5 3 4 4 2 3 0 4 3 1 3 1 4 5 3 6 26 25 24 11 2 8 12 15 15 15 15 15 15 16 16 14 15 16 16 15 14 14 14 16 17 20 21 18 14 16 16 16 15
3 3 4 3 3 3 3 3 1 2 2 7 1 3 4 7 25 25 20 19 9 5 11 14 15 16 15 15 14 15 16 18 18 15 17 16 16 14 15 17 18 20 20 17 15 18 17 16 15
1 3 1 3 5 2 1 5 1 1 3 3 3 3 7 18 25 27 26 23 20 13 8 15 18 18 17 16 16 15 16 15 16 18 17 16 16 16 16 18 19 20 18 16 15 19 18 17 14
3 3 5 1 2 2 4 1 3 3 2 4 9 10 13 19 21 18 18 20 23 21 18 12 17 19 19 19 18 17 15 15 15 16 19 19 18 18 18 19 20 20 18 16 16 19 19 18 15
1 3 3 1 1 3 3 4 2 1 5 10 7 6 10 14 18 18 18 17 21 23 22 18 14 19 21 21 21 18 16 16 15 16 17 18 19 19 19 19 21 20 19 17 15 18 19 21 21
3 3 1 2 0 3 3 3 4 7 14 10 11 10 7 11 16 16 18 23 26 27 25 22 16 15 20 23 23 20 19 17 15 14 16 17 20 20 22 21 21 21 22 22 19 19 20 20 22
3 1 4 4 7 7 4 8 6 16 16 14 14 13 13 13 17 21 27 32 32 29 27 23 19 16 17 21 24 22 20 17 15 15 16 17 19 20 23 26 27 26 25 23 22 22 21 20 21
0 3 5 4 5 4 4 4 1 7 7 9 9 12 12 14 21 21 23 28 28 30 28 24 21 18 17 19 21 23 19 15 16 17 18 18 17 16 18 21 25 28 26 25 24 24 23 21 20
1 5 5 3 4 4 4 2 8 12 8 11 12 13 15 15 18 21 23 26 30 30 27 25 22 18 18 21 22 20 21 9 21 21 18 17 15 14 15 19 23 27 28 27 24 25 25 23 20
4 4 5 1 5 1 3 5 4 5 6 14 16 16 16 18 22 25 25 31 32 32 28 24 21 19 18 21 22 28 26 19 14 15 21 19 15 15 17 20 24 29 29 27 27 25 25 25 21
6 1 2 7 1 2 3 11 4 11 17 19 17 17 17 21 22 23 25 31 34 32 26 24 21 19 20 20 23 24 25 28 29 27 25 19 18 19 20 21 23 25 28 29 28 28 27 22 23
1 1 3 5 3 3 10 22 15 15 14 17 17 17 17 19 23 25 24 30 29 28 25 26 23 21 21 20 21 20 20 22 25 26 23 20 20 19 19 22 24 24 24 25 25 25 29 21 21
4 1 3 5 6 4 9 16 21 16 12 13 13 15 18 19 19 19 24 29 27 29 26 25 25 21 20 22 20 18 18 22 24 24 23 22 21 20 19 20 23 24 25 25 23 21 22 30 29
2 2 5 9 7 5 11 20 17 9 5 7 12 15 17 18 15 16 19 22 23 24 27 24 26 18 20 25 20 13 14 15 18 16 18 17 17 18 21 21 25 23 21 22 22 19 19 18 24
2 3 3 6 7 9 9 8 4 2 2 5 9 7 11 11 13 14 14 17 21 23 26 21 23 28 20 26 20 14 9 8 8 11 13 16 16 18 20 21 22 22 22 24 26 27 24 19 19
3 8 7 6 6 4 5 6 5 4 10 9 13 9 13 14 14 14 12 13 13 16 17 16 17 21 29 24 17 13 11 7 7 8 9 9 10 12 16 21 24 23 24 27 27 29 31 27 22
3 4 6 8 6 4 1 4 5 4 9 16 15 12 9 12 11 12 12 16 13 8 5 8 12 12 8 8 9 9 8 8 10 11 15 16 17 16 17 18 22 24 26 30 31 30 33 35 32
4 3 2 2 2 2 4 2 4 4 9 15 14 13 12 8 10 11 11 15 18 19 18 11 11 15 14 14 10 7 2 4 8 12 14 15 15 15 16 18 21 24 25 26 28 31 33 35 35
2 3 3 4 2 4 4 2 7 5 11 13 12 13 12 12 10 9 11 14 19 23 24 22 23 23 19 18 16 12 9 8 10 10 9 9 7 9 11 14 19 22 25 28 29 31 32 34 36
1 1 2 4 3 5 2 4 3 3 9 12 10 10 10 11 10 11 13 15 18 21 23 23 24 23 22 21 19 18 18 18 18 18 16 16 15 12 12 8 8 7 13 25 32 34 33 32 35
1 1 0 3 1 3 2 4 2 5 10 8 9 10 12 10 10 11 14 17 19 22 23 24 20 22 25 25 23 22 21 22 23 23 21 20 18 18 18 16 14 12 14 13 17 25 28 30 32
4 2 2 0 3 4 4 3 5 12 8 6 5 5 8 9 10 9 13 16 19 19 22 23 23 23 23 24 23 22 20 18 20 21 20 21 19 20 19 19 18 18 16 18 16 15 13 13 22
1 2 1 1 2 2 4 3 2 5 5 3 3 3 4 6 7 7 10 14 15 17 21 18 23 21 22 23 22 21 19 20 19 18 19 18 20 18 20 17 16 17 18 17 18 16 15 14 16
0 3 4 2 3 3 2 5 1 2 3 1 0 1 0 5 7 6 8 10 11 12 13 18 21 20 18 17 18 19 21 19 20 20 20 17 19 19 19 20 21 19 19 17 19 18 18 19 19

GFSSGP_925_spd_108.txt.gz
Wind_Speed
1 1 2 4 5 4 4 3 1 4 5 2 2 4 3 6 6 3 7 17 13 4 10 16 17 18 17 16 16 16 15 15 15 14 12 12 12 11 12 12 12 12 14 16 16 15 13 12 12
2 2 2 2 4 6 5 3 4 3 1 4 2 4 5 3 5 10 8 22 12 3 9 13 16 17 18 16 16 15 16 15 15 14 13 12 11 11 13 13 13 14 13 17 19 18 16 16 13
3 1 3 3 3 4 3 4 5 2 2 2 2 1 3 3 7 11 16 20 9 4 8 9 14 15 17 17 16 15 14 14 15 16 14 13 13 11 12 13 15 16 12 15 19 16 15 16 16
4 4 2 4 4 3 4 7 3 3 2 4 3 3 5 7 8 13 19 13 7 4 7 9 13 14 14 15 16 16 16 14 13 12 12 14 13 13 13 12 14 16 13 17 18 14 15 15 15
2 2 3 3 3 3 3 1 3 0 1 3 5 2 1 3 10 15 18 11 7 5 7 8 13 12 12 15 14 15 15 16 15 14 13 13 13 14 15 13 15 15 14 20 17 14 14 14 13
3 1 4 5 4 4 2 0 2 1 1 2 3 6 2 4 16 20 19 14 8 4 6 8 11 13 12 12 13 14 15 14 14 15 15 15 14 14 14 15 16 15 16 20 16 15 15 14 11
2 3 2 3 4 4 3 1 1 1 3 1 7 5 1 3 13 17 17 16 11 5 3 8 9 11 14 15 15 13 13 14 14 14 15 14 14 14 14 16 16 16 19 19 15 14 15 14 12
1 1 4 2 3 3 3 2 1 2 2 7 2 3 3 3 15 16 14 13 13 11 6 5 9 11 11 12 16 15 16 15 15 15 16 16 15 14 14 15 17 18 21 20 15 14 17 16 14
1 2 4 5 5 4 3 1 1 2 8 7 6 10 11 18 15 16 15 14 12 11 12 10 10 10 13 14 13 15 15 16 17 17 17 15 14 14 14 15 17 18 21 20 17 15 18 17 15
2 3 3 2 2 2 1 3 5 5 8 11 11 15 15 13 18 17 16 16 15 13 13 11 11 11 14 15 15 14 13 12 12 14 14 15 15 15 15 16 19 20 21 19 17 16 18 18 13
1 1 3 3 2 3 3 6 2 6 10 7 11 12 12 17 18 18 20 17 16 16 14 13 13 10 13 14 15 15 18 17 14 13 13 14 15 15 15 15 16 19 21 17 16 15 16 16 15
2 2 1 1 2 4 6 7 6 13 11 10 13 15 17 16 19 20 21 21 20 20 20 16 13 12 12 16 14 17 19 17 17 11 12 13 15 15 15 17 16 18 19 19 17 15 16 18 18
2 2 2 1 4 7 9 10 11 19 17 16 13 13 14 15 20 20 21 24 23 22 22 19 15 13 11 14 17 15 17 21 16 12 12 13 15 15 15 18 16 18 18 19 18 16 16 18 18
2 3 4 2 3 4 4 6 3 2 2 7 8 12 14 17 22 24 23 24 24 23 22 21 19 15 13 13 18 19 15 19 18 15 14 14 14 14 15 15 16 17 18 21 20 18 18 18 18
1 3 3 4 2 1 4 8 9 5 5 10 17 18 18 17 20 21 24 26 26 27 25 22 22 19 16 15 15 21 16 17 21 16 12 17 13 13 12 13 15 16 19 22 25 21 17 19 17
0 2 2 4 2 2 4 7 5 4 8 19 18 15 15 17 19 20 22 25 26 28 30 26 22 21 19 18 16 20 17 18 20 17 10 13 17 16 12 12 12 13 15 17 19 19 20 21 19
2 2 3 2 3 3 2 11 9 12 18 17 15 15 15 17 20 23 23 24 26 26 27 28 23 22 21 19 18 19 24 22 17 19 23 20 21 17 15 14 14 13 16 18 21 20 20 20 22
1 2 3 7 2 7 13 15 14 17 16 13 12 13 15 17 19 24 23 20 22 23 23 22 21 20 19 19 18 19 24 28 23 19 18 19 16 15 16 16 16 16 17 18 21 21 21 20 20
4 1 5 7 4 9 9 17 19 16 6 6 11 14 16 17 21 20 23 20 19 20 21 22 19 19 18 19 17 18 21 22 24 27 22 25 29 24 23 18 16 16 22 20 22 22 20 19 19
1 3 5 8 2 9 17 20 15 3 4 6 13 15 17 16 17 21 25 19 17 19 19 18 19 20 18 20 19 13 15 18 16 14 16 20 18 18 18 16 16 16 19 19 21 19 18 19 18
2 3 3 5 13 9 12 7 3 4 4 7 14 12 15 13 16 16 22 24 18 17 16 17 19 20 20 19 17 13 10 8 10 8 10 12 14 14 14 15 17 14 17 20 22 22 21 19 18
1 4 3 6 9 5 8 5 6 2 6 8 15 14 13 15 14 15 20 21 20 19 17 16 17 15 15 15 16 15 12 10 7 5 4 4 7 9 12 14 16 17 17 18 19 21 21 21 19
4 0 6 8 6 6 3 4 4 4 6 13 17 14 13 14 15 17 18 16 19 20 12 9 9 8 12 12 12 10 11 5 3 2 5 5 8 11 11 12 15 16 17 17 19 21 23 25 26
4 5 1 2 1 3 4 3 5 3 7 15 14 11 13 13 13 14 20 18 17 18 16 14 12 14 17 17 12 7 7 6 6 6 5 5 8 9 5 8 12 15 18 17 22 23 28 26 29
3 3 2 2 3 3 6 5 10 3 6 10 11 11 12 11 12 13 16 18 16 16 21 20 20 21 23 20 18 14 13 12 13 11 10 11 9 8 8 6 7 11 17 17 20 25 28 29 30
1 3 2 4 3 6 5 5 3 1 5 7 7 8 9 11 10 11 14 16 18 18 19 19 22 24 25 24 19 18 16 19 19 17 14 14 11 11 11 11 8 10 8 6 7 13 27 31 32
2 2 2 4 3 5 2 4 5 4 10 8 7 6 8 9 9 10 14 16 17 19 21 19 19 19 21 20 20 18 19 21 18 17 16 14 13 12 13 13 12 12 13 12 12 12 15 12 24
3 2 3 4 5 5 3 4 4 10 10 9 7 5 6 6 7 8 11 13 14 16 18 21 21 20 21 23 17 16 18 18 15 15 15 14 12 12 14 14 15 15 16 14 15 16 15 17 15
4 3 6 3 3 3 5 1 2 4 6 7 6 4 6 5 5 6 9 11 12 13 15 16 18 16 16 18 16 17 19 17 13 11 13 12 11 13 15 15 16 17 16 17 17 17 18 18 20
3 5 5 3 2 4 4 6 3 1 1 1 1 1 4 2 2 3 6 7 10 12 12 13 13 13 14 13 13 16 16 15 12 12 13 11 12 15 15 15 15 14 14 14 16 16 15 17 17

GFSSGP_925_spd_111.txt.gz
Wind_Speed
2 3 4 6 5 5 10 5 2 5 5 4 2 5 9 6 8 4 6 14 15 10 3 12 13 12 12 12 11 10 11 11 11 11 10 10 8 7 7 8 9 10 11 10 10 10 12 10 8
3 5 6 3 6 8 6 5 5 4 4 1 2 4 4 7 11 6 9 22 15 10 4 10 13 12 12 12 12 11 11 11 11 10 10 10 8 7 8 9 9 9 10 12 12 11 10 11 9
3 5 4 4 5 7 3 4 6 3 2 1 1 2 4 4 8 9 17 16 13 8 3 7 11 11 12 11 11 10 11 11 10 10 9 9 8 8 8 10 9 12 9 12 14 15 11 11 11
7 5 3 5 8 6 5 7 3 5 3 2 3 2 5 6 4 12 16 14 12 11 2 6 7 10 10 12 12 12 11 11 12 12 11 10 11 9 9 10 11 13 12 14 17 14 11 12 11
4 3 5 5 4 4 3 6 2 2 3 1 4 1 2 4 6 12 16 14 12 11 6 4 5 8 9 11 12 13 12 12 11 11 10 11 12 11 11 12 11 14 14 15 17 13 13 13 12
4 4 6 8 6 5 3 1 1 2 1 2 3 5 1 7 8 12 15 15 12 10 7 4 3 9 8 9 12 13 13 13 13 12 12 12 12 12 13 13 13 14 14 14 17 15 13 14 13
5 4 3 1 8 6 4 1 2 2 2 0 4 5 4 5 7 12 12 12 12 11 9 9 6 6 10 12 12 12 14 14 14 14 14 13 12 12 13 14 16 17 16 16 18 14 14 15 13
3 3 3 1 7 5 3 2 2 4 1 5 3 3 4 5 11 13 11 11 10 10 10 9 8 7 9 11 13 15 14 13 14 14 14 14 14 14 13 14 15 16 16 18 20 15 15 15 13
2 3 4 3 3 6 3 2 2 2 9 8 7 8 11 15 16 14 14 11 10 8 8 9 9 9 10 12 12 12 15 16 16 15 15 15 13 14 14 14 15 17 17 19 20 15 15 16 14
3 3 3 5 6 5 3 3 4 5 8 9 10 10 8 9 13 15 15 14 14 12 11 9 9 9 11 13 13 12 13 13 13 14 14 13 14 15 16 15 17 18 18 20 20 17 14 17 12
2 3 3 3 4 3 2 6 2 7 7 2 8 11 12 14 15 15 16 16 16 14 14 13 12 11 9 11 14 14 14 13 13 14 13 13 14 16 16 15 12 17 19 20 19 16 14 15 16
4 1 1 2 2 2 4 7 7 12 14 12 13 12 12 12 12 13 15 17 18 17 17 18 16 14 11 12 15 18 18 16 16 16 14 14 13 14 15 17 17 16 17 21 19 19 16 17 18
3 4 1 0 3 7 8 9 11 15 13 9 7 7 10 12 16 18 19 20 20 21 20 18 17 17 16 13 14 17 20 18 16 14 14 13 13 14 14 16 14 13 16 18 21 22 20 19 18
3 1 1 2 2 4 6 7 4 1 1 4 6 11 13 15 19 20 20 21 21 22 22 20 19 19 20 18 17 16 19 18 17 16 15 18 13 13 15 15 15 16 17 18 20 19 19 17 18
2 2 4 4 2 3 6 11 10 10 4 9 14 13 13 11 14 15 18 20 22 23 24 25 23 20 22 21 20 19 19 24 19 18 17 20 16 12 13 13 15 15 17 17 18 17 18 18 18
3 3 5 7 3 3 3 9 6 1 8 16 17 14 12 11 11 16 18 21 22 24 25 25 23 24 21 22 22 21 19 22 22 19 17 19 18 16 12 12 13 12 11 13 14 17 21 21 20
6 5 5 7 3 1 7 10 10 10 14 16 15 12 10 10 12 17 20 21 22 22 23 24 23 25 23 23 24 24 21 22 21 19 17 18 15 14 15 12 12 12 12 13 14 17 18 17 19
4 4 3 4 5 6 13 18 16 15 14 13 9 9 11 12 15 19 21 23 22 20 21 22 22 22 21 20 21 23 21 24 22 20 19 17 18 15 13 14 10 19 15 13 16 19 18 21 18
2 2 5 6 5 10 9 15 18 14 7 4 6 11 14 15 19 20 23 23 27 22 20 20 21 22 20 18 19 20 17 22 27 23 20 16 15 16 17 14 12 18 18 17 18 20 18 19 21
3 4 5 6 1 10 13 21 17 2 2 3 7 13 15 17 18 21 24 26 26 30 26 23 23 21 20 18 19 17 15 24 26 26 23 19 17 17 18 17 19 16 20 17 18 20 16 18 18
1 3 5 5 14 12 10 9 4 7 5 3 7 12 13 14 16 16 22 23 23 25 26 27 22 21 20 18 17 18 20 20 20 22 20 19 19 19 17 17 18 22 20 18 18 19 21 19 20
1 1 5 8 10 4 10 5 6 2 4 5 11 14 10 13 16 15 19 20 22 23 23 24 21 19 20 17 17 19 19 17 20 22 19 17 16 15 16 17 17 20 20 21 21 21 21 22 20
4 4 8 8 5 7 5 3 3 2 7 6 14 11 10 11 13 13 16 17 19 22 22 20 17 10 13 11 17 13 14 21 24 16 14 13 8 6 7 12 14 17 18 21 22 21 21 22 21
4 5 3 3 2 3 1 3 5 3 7 11 12 8 10 11 13 13 16 16 20 24 22 20 16 14 9 4 6 10 6 11 24 16 11 12 7 3 1 4 6 8 12 17 20 21 23 24 23
5 4 2 2 2 2 4 2 10 9 4 8 10 8 8 9 10 11 12 17 19 23 23 20 20 18 13 11 10 13 12 13 6 9 9 13 12 10 8 4 4 4 6 9 12 14 15 19 23
4 4 2 3 4 6 3 5 1 1 2 4 5 4 6 9 8 9 11 14 16 18 20 19 18 17 19 23 18 9 15 18 17 12 15 17 13 13 11 9 8 7 6 6 9 7 8 10 15
3 2 3 3 4 4 5 6 12 5 5 6 5 5 7 8 6 8 10 12 13 15 17 18 16 16 19 16 16 20 19 17 14 18 20 19 16 13 12 11 11 11 12 11 12 11 13 15 14
3 1 2 3 4 5 5 9 5 3 6 5 5 5 4 6 5 5 7 10 11 11 12 15 15 17 17 17 17 18 16 17 17 17 18 16 15 14 14 15 15 15 14 14 13 14 15 17 16
4 3 4 3 4 4 6 3 4 4 2 2 2 1 3 4 3 4 5 7 8 8 11 12 12 12 11 14 15 16 16 16 15 15 15 16 15 14 15 14 14 16 17 14 16 18 18 18 18
6 10 9 5 5 7 8 8 6 4 3 4 2 3 4 4 4 3 3 2 4 7 8 11 11 13 14 14 12 12 11 11 12 13 13 11 10 11 11 12 12 12 13 14 15 17 17 17 17

GFSSGP_925_spd_114.txt.gz
Wind_Speed
1 2 6 3 1 3 5 3 7 8 2 5 5 6 3 8 6 5 9 21 15 13 3 6 9 7 7 7 6 5 7 7 7 8 7 7 5 4 4 5 6 7 7 6 7 6 12 8 4
2 5 5 3 2 4 0 6 6 9 8 5 2 3 4 6 7 4 11 23 14 14 3 6 8 7 6 6 5 6 6 7 7 7 6 6 6 5 4 5 7 7 8 10 8 10 9 9 7
1 6 1 3 4 1 3 5 10 8 4 3 1 3 6 4 10 6 14 16 12 12 3 3 9 7 8 8 7 6 6 7 6 6 6 6 6 6 6 7 6 9 5 9 10 11 9 8 9
5 3 3 2 8 4 8 8 6 7 3 3 5 8 5 7 3 9 12 15 12 10 12 3 4 7 7 9 9 9 8 8 8 7 7 6 7 8 8 7 8 10 9 10 13 12 9 9 10
6 3 3 4 3 3 11 8 5 4 5 7 6 2 6 7 8 10 13 14 15 8 9 5 3 4 6 7 8 9 9 9 9 10 10 9 9 9 8 8 8 10 13 10 14 13 10 10 11
1 2 3 5 7 7 7 6 3 4 4 6 1 7 4 12 11 11 12 13 13 11 7 7 3 4 5 5 8 9 11 11 11 11 11 11 10 10 10 10 10 10 12 10 14 14 11 12 12
3 3 5 4 8 6 5 4 3 6 4 6 3 4 5 8 12 10 11 11 11 12 9 7 3 3 6 9 10 10 11 12 13 13 13 13 12 11 10 11 12 13 13 12 15 16 13 13 12
3 2 3 6 6 5 4 2 6 5 5 2 2 2 4 8 14 11 10 11 8 9 10 9 5 5 5 6 12 12 14 13 14 14 15 14 14 14 13 13 13 15 15 14 15 17 13 14 13
2 2 2 4 6 6 4 2 3 2 4 5 4 6 10 15 12 13 13 10 10 9 8 11 9 7 8 10 9 9 13 16 16 16 16 16 17 16 14 15 16 15 15 15 16 18 15 14 14
1 2 6 7 8 6 6 3 6 4 6 5 6 7 4 12 15 15 13 13 12 11 10 10 10 11 9 10 12 10 13 15 15 19 19 17 17 15 16 17 19 15 15 15 17 19 16 15 16
2 3 4 7 8 7 5 5 3 4 6 3 7 9 11 13 13 11 14 15 16 15 15 13 14 15 14 10 15 17 16 14 13 16 17 17 16 14 16 17 12 17 15 16 18 19 19 19 18
3 4 6 3 4 3 4 6 5 8 9 8 5 6 6 7 8 10 11 15 17 18 19 18 18 17 17 16 16 17 18 22 21 20 18 11 18 17 16 17 14 17 18 19 20 22 23 21 19
2 3 2 5 1 4 5 7 7 10 11 7 5 4 8 6 9 14 15 19 19 19 20 20 19 19 21 19 18 19 19 21 24 22 23 22 14 18 15 15 15 15 18 18 22 23 25 23 22
4 1 3 3 2 3 4 5 6 3 4 2 6 8 6 8 10 12 13 13 17 20 22 22 22 20 19 18 20 20 21 21 25 24 22 20 22 17 18 19 19 12 16 18 20 24 27 25 23
4 3 5 5 2 2 4 7 9 9 3 4 8 8 6 6 10 8 18 22 23 24 26 25 23 22 21 23 22 22 21 22 24 25 25 28 23 20 18 17 18 19 18 19 19 21 22 24 21
4 2 3 3 3 4 3 7 4 6 4 7 9 6 6 7 4 14 17 19 22 24 24 26 26 24 25 26 23 22 24 25 25 27 26 27 25 24 21 17 15 14 15 14 16 19 22 21 24
4 3 5 4 2 2 4 7 9 9 9 8 6 6 6 5 12 17 18 19 19 23 24 24 25 27 25 24 26 24 26 25 26 23 30 24 27 25 25 20 20 16 9 7 8 14 16 18 22
4 3 2 1 5 4 8 15 16 11 8 6 6 4 7 8 11 16 19 19 22 23 27 29 27 24 25 26 25 22 25 28 26 25 27 32 26 26 26 24 18 13 11 11 9 14 17 17 16
5 5 6 6 4 3 8 11 15 10 2 5 3 6 8 8 12 20 20 24 25 23 24 28 29 27 23 25 24 23 24 27 23 25 26 23 27 25 23 22 20 16 13 18 15 12 18 19 17
5 4 4 6 2 6 9 15 17 7 4 1 1 7 7 7 8 14 18 20 22 24 26 30 31 32 28 22 22 21 23 21 23 27 29 28 28 26 25 24 20 15 16 19 17 14 18 17 13
3 2 5 4 9 11 8 8 4 4 4 6 4 8 7 7 9 12 18 22 26 26 29 30 32 31 30 26 24 25 24 24 25 26 29 36 31 31 31 25 24 20 19 18 18 15 19 16 14
1 3 4 7 7 3 7 4 4 9 8 7 7 7 6 7 9 12 16 20 23 25 26 27 28 27 25 23 24 25 22 21 23 27 30 34 37 40 26 25 15 13 13 15 19 16 19 18 18
2 3 6 4 4 5 2 0 5 6 6 5 7 7 6 7 8 12 13 16 18 22 22 22 24 24 24 21 16 14 12 4 14 19 15 21 21 9 25 14 12 8 8 11 12 16 19 23 23
4 4 4 2 2 3 2 2 5 3 2 2 5 6 6 7 8 10 13 15 16 20 21 20 22 24 20 20 17 7 7 13 11 18 23 21 16 14 15 10 6 3 1 5 10 12 14 16 20
5 2 2 2 2 3 3 2 9 5 6 2 4 4 5 5 7 6 8 12 15 17 19 18 21 23 24 21 19 16 19 18 20 15 19 21 18 18 20 15 10 6 3 3 6 5 6 10 10
2 1 3 3 2 3 5 5 5 6 7 6 2 3 5 7 6 4 6 8 10 13 15 17 17 21 20 22 20 18 16 21 13 16 21 22 14 17 16 15 14 13 11 9 7 6 7 9 9
1 1 2 0 3 1 4 6 7 8 5 5 1 2 3 4 3 3 4 5 8 10 13 13 15 16 17 19 19 21 20 16 19 21 20 18 12 14 17 18 17 17 15 14 12 11 12 12 14
3 2 1 1 2 5 6 5 5 6 4 3 4 3 3 4 2 3 3 4 3 5 7 11 11 12 15 15 18 19 18 16 17 18 17 15 16 17 18 17 18 17 15 14 13 14 13 14 13
3 3 4 3 2 3 4 6 2 6 6 6 5 5 5 5 4 4 5 5 2 2 5 8 10 11 14 14 15 14 15 16 15 16 14 13 15 18 19 17 16 15 14 14 14 14 12 12 13
1 5 7 3 4 4 3 7 7 7 6 6 6 6 7 6 5 5 9 9 6 2 2 2 5 7 8 8 11 13 12 13 15 16 17 19 19 17 17 16 16 15 13 14 12 14 13 14 16

GFSSGP_925_spd_117.txt.gz
Wind_Speed
1 2 6 4 4 5 2 1 3 3 4 3 3 6 6 3 4 4 7 20 11 13 3 4 6 4 5 5 4 4 4 4 5 5 4 4 3 1 3 3 5 5 5 4 6 6 10 5 8
1 5 1 2 4 3 3 3 6 5 2 4 5 4 5 3 5 3 6 19 11 12 3 4 4 5 5 4 4 4 5 5 5 5 4 4 4 4 1 3 5 6 5 4 5 9 11 6 10
3 3 3 4 3 3 4 2 6 4 7 6 3 5 4 2 3 3 9 12 8 9 7 0 4 3 4 4 3 4 5 6 6 4 5 5 5 5 3 4 5 7 5 9 8 9 8 6 8
5 5 4 4 2 7 6 3 4 4 5 6 3 5 4 5 2 4 7 11 8 7 8 3 1 4 5 6 6 5 5 6 6 5 6 5 5 6 6 5 6 7 7 8 11 11 8 7 9
3 3 3 3 3 3 4 4 5 4 4 2 3 2 3 4 8 6 10 12 13 8 9 7 3 3 4 5 7 8 8 8 8 9 9 9 7 7 7 7 7 8 11 9 12 12 11 9 11
3 3 3 3 5 4 3 5 3 3 3 3 5 3 2 8 6 7 8 12 12 11 8 7 5 1 2 4 6 8 9 10 10 10 10 10 10 9 9 10 10 9 11 11 11 14 12 11 12
3 3 4 4 7 3 2 3 4 3 4 4 1 2 4 3 6 8 8 10 8 11 10 7 4 4 3 5 7 9 10 11 12 13 13 13 13 12 11 11 12 12 12 12 12 16 14 12 14
3 3 1 3 5 2 3 3 2 6 3 8 2 3 2 2 6 7 10 10 8 8 11 11 9 5 3 5 7 9 10 13 13 14 15 15 15 15 14 13 14 14 15 15 15 16 17 14 15
2 4 3 4 3 3 3 3 5 1 2 4 2 1 3 8 12 14 14 14 12 10 9 11 14 11 9 10 9 9 11 12 14 17 17 17 17 17 17 17 17 17 17 17 17 17 19 16 16
4 4 2 3 1 4 3 5 4 4 6 3 3 8 14 16 17 15 13 12 14 16 14 11 12 15 17 14 13 13 12 14 16 16 19 20 19 19 20 18 17 18 17 17 17 18 20 19 19
2 4 5 4 5 5 3 3 5 2 3 3 2 5 8 12 14 12 13 12 14 14 17 18 20 18 18 19 17 17 17 18 16 16 18 19 19 17 15 19 19 18 20 18 17 19 22 23 21
5 6 5 3 4 4 2 6 5 4 7 3 2 2 4 5 8 10 11 13 16 15 17 18 18 19 20 21 21 20 20 20 22 21 18 16 20 24 20 20 21 19 22 21 21 23 25 25 24
5 3 5 5 3 1 3 5 5 7 10 9 2 2 6 6 6 7 10 11 16 20 21 21 20 21 21 21 20 21 22 23 23 25 26 26 25 19 25 21 20 19 22 23 23 25 27 28 27
3 5 6 4 1 2 1 4 6 4 4 3 2 7 6 4 6 5 12 14 18 20 23 24 23 20 20 22 23 25 24 24 25 24 27 28 29 29 23 26 23 22 19 23 23 25 28 29 28
4 4 1 2 2 0 1 2 7 6 4 5 6 8 6 5 11 10 14 17 19 20 21 24 25 25 24 22 23 23 23 26 27 28 26 30 28 30 28 25 26 25 18 20 22 22 25 28 28
3 3 2 1 1 1 2 7 4 5 5 7 8 6 2 10 12 17 19 20 21 22 25 27 27 26 25 25 24 24 24 25 26 28 30 29 30 31 31 30 29 27 23 21 22 23 24 25 25
4 0 2 1 2 0 1 6 5 6 6 9 4 1 8 5 10 19 20 21 25 25 25 28 30 28 26 25 26 24 24 23 28 30 28 31 31 35 32 28 28 27 25 22 21 17 19 17 16
1 1 2 2 2 2 3 11 16 12 8 7 3 7 6 6 7 16 19 23 23 23 21 25 27 27 27 27 24 25 25 25 25 27 26 29 30 34 34 30 29 27 24 22 20 17 13 12 10
3 2 2 3 2 3 5 9 18 9 7 6 6 5 6 6 10 14 17 21 24 24 24 27 27 28 28 26 28 26 25 24 24 25 23 26 29 31 37 35 34 28 26 24 19 15 15 14 15
5 3 3 3 2 5 8 14 15 12 5 7 7 5 5 5 7 9 15 19 20 23 25 26 26 27 27 24 26 27 28 26 25 25 27 29 31 31 32 32 33 33 28 25 22 18 15 13 14
4 4 2 2 6 4 6 7 2 1 3 7 6 5 3 4 6 6 12 17 19 24 25 24 26 28 28 29 29 23 23 24 22 21 24 28 29 32 36 36 35 35 31 26 24 21 18 17 15
2 2 2 4 5 2 5 5 5 5 6 5 5 3 3 5 4 6 11 14 17 23 24 26 28 27 23 26 28 19 18 14 7 13 14 15 13 16 22 28 37 36 28 20 20 19 16 16 13
2 1 1 2 2 4 3 2 7 4 5 4 2 2 1 2 3 4 8 14 18 22 22 23 24 23 25 24 23 18 15 11 9 15 15 12 15 12 11 15 26 28 19 19 10 12 12 8 9
3 3 1 2 2 2 5 4 5 5 5 4 2 2 1 4 5 5 9 13 15 18 18 20 23 23 23 24 20 18 15 11 11 16 17 14 15 20 21 12 14 11 14 13 6 3 2 1 2
2 4 3 3 1 5 3 2 9 4 3 6 4 3 1 4 5 4 5 10 13 14 18 19 19 22 22 23 21 18 16 15 18 16 19 15 17 20 24 23 24 2 18 15 10 8 7 7 6
4 5 4 4 2 4 4 6 6 5 5 5 4 4 1 5 4 4 3 7 10 12 15 14 16 17 19 20 20 19 21 21 23 24 16 18 15 23 26 27 22 21 16 18 16 14 12 10 9
2 0 3 2 1 3 3 7 8 6 4 4 4 5 1 1 3 4 5 5 8 8 10 12 11 13 15 15 16 18 18 20 21 17 17 21 24 24 22 15 14 16 21 18 18 17 16 14 13
2 2 3 2 2 5 6 6 6 5 7 5 6 7 6 5 4 4 5 5 5 6 5 5 7 9 11 13 15 16 17 17 16 16 18 19 19 22 18 17 18 19 17 16 16 16 15 14 14
2 2 4 2 4 4 4 6 5 9 8 9 8 7 7 7 6 6 7 7 5 4 4 3 3 5 7 10 12 13 14 15 17 19 20 20 19 18 17 17 16 17 17 16 16 14 15 15 15
5 7 6 4 4 4 2 7 4 7 8 7 6 7 7 8 8 7 11 10 9 8 7 6 3 4 5 5 6 9 11 13 15 16 17 17 16 16 17 17 18 18 18 15 16 17 16 15 14